<?xml version="1.0" encoding="UTF-8" standalone="no" ?>
<gpx xmlns="http://www.topografix.com/GPX/1/1" xmlns:xsi="http://www.w3.org/2001/XMLSchema-instance" xsi:schemaLocation="http://www.topografix.com/GPX/1/1 http://www.topografix.com/GPX/1/1/gpx.xsd" version="1.1" creator="VisuGPX - https://www.visugpx.com">
  <metadata>
    <name>Circuit Vaugneray - la Berlandine - Crêt Chevreau</name>
    <desc><![CDATA[Une DH trop risquée dans le Crêt Chevreau, certainement une erreur d\'itinéraire...]]></desc>
  </metadata>
  <trk>
    <name><![CDATA[TracÃ© actuel: 01 OCT 2011 07:52]]></name>
    <trkseg>
      <trkpt lat="45.73853" lon="4.65712">
        <ele>409</ele>
        <time>2011-10-01T05:52:51Z</time>
      </trkpt>
      <trkpt lat="45.73853" lon="4.65712">
        <ele>411</ele>
        <time>2011-10-01T05:53:06Z</time>
      </trkpt>
      <trkpt lat="45.73853" lon="4.65712">
        <ele>411</ele>
        <time>2011-10-01T05:53:19Z</time>
      </trkpt>
      <trkpt lat="45.73854" lon="4.65711">
        <ele>411</ele>
        <time>2011-10-01T05:53:26Z</time>
      </trkpt>
      <trkpt lat="45.73854" lon="4.65711">
        <ele>411</ele>
        <time>2011-10-01T05:53:37Z</time>
      </trkpt>
      <trkpt lat="45.73857" lon="4.65711">
        <ele>411</ele>
        <time>2011-10-01T05:53:41Z</time>
      </trkpt>
      <trkpt lat="45.7386" lon="4.65713">
        <ele>412</ele>
        <time>2011-10-01T05:53:46Z</time>
      </trkpt>
      <trkpt lat="45.73868" lon="4.65716">
        <ele>413</ele>
        <time>2011-10-01T05:53:55Z</time>
      </trkpt>
      <trkpt lat="45.7387" lon="4.65716">
        <ele>413</ele>
        <time>2011-10-01T05:53:56Z</time>
      </trkpt>
      <trkpt lat="45.73874" lon="4.65717">
        <ele>413</ele>
        <time>2011-10-01T05:54:00Z</time>
      </trkpt>
      <trkpt lat="45.73876" lon="4.65717">
        <ele>413</ele>
        <time>2011-10-01T05:54:02Z</time>
      </trkpt>
      <trkpt lat="45.73885" lon="4.65718">
        <ele>414</ele>
        <time>2011-10-01T05:54:09Z</time>
      </trkpt>
      <trkpt lat="45.73888" lon="4.65716">
        <ele>415</ele>
        <time>2011-10-01T05:54:12Z</time>
      </trkpt>
      <trkpt lat="45.73894" lon="4.65714">
        <ele>416</ele>
        <time>2011-10-01T05:54:20Z</time>
      </trkpt>
      <trkpt lat="45.73896" lon="4.65717">
        <ele>417</ele>
        <time>2011-10-01T05:54:23Z</time>
      </trkpt>
      <trkpt lat="45.73899" lon="4.65718">
        <ele>417</ele>
        <time>2011-10-01T05:54:26Z</time>
      </trkpt>
      <trkpt lat="45.73908" lon="4.65722">
        <ele>418</ele>
        <time>2011-10-01T05:54:34Z</time>
      </trkpt>
      <trkpt lat="45.73909" lon="4.65723">
        <ele>418</ele>
        <time>2011-10-01T05:54:35Z</time>
      </trkpt>
      <trkpt lat="45.73919" lon="4.6572">
        <ele>420</ele>
        <time>2011-10-01T05:54:44Z</time>
      </trkpt>
      <trkpt lat="45.73926" lon="4.65719">
        <ele>421</ele>
        <time>2011-10-01T05:54:51Z</time>
      </trkpt>
      <trkpt lat="45.73932" lon="4.65718">
        <ele>422</ele>
        <time>2011-10-01T05:54:58Z</time>
      </trkpt>
      <trkpt lat="45.73935" lon="4.65715">
        <ele>423</ele>
        <time>2011-10-01T05:55:03Z</time>
      </trkpt>
      <trkpt lat="45.73941" lon="4.65707">
        <ele>422</ele>
        <time>2011-10-01T05:55:10Z</time>
      </trkpt>
      <trkpt lat="45.73943" lon="4.65705">
        <ele>423</ele>
        <time>2011-10-01T05:55:12Z</time>
      </trkpt>
      <trkpt lat="45.73955" lon="4.65694">
        <ele>424</ele>
        <time>2011-10-01T05:55:21Z</time>
      </trkpt>
      <trkpt lat="45.7397" lon="4.65683">
        <ele>425</ele>
        <time>2011-10-01T05:55:31Z</time>
      </trkpt>
      <trkpt lat="45.73988" lon="4.65675">
        <ele>427</ele>
        <time>2011-10-01T05:55:43Z</time>
      </trkpt>
      <trkpt lat="45.73997" lon="4.6567">
        <ele>428</ele>
        <time>2011-10-01T05:55:50Z</time>
      </trkpt>
      <trkpt lat="45.74006" lon="4.65663">
        <ele>429</ele>
        <time>2011-10-01T05:55:57Z</time>
      </trkpt>
      <trkpt lat="45.74013" lon="4.65655">
        <ele>431</ele>
        <time>2011-10-01T05:56:03Z</time>
      </trkpt>
      <trkpt lat="45.74023" lon="4.65646">
        <ele>432</ele>
        <time>2011-10-01T05:56:11Z</time>
      </trkpt>
      <trkpt lat="45.74025" lon="4.65644">
        <ele>432</ele>
        <time>2011-10-01T05:56:13Z</time>
      </trkpt>
      <trkpt lat="45.74034" lon="4.65632">
        <ele>433</ele>
        <time>2011-10-01T05:56:21Z</time>
      </trkpt>
      <trkpt lat="45.74039" lon="4.65626">
        <ele>434</ele>
        <time>2011-10-01T05:56:26Z</time>
      </trkpt>
      <trkpt lat="45.74046" lon="4.65611">
        <ele>435</ele>
        <time>2011-10-01T05:56:34Z</time>
      </trkpt>
      <trkpt lat="45.74051" lon="4.65603">
        <ele>436</ele>
        <time>2011-10-01T05:56:40Z</time>
      </trkpt>
      <trkpt lat="45.74052" lon="4.65601">
        <ele>437</ele>
        <time>2011-10-01T05:56:42Z</time>
      </trkpt>
      <trkpt lat="45.74061" lon="4.65604">
        <ele>437</ele>
        <time>2011-10-01T05:56:48Z</time>
      </trkpt>
      <trkpt lat="45.74072" lon="4.65596">
        <ele>439</ele>
        <time>2011-10-01T05:56:57Z</time>
      </trkpt>
      <trkpt lat="45.74078" lon="4.65592">
        <ele>440</ele>
        <time>2011-10-01T05:57:02Z</time>
      </trkpt>
      <trkpt lat="45.74086" lon="4.65583">
        <ele>442</ele>
        <time>2011-10-01T05:57:10Z</time>
      </trkpt>
      <trkpt lat="45.74092" lon="4.6558">
        <ele>443</ele>
        <time>2011-10-01T05:57:14Z</time>
      </trkpt>
      <trkpt lat="45.741" lon="4.65584">
        <ele>445</ele>
        <time>2011-10-01T05:57:21Z</time>
      </trkpt>
      <trkpt lat="45.74108" lon="4.65589">
        <ele>445</ele>
        <time>2011-10-01T05:57:28Z</time>
      </trkpt>
      <trkpt lat="45.74114" lon="4.65596">
        <ele>447</ele>
        <time>2011-10-01T05:57:35Z</time>
      </trkpt>
      <trkpt lat="45.74122" lon="4.65603">
        <ele>449</ele>
        <time>2011-10-01T05:57:42Z</time>
      </trkpt>
      <trkpt lat="45.74135" lon="4.65613">
        <ele>451</ele>
        <time>2011-10-01T05:57:52Z</time>
      </trkpt>
      <trkpt lat="45.74144" lon="4.65619">
        <ele>452</ele>
        <time>2011-10-01T05:57:59Z</time>
      </trkpt>
      <trkpt lat="45.74158" lon="4.65629">
        <ele>454</ele>
        <time>2011-10-01T05:58:09Z</time>
      </trkpt>
      <trkpt lat="45.74169" lon="4.65638">
        <ele>455</ele>
        <time>2011-10-01T05:58:18Z</time>
      </trkpt>
      <trkpt lat="45.74171" lon="4.65638">
        <ele>455</ele>
        <time>2011-10-01T05:58:19Z</time>
      </trkpt>
      <trkpt lat="45.74183" lon="4.65646">
        <ele>457</ele>
        <time>2011-10-01T05:58:29Z</time>
      </trkpt>
      <trkpt lat="45.74195" lon="4.65656">
        <ele>459</ele>
        <time>2011-10-01T05:58:38Z</time>
      </trkpt>
      <trkpt lat="45.74205" lon="4.65665">
        <ele>461</ele>
        <time>2011-10-01T05:58:47Z</time>
      </trkpt>
      <trkpt lat="45.74216" lon="4.65675">
        <ele>463</ele>
        <time>2011-10-01T05:58:56Z</time>
      </trkpt>
      <trkpt lat="45.7423" lon="4.6568">
        <ele>465</ele>
        <time>2011-10-01T05:59:05Z</time>
      </trkpt>
      <trkpt lat="45.74234" lon="4.65679">
        <ele>466</ele>
        <time>2011-10-01T05:59:08Z</time>
      </trkpt>
      <trkpt lat="45.74249" lon="4.65681">
        <ele>467</ele>
        <time>2011-10-01T05:59:19Z</time>
      </trkpt>
      <trkpt lat="45.74267" lon="4.65683">
        <ele>470</ele>
        <time>2011-10-01T05:59:30Z</time>
      </trkpt>
      <trkpt lat="45.74278" lon="4.65685">
        <ele>471</ele>
        <time>2011-10-01T05:59:37Z</time>
      </trkpt>
      <trkpt lat="45.74287" lon="4.65688">
        <ele>472</ele>
        <time>2011-10-01T05:59:42Z</time>
      </trkpt>
      <trkpt lat="45.74307" lon="4.65693">
        <ele>474</ele>
        <time>2011-10-01T05:59:53Z</time>
      </trkpt>
      <trkpt lat="45.74323" lon="4.65699">
        <ele>475</ele>
        <time>2011-10-01T06:00:01Z</time>
      </trkpt>
      <trkpt lat="45.74339" lon="4.65702">
        <ele>474</ele>
        <time>2011-10-01T06:00:08Z</time>
      </trkpt>
      <trkpt lat="45.74361" lon="4.65706">
        <ele>473</ele>
        <time>2011-10-01T06:00:14Z</time>
      </trkpt>
      <trkpt lat="45.74365" lon="4.65705">
        <ele>473</ele>
        <time>2011-10-01T06:00:15Z</time>
      </trkpt>
      <trkpt lat="45.7437" lon="4.65703">
        <ele>473</ele>
        <time>2011-10-01T06:00:16Z</time>
      </trkpt>
      <trkpt lat="45.74374" lon="4.657">
        <ele>472</ele>
        <time>2011-10-01T06:00:17Z</time>
      </trkpt>
      <trkpt lat="45.74378" lon="4.65697">
        <ele>472</ele>
        <time>2011-10-01T06:00:18Z</time>
      </trkpt>
      <trkpt lat="45.74382" lon="4.65693">
        <ele>473</ele>
        <time>2011-10-01T06:00:19Z</time>
      </trkpt>
      <trkpt lat="45.74407" lon="4.65663">
        <ele>473</ele>
        <time>2011-10-01T06:00:28Z</time>
      </trkpt>
      <trkpt lat="45.74422" lon="4.6564">
        <ele>474</ele>
        <time>2011-10-01T06:00:35Z</time>
      </trkpt>
      <trkpt lat="45.74439" lon="4.65613">
        <ele>475</ele>
        <time>2011-10-01T06:00:44Z</time>
      </trkpt>
      <trkpt lat="45.74456" lon="4.65584">
        <ele>475</ele>
        <time>2011-10-01T06:00:53Z</time>
      </trkpt>
      <trkpt lat="45.74464" lon="4.6557">
        <ele>476</ele>
        <time>2011-10-01T06:00:57Z</time>
      </trkpt>
      <trkpt lat="45.74478" lon="4.65538">
        <ele>477</ele>
        <time>2011-10-01T06:01:06Z</time>
      </trkpt>
      <trkpt lat="45.74493" lon="4.65511">
        <ele>477</ele>
        <time>2011-10-01T06:01:14Z</time>
      </trkpt>
      <trkpt lat="45.74511" lon="4.65477">
        <ele>479</ele>
        <time>2011-10-01T06:01:24Z</time>
      </trkpt>
      <trkpt lat="45.74526" lon="4.6545">
        <ele>480</ele>
        <time>2011-10-01T06:01:32Z</time>
      </trkpt>
      <trkpt lat="45.7454" lon="4.65424">
        <ele>481</ele>
        <time>2011-10-01T06:01:40Z</time>
      </trkpt>
      <trkpt lat="45.74559" lon="4.65392">
        <ele>483</ele>
        <time>2011-10-01T06:01:50Z</time>
      </trkpt>
      <trkpt lat="45.74577" lon="4.65369">
        <ele>483</ele>
        <time>2011-10-01T06:01:58Z</time>
      </trkpt>
      <trkpt lat="45.74594" lon="4.65339">
        <ele>483</ele>
        <time>2011-10-01T06:02:06Z</time>
      </trkpt>
      <trkpt lat="45.74601" lon="4.65309">
        <ele>484</ele>
        <time>2011-10-01T06:02:13Z</time>
      </trkpt>
      <trkpt lat="45.74605" lon="4.65279">
        <ele>484</ele>
        <time>2011-10-01T06:02:21Z</time>
      </trkpt>
      <trkpt lat="45.74608" lon="4.65251">
        <ele>486</ele>
        <time>2011-10-01T06:02:29Z</time>
      </trkpt>
      <trkpt lat="45.7461" lon="4.65234">
        <ele>487</ele>
        <time>2011-10-01T06:02:35Z</time>
      </trkpt>
      <trkpt lat="45.74612" lon="4.6521">
        <ele>488</ele>
        <time>2011-10-01T06:02:45Z</time>
      </trkpt>
      <trkpt lat="45.74614" lon="4.65187">
        <ele>490</ele>
        <time>2011-10-01T06:02:54Z</time>
      </trkpt>
      <trkpt lat="45.74614" lon="4.6518">
        <ele>491</ele>
        <time>2011-10-01T06:02:58Z</time>
      </trkpt>
      <trkpt lat="45.74614" lon="4.65178">
        <ele>491</ele>
        <time>2011-10-01T06:02:59Z</time>
      </trkpt>
      <trkpt lat="45.74615" lon="4.6516">
        <ele>494</ele>
        <time>2011-10-01T06:03:08Z</time>
      </trkpt>
      <trkpt lat="45.74617" lon="4.65145">
        <ele>495</ele>
        <time>2011-10-01T06:03:15Z</time>
      </trkpt>
      <trkpt lat="45.74618" lon="4.65133">
        <ele>496</ele>
        <time>2011-10-01T06:03:21Z</time>
      </trkpt>
      <trkpt lat="45.74618" lon="4.65131">
        <ele>496</ele>
        <time>2011-10-01T06:03:22Z</time>
      </trkpt>
      <trkpt lat="45.74618" lon="4.65129">
        <ele>497</ele>
        <time>2011-10-01T06:03:23Z</time>
      </trkpt>
      <trkpt lat="45.74618" lon="4.65127">
        <ele>497</ele>
        <time>2011-10-01T06:03:24Z</time>
      </trkpt>
      <trkpt lat="45.74618" lon="4.65124">
        <ele>497</ele>
        <time>2011-10-01T06:03:25Z</time>
      </trkpt>
      <trkpt lat="45.74619" lon="4.65104">
        <ele>498</ele>
        <time>2011-10-01T06:03:34Z</time>
      </trkpt>
      <trkpt lat="45.74622" lon="4.6508">
        <ele>500</ele>
        <time>2011-10-01T06:03:44Z</time>
      </trkpt>
      <trkpt lat="45.74625" lon="4.65058">
        <ele>500</ele>
        <time>2011-10-01T06:03:53Z</time>
      </trkpt>
      <trkpt lat="45.74627" lon="4.65033">
        <ele>501</ele>
        <time>2011-10-01T06:04:02Z</time>
      </trkpt>
      <trkpt lat="45.74629" lon="4.6501">
        <ele>502</ele>
        <time>2011-10-01T06:04:11Z</time>
      </trkpt>
      <trkpt lat="45.74633" lon="4.64991">
        <ele>503</ele>
        <time>2011-10-01T06:04:19Z</time>
      </trkpt>
      <trkpt lat="45.7464" lon="4.64966">
        <ele>505</ele>
        <time>2011-10-01T06:04:30Z</time>
      </trkpt>
      <trkpt lat="45.74646" lon="4.64946">
        <ele>506</ele>
        <time>2011-10-01T06:04:39Z</time>
      </trkpt>
      <trkpt lat="45.74653" lon="4.64924">
        <ele>507</ele>
        <time>2011-10-01T06:04:48Z</time>
      </trkpt>
      <trkpt lat="45.74659" lon="4.64901">
        <ele>507</ele>
        <time>2011-10-01T06:04:57Z</time>
      </trkpt>
      <trkpt lat="45.74665" lon="4.64879">
        <ele>510</ele>
        <time>2011-10-01T06:05:07Z</time>
      </trkpt>
      <trkpt lat="45.74666" lon="4.64877">
        <ele>509</ele>
        <time>2011-10-01T06:05:08Z</time>
      </trkpt>
      <trkpt lat="45.74666" lon="4.64875">
        <ele>509</ele>
        <time>2011-10-01T06:05:09Z</time>
      </trkpt>
      <trkpt lat="45.74667" lon="4.64872">
        <ele>510</ele>
        <time>2011-10-01T06:05:10Z</time>
      </trkpt>
      <trkpt lat="45.74668" lon="4.6487">
        <ele>510</ele>
        <time>2011-10-01T06:05:11Z</time>
      </trkpt>
      <trkpt lat="45.74669" lon="4.64868">
        <ele>510</ele>
        <time>2011-10-01T06:05:12Z</time>
      </trkpt>
      <trkpt lat="45.74669" lon="4.64865">
        <ele>510</ele>
        <time>2011-10-01T06:05:13Z</time>
      </trkpt>
      <trkpt lat="45.74669" lon="4.64863">
        <ele>510</ele>
        <time>2011-10-01T06:05:14Z</time>
      </trkpt>
      <trkpt lat="45.74673" lon="4.6484">
        <ele>512</ele>
        <time>2011-10-01T06:05:24Z</time>
      </trkpt>
      <trkpt lat="45.74673" lon="4.64838">
        <ele>512</ele>
        <time>2011-10-01T06:05:25Z</time>
      </trkpt>
      <trkpt lat="45.74673" lon="4.64836">
        <ele>513</ele>
        <time>2011-10-01T06:05:26Z</time>
      </trkpt>
      <trkpt lat="45.74673" lon="4.64833">
        <ele>513</ele>
        <time>2011-10-01T06:05:27Z</time>
      </trkpt>
      <trkpt lat="45.74673" lon="4.64831">
        <ele>513</ele>
        <time>2011-10-01T06:05:28Z</time>
      </trkpt>
      <trkpt lat="45.74673" lon="4.64829">
        <ele>513</ele>
        <time>2011-10-01T06:05:29Z</time>
      </trkpt>
      <trkpt lat="45.74672" lon="4.64827">
        <ele>513</ele>
        <time>2011-10-01T06:05:30Z</time>
      </trkpt>
      <trkpt lat="45.74672" lon="4.64825">
        <ele>514</ele>
        <time>2011-10-01T06:05:31Z</time>
      </trkpt>
      <trkpt lat="45.74663" lon="4.64813">
        <ele>515</ele>
        <time>2011-10-01T06:05:39Z</time>
      </trkpt>
      <trkpt lat="45.74653" lon="4.64803">
        <ele>517</ele>
        <time>2011-10-01T06:05:48Z</time>
      </trkpt>
      <trkpt lat="45.74639" lon="4.6479">
        <ele>520</ele>
        <time>2011-10-01T06:05:59Z</time>
      </trkpt>
      <trkpt lat="45.7463" lon="4.64779">
        <ele>522</ele>
        <time>2011-10-01T06:06:07Z</time>
      </trkpt>
      <trkpt lat="45.74622" lon="4.64767">
        <ele>523</ele>
        <time>2011-10-01T06:06:15Z</time>
      </trkpt>
      <trkpt lat="45.74612" lon="4.64756">
        <ele>525</ele>
        <time>2011-10-01T06:06:24Z</time>
      </trkpt>
      <trkpt lat="45.74602" lon="4.64746">
        <ele>526</ele>
        <time>2011-10-01T06:06:33Z</time>
      </trkpt>
      <trkpt lat="45.7459" lon="4.64734">
        <ele>529</ele>
        <time>2011-10-01T06:06:43Z</time>
      </trkpt>
      <trkpt lat="45.7458" lon="4.64727">
        <ele>530</ele>
        <time>2011-10-01T06:06:51Z</time>
      </trkpt>
      <trkpt lat="45.7457" lon="4.64718">
        <ele>532</ele>
        <time>2011-10-01T06:06:59Z</time>
      </trkpt>
      <trkpt lat="45.74561" lon="4.64708">
        <ele>534</ele>
        <time>2011-10-01T06:07:07Z</time>
      </trkpt>
      <trkpt lat="45.74552" lon="4.64693">
        <ele>534</ele>
        <time>2011-10-01T06:07:16Z</time>
      </trkpt>
      <trkpt lat="45.74547" lon="4.64679">
        <ele>535</ele>
        <time>2011-10-01T06:07:24Z</time>
      </trkpt>
      <trkpt lat="45.74546" lon="4.64675">
        <ele>537</ele>
        <time>2011-10-01T06:07:26Z</time>
      </trkpt>
      <trkpt lat="45.74545" lon="4.64674">
        <ele>536</ele>
        <time>2011-10-01T06:07:27Z</time>
      </trkpt>
      <trkpt lat="45.74545" lon="4.64672">
        <ele>536</ele>
        <time>2011-10-01T06:07:28Z</time>
      </trkpt>
      <trkpt lat="45.74544" lon="4.6467">
        <ele>537</ele>
        <time>2011-10-01T06:07:29Z</time>
      </trkpt>
      <trkpt lat="45.74544" lon="4.64667">
        <ele>537</ele>
        <time>2011-10-01T06:07:30Z</time>
      </trkpt>
      <trkpt lat="45.74543" lon="4.64665">
        <ele>537</ele>
        <time>2011-10-01T06:07:31Z</time>
      </trkpt>
      <trkpt lat="45.74543" lon="4.64663">
        <ele>537</ele>
        <time>2011-10-01T06:07:32Z</time>
      </trkpt>
      <trkpt lat="45.74537" lon="4.64647">
        <ele>537</ele>
        <time>2011-10-01T06:07:40Z</time>
      </trkpt>
      <trkpt lat="45.74531" lon="4.6463">
        <ele>538</ele>
        <time>2011-10-01T06:07:48Z</time>
      </trkpt>
      <trkpt lat="45.74531" lon="4.64627">
        <ele>538</ele>
        <time>2011-10-01T06:07:49Z</time>
      </trkpt>
      <trkpt lat="45.7453" lon="4.64625">
        <ele>538</ele>
        <time>2011-10-01T06:07:50Z</time>
      </trkpt>
      <trkpt lat="45.74526" lon="4.64607">
        <ele>540</ele>
        <time>2011-10-01T06:07:59Z</time>
      </trkpt>
      <trkpt lat="45.74522" lon="4.64591">
        <ele>542</ele>
        <time>2011-10-01T06:08:07Z</time>
      </trkpt>
      <trkpt lat="45.74517" lon="4.64576">
        <ele>543</ele>
        <time>2011-10-01T06:08:14Z</time>
      </trkpt>
      <trkpt lat="45.74512" lon="4.6456">
        <ele>544</ele>
        <time>2011-10-01T06:08:21Z</time>
      </trkpt>
      <trkpt lat="45.74509" lon="4.64543">
        <ele>546</ele>
        <time>2011-10-01T06:08:28Z</time>
      </trkpt>
      <trkpt lat="45.74504" lon="4.64525">
        <ele>547</ele>
        <time>2011-10-01T06:08:36Z</time>
      </trkpt>
      <trkpt lat="45.74501" lon="4.6451">
        <ele>548</ele>
        <time>2011-10-01T06:08:43Z</time>
      </trkpt>
      <trkpt lat="45.745" lon="4.64496">
        <ele>550</ele>
        <time>2011-10-01T06:08:50Z</time>
      </trkpt>
      <trkpt lat="45.745" lon="4.64486">
        <ele>550</ele>
        <time>2011-10-01T06:08:55Z</time>
      </trkpt>
      <trkpt lat="45.74498" lon="4.64475">
        <ele>551</ele>
        <time>2011-10-01T06:09:00Z</time>
      </trkpt>
      <trkpt lat="45.74497" lon="4.64473">
        <ele>551</ele>
        <time>2011-10-01T06:09:01Z</time>
      </trkpt>
      <trkpt lat="45.74497" lon="4.64471">
        <ele>551</ele>
        <time>2011-10-01T06:09:02Z</time>
      </trkpt>
      <trkpt lat="45.74496" lon="4.64469">
        <ele>551</ele>
        <time>2011-10-01T06:09:03Z</time>
      </trkpt>
      <trkpt lat="45.74496" lon="4.64468">
        <ele>551</ele>
        <time>2011-10-01T06:09:04Z</time>
      </trkpt>
      <trkpt lat="45.74495" lon="4.64466">
        <ele>552</ele>
        <time>2011-10-01T06:09:05Z</time>
      </trkpt>
      <trkpt lat="45.74495" lon="4.64464">
        <ele>551</ele>
        <time>2011-10-01T06:09:06Z</time>
      </trkpt>
      <trkpt lat="45.74494" lon="4.64462">
        <ele>552</ele>
        <time>2011-10-01T06:09:07Z</time>
      </trkpt>
      <trkpt lat="45.74494" lon="4.64459">
        <ele>552</ele>
        <time>2011-10-01T06:09:08Z</time>
      </trkpt>
      <trkpt lat="45.74494" lon="4.64443">
        <ele>553</ele>
        <time>2011-10-01T06:09:16Z</time>
      </trkpt>
      <trkpt lat="45.74494" lon="4.64425">
        <ele>555</ele>
        <time>2011-10-01T06:09:24Z</time>
      </trkpt>
      <trkpt lat="45.74493" lon="4.64409">
        <ele>556</ele>
        <time>2011-10-01T06:09:32Z</time>
      </trkpt>
      <trkpt lat="45.74491" lon="4.64395">
        <ele>557</ele>
        <time>2011-10-01T06:09:39Z</time>
      </trkpt>
      <trkpt lat="45.7449" lon="4.64393">
        <ele>557</ele>
        <time>2011-10-01T06:09:40Z</time>
      </trkpt>
      <trkpt lat="45.7449" lon="4.64392">
        <ele>557</ele>
        <time>2011-10-01T06:09:41Z</time>
      </trkpt>
      <trkpt lat="45.7449" lon="4.6439">
        <ele>557</ele>
        <time>2011-10-01T06:09:42Z</time>
      </trkpt>
      <trkpt lat="45.74489" lon="4.64388">
        <ele>558</ele>
        <time>2011-10-01T06:09:43Z</time>
      </trkpt>
      <trkpt lat="45.7449" lon="4.64386">
        <ele>557</ele>
        <time>2011-10-01T06:09:44Z</time>
      </trkpt>
      <trkpt lat="45.74491" lon="4.64382">
        <ele>557</ele>
        <time>2011-10-01T06:09:51Z</time>
      </trkpt>
      <trkpt lat="45.74491" lon="4.64382">
        <ele>558</ele>
        <time>2011-10-01T06:10:16Z</time>
      </trkpt>
      <trkpt lat="45.74491" lon="4.64382">
        <ele>558</ele>
        <time>2011-10-01T06:10:45Z</time>
      </trkpt>
      <trkpt lat="45.74491" lon="4.64382">
        <ele>558</ele>
        <time>2011-10-01T06:11:11Z</time>
      </trkpt>
      <trkpt lat="45.74491" lon="4.64382">
        <ele>558</ele>
        <time>2011-10-01T06:11:38Z</time>
      </trkpt>
      <trkpt lat="45.74491" lon="4.64382">
        <ele>558</ele>
        <time>2011-10-01T06:12:05Z</time>
      </trkpt>
      <trkpt lat="45.74492" lon="4.64383">
        <ele>558</ele>
        <time>2011-10-01T06:12:26Z</time>
      </trkpt>
      <trkpt lat="45.74492" lon="4.64383">
        <ele>559</ele>
        <time>2011-10-01T06:12:33Z</time>
      </trkpt>
      <trkpt lat="45.74492" lon="4.64383">
        <ele>558</ele>
        <time>2011-10-01T06:12:37Z</time>
      </trkpt>
      <trkpt lat="45.745" lon="4.64384">
        <ele>560</ele>
        <time>2011-10-01T06:12:43Z</time>
      </trkpt>
      <trkpt lat="45.74505" lon="4.64388">
        <ele>561</ele>
        <time>2011-10-01T06:12:47Z</time>
      </trkpt>
      <trkpt lat="45.74506" lon="4.64389">
        <ele>560</ele>
        <time>2011-10-01T06:12:48Z</time>
      </trkpt>
      <trkpt lat="45.74507" lon="4.64391">
        <ele>561</ele>
        <time>2011-10-01T06:12:49Z</time>
      </trkpt>
      <trkpt lat="45.74508" lon="4.64393">
        <ele>561</ele>
        <time>2011-10-01T06:12:50Z</time>
      </trkpt>
      <trkpt lat="45.74509" lon="4.64394">
        <ele>561</ele>
        <time>2011-10-01T06:12:51Z</time>
      </trkpt>
      <trkpt lat="45.74523" lon="4.64414">
        <ele>562</ele>
        <time>2011-10-01T06:13:03Z</time>
      </trkpt>
      <trkpt lat="45.7453" lon="4.64432">
        <ele>564</ele>
        <time>2011-10-01T06:13:12Z</time>
      </trkpt>
      <trkpt lat="45.74539" lon="4.64449">
        <ele>567</ele>
        <time>2011-10-01T06:13:22Z</time>
      </trkpt>
      <trkpt lat="45.74549" lon="4.64462">
        <ele>567</ele>
        <time>2011-10-01T06:13:30Z</time>
      </trkpt>
      <trkpt lat="45.74559" lon="4.64473">
        <ele>568</ele>
        <time>2011-10-01T06:13:37Z</time>
      </trkpt>
      <trkpt lat="45.74575" lon="4.64481">
        <ele>570</ele>
        <time>2011-10-01T06:13:47Z</time>
      </trkpt>
      <trkpt lat="45.7459" lon="4.6449">
        <ele>573</ele>
        <time>2011-10-01T06:13:57Z</time>
      </trkpt>
      <trkpt lat="45.74602" lon="4.64491">
        <ele>574</ele>
        <time>2011-10-01T06:14:04Z</time>
      </trkpt>
      <trkpt lat="45.7461" lon="4.6449">
        <ele>574</ele>
        <time>2011-10-01T06:14:09Z</time>
      </trkpt>
      <trkpt lat="45.74611" lon="4.64489">
        <ele>575</ele>
        <time>2011-10-01T06:14:10Z</time>
      </trkpt>
      <trkpt lat="45.74613" lon="4.64489">
        <ele>574</ele>
        <time>2011-10-01T06:14:11Z</time>
      </trkpt>
      <trkpt lat="45.7463" lon="4.64486">
        <ele>576</ele>
        <time>2011-10-01T06:14:21Z</time>
      </trkpt>
      <trkpt lat="45.74644" lon="4.64483">
        <ele>577</ele>
        <time>2011-10-01T06:14:30Z</time>
      </trkpt>
      <trkpt lat="45.7465" lon="4.64483">
        <ele>579</ele>
        <time>2011-10-01T06:14:34Z</time>
      </trkpt>
      <trkpt lat="45.74651" lon="4.64482">
        <ele>578</ele>
        <time>2011-10-01T06:14:35Z</time>
      </trkpt>
      <trkpt lat="45.74652" lon="4.64482">
        <ele>579</ele>
        <time>2011-10-01T06:14:36Z</time>
      </trkpt>
      <trkpt lat="45.74664" lon="4.64478">
        <ele>580</ele>
        <time>2011-10-01T06:14:44Z</time>
      </trkpt>
      <trkpt lat="45.74675" lon="4.64468">
        <ele>582</ele>
        <time>2011-10-01T06:14:53Z</time>
      </trkpt>
      <trkpt lat="45.74683" lon="4.6446">
        <ele>582</ele>
        <time>2011-10-01T06:14:59Z</time>
      </trkpt>
      <trkpt lat="45.74684" lon="4.64458">
        <ele>583</ele>
        <time>2011-10-01T06:15:00Z</time>
      </trkpt>
      <trkpt lat="45.74686" lon="4.64457">
        <ele>583</ele>
        <time>2011-10-01T06:15:01Z</time>
      </trkpt>
      <trkpt lat="45.74687" lon="4.64455">
        <ele>583</ele>
        <time>2011-10-01T06:15:02Z</time>
      </trkpt>
      <trkpt lat="45.74688" lon="4.64454">
        <ele>583</ele>
        <time>2011-10-01T06:15:03Z</time>
      </trkpt>
      <trkpt lat="45.74689" lon="4.64452">
        <ele>584</ele>
        <time>2011-10-01T06:15:04Z</time>
      </trkpt>
      <trkpt lat="45.7469" lon="4.64451">
        <ele>584</ele>
        <time>2011-10-01T06:15:05Z</time>
      </trkpt>
      <trkpt lat="45.74691" lon="4.64449">
        <ele>584</ele>
        <time>2011-10-01T06:15:06Z</time>
      </trkpt>
      <trkpt lat="45.74692" lon="4.64448">
        <ele>584</ele>
        <time>2011-10-01T06:15:07Z</time>
      </trkpt>
      <trkpt lat="45.74701" lon="4.64433">
        <ele>587</ele>
        <time>2011-10-01T06:15:16Z</time>
      </trkpt>
      <trkpt lat="45.74701" lon="4.64431">
        <ele>587</ele>
        <time>2011-10-01T06:15:17Z</time>
      </trkpt>
      <trkpt lat="45.74702" lon="4.64429">
        <ele>587</ele>
        <time>2011-10-01T06:15:18Z</time>
      </trkpt>
      <trkpt lat="45.74703" lon="4.64427">
        <ele>587</ele>
        <time>2011-10-01T06:15:19Z</time>
      </trkpt>
      <trkpt lat="45.74705" lon="4.64426">
        <ele>587</ele>
        <time>2011-10-01T06:15:20Z</time>
      </trkpt>
      <trkpt lat="45.74706" lon="4.64424">
        <ele>587</ele>
        <time>2011-10-01T06:15:21Z</time>
      </trkpt>
      <trkpt lat="45.74707" lon="4.64422">
        <ele>588</ele>
        <time>2011-10-01T06:15:22Z</time>
      </trkpt>
      <trkpt lat="45.74708" lon="4.64421">
        <ele>588</ele>
        <time>2011-10-01T06:15:23Z</time>
      </trkpt>
      <trkpt lat="45.74714" lon="4.64412">
        <ele>588</ele>
        <time>2011-10-01T06:15:29Z</time>
      </trkpt>
      <trkpt lat="45.74725" lon="4.64397">
        <ele>590</ele>
        <time>2011-10-01T06:15:38Z</time>
      </trkpt>
      <trkpt lat="45.74731" lon="4.6439">
        <ele>591</ele>
        <time>2011-10-01T06:15:43Z</time>
      </trkpt>
      <trkpt lat="45.74733" lon="4.64388">
        <ele>591</ele>
        <time>2011-10-01T06:15:44Z</time>
      </trkpt>
      <trkpt lat="45.74734" lon="4.64386">
        <ele>591</ele>
        <time>2011-10-01T06:15:45Z</time>
      </trkpt>
      <trkpt lat="45.74735" lon="4.64384">
        <ele>591</ele>
        <time>2011-10-01T06:15:46Z</time>
      </trkpt>
      <trkpt lat="45.74736" lon="4.64383">
        <ele>591</ele>
        <time>2011-10-01T06:15:47Z</time>
      </trkpt>
      <trkpt lat="45.74737" lon="4.64381">
        <ele>591</ele>
        <time>2011-10-01T06:15:48Z</time>
      </trkpt>
      <trkpt lat="45.74746" lon="4.64368">
        <ele>592</ele>
        <time>2011-10-01T06:15:56Z</time>
      </trkpt>
      <trkpt lat="45.74757" lon="4.64352">
        <ele>593</ele>
        <time>2011-10-01T06:16:05Z</time>
      </trkpt>
      <trkpt lat="45.74765" lon="4.64341">
        <ele>595</ele>
        <time>2011-10-01T06:16:12Z</time>
      </trkpt>
      <trkpt lat="45.74773" lon="4.64334">
        <ele>595</ele>
        <time>2011-10-01T06:16:18Z</time>
      </trkpt>
      <trkpt lat="45.74774" lon="4.64333">
        <ele>595</ele>
        <time>2011-10-01T06:16:19Z</time>
      </trkpt>
      <trkpt lat="45.74776" lon="4.64332">
        <ele>595</ele>
        <time>2011-10-01T06:16:20Z</time>
      </trkpt>
      <trkpt lat="45.74783" lon="4.64325">
        <ele>596</ele>
        <time>2011-10-01T06:16:25Z</time>
      </trkpt>
      <trkpt lat="45.74792" lon="4.64309">
        <ele>598</ele>
        <time>2011-10-01T06:16:34Z</time>
      </trkpt>
      <trkpt lat="45.74799" lon="4.64297">
        <ele>599</ele>
        <time>2011-10-01T06:16:41Z</time>
      </trkpt>
      <trkpt lat="45.74809" lon="4.64281">
        <ele>600</ele>
        <time>2011-10-01T06:16:50Z</time>
      </trkpt>
      <trkpt lat="45.74817" lon="4.64271">
        <ele>601</ele>
        <time>2011-10-01T06:16:57Z</time>
      </trkpt>
      <trkpt lat="45.74824" lon="4.64262">
        <ele>602</ele>
        <time>2011-10-01T06:17:03Z</time>
      </trkpt>
      <trkpt lat="45.74825" lon="4.64261">
        <ele>602</ele>
        <time>2011-10-01T06:17:04Z</time>
      </trkpt>
      <trkpt lat="45.74826" lon="4.6426">
        <ele>602</ele>
        <time>2011-10-01T06:17:05Z</time>
      </trkpt>
      <trkpt lat="45.74828" lon="4.64259">
        <ele>602</ele>
        <time>2011-10-01T06:17:06Z</time>
      </trkpt>
      <trkpt lat="45.74829" lon="4.64257">
        <ele>602</ele>
        <time>2011-10-01T06:17:07Z</time>
      </trkpt>
      <trkpt lat="45.7483" lon="4.64256">
        <ele>602</ele>
        <time>2011-10-01T06:17:08Z</time>
      </trkpt>
      <trkpt lat="45.74839" lon="4.64243">
        <ele>603</ele>
        <time>2011-10-01T06:17:15Z</time>
      </trkpt>
      <trkpt lat="45.74843" lon="4.64239">
        <ele>603</ele>
        <time>2011-10-01T06:17:18Z</time>
      </trkpt>
      <trkpt lat="45.74844" lon="4.64237">
        <ele>604</ele>
        <time>2011-10-01T06:17:19Z</time>
      </trkpt>
      <trkpt lat="45.74845" lon="4.64234">
        <ele>604</ele>
        <time>2011-10-01T06:17:20Z</time>
      </trkpt>
      <trkpt lat="45.74846" lon="4.64233">
        <ele>604</ele>
        <time>2011-10-01T06:17:21Z</time>
      </trkpt>
      <trkpt lat="45.74847" lon="4.64231">
        <ele>604</ele>
        <time>2011-10-01T06:17:22Z</time>
      </trkpt>
      <trkpt lat="45.74848" lon="4.64229">
        <ele>604</ele>
        <time>2011-10-01T06:17:23Z</time>
      </trkpt>
      <trkpt lat="45.74849" lon="4.64227">
        <ele>604</ele>
        <time>2011-10-01T06:17:24Z</time>
      </trkpt>
      <trkpt lat="45.74856" lon="4.64217">
        <ele>605</ele>
        <time>2011-10-01T06:17:31Z</time>
      </trkpt>
      <trkpt lat="45.74865" lon="4.64201">
        <ele>606</ele>
        <time>2011-10-01T06:17:39Z</time>
      </trkpt>
      <trkpt lat="45.74873" lon="4.64188">
        <ele>607</ele>
        <time>2011-10-01T06:17:46Z</time>
      </trkpt>
      <trkpt lat="45.74882" lon="4.64174">
        <ele>609</ele>
        <time>2011-10-01T06:17:54Z</time>
      </trkpt>
      <trkpt lat="45.74891" lon="4.64161">
        <ele>609</ele>
        <time>2011-10-01T06:18:01Z</time>
      </trkpt>
      <trkpt lat="45.74897" lon="4.64148">
        <ele>610</ele>
        <time>2011-10-01T06:18:08Z</time>
      </trkpt>
      <trkpt lat="45.749" lon="4.64143">
        <ele>611</ele>
        <time>2011-10-01T06:18:11Z</time>
      </trkpt>
      <trkpt lat="45.74901" lon="4.6414">
        <ele>611</ele>
        <time>2011-10-01T06:18:12Z</time>
      </trkpt>
      <trkpt lat="45.74911" lon="4.64124">
        <ele>612</ele>
        <time>2011-10-01T06:18:20Z</time>
      </trkpt>
      <trkpt lat="45.74921" lon="4.64106">
        <ele>612</ele>
        <time>2011-10-01T06:18:29Z</time>
      </trkpt>
      <trkpt lat="45.74926" lon="4.64099">
        <ele>613</ele>
        <time>2011-10-01T06:18:33Z</time>
      </trkpt>
      <trkpt lat="45.74929" lon="4.64093">
        <ele>613</ele>
        <time>2011-10-01T06:18:36Z</time>
      </trkpt>
      <trkpt lat="45.7493" lon="4.64091">
        <ele>613</ele>
        <time>2011-10-01T06:18:37Z</time>
      </trkpt>
      <trkpt lat="45.74931" lon="4.6409">
        <ele>613</ele>
        <time>2011-10-01T06:18:38Z</time>
      </trkpt>
      <trkpt lat="45.74941" lon="4.64073">
        <ele>615</ele>
        <time>2011-10-01T06:18:47Z</time>
      </trkpt>
      <trkpt lat="45.74949" lon="4.64057">
        <ele>616</ele>
        <time>2011-10-01T06:18:55Z</time>
      </trkpt>
      <trkpt lat="45.74955" lon="4.64043">
        <ele>617</ele>
        <time>2011-10-01T06:19:02Z</time>
      </trkpt>
      <trkpt lat="45.74963" lon="4.64033">
        <ele>618</ele>
        <time>2011-10-01T06:19:09Z</time>
      </trkpt>
      <trkpt lat="45.74967" lon="4.64028">
        <ele>618</ele>
        <time>2011-10-01T06:19:12Z</time>
      </trkpt>
      <trkpt lat="45.74968" lon="4.64026">
        <ele>618</ele>
        <time>2011-10-01T06:19:13Z</time>
      </trkpt>
      <trkpt lat="45.74977" lon="4.64013">
        <ele>620</ele>
        <time>2011-10-01T06:19:21Z</time>
      </trkpt>
      <trkpt lat="45.74983" lon="4.64">
        <ele>621</ele>
        <time>2011-10-01T06:19:29Z</time>
      </trkpt>
      <trkpt lat="45.74991" lon="4.6399">
        <ele>623</ele>
        <time>2011-10-01T06:19:36Z</time>
      </trkpt>
      <trkpt lat="45.74992" lon="4.63987">
        <ele>623</ele>
        <time>2011-10-01T06:19:38Z</time>
      </trkpt>
      <trkpt lat="45.74993" lon="4.63987">
        <ele>623</ele>
        <time>2011-10-01T06:19:39Z</time>
      </trkpt>
      <trkpt lat="45.74994" lon="4.63986">
        <ele>623</ele>
        <time>2011-10-01T06:19:40Z</time>
      </trkpt>
      <trkpt lat="45.75" lon="4.6398">
        <ele>624</ele>
        <time>2011-10-01T06:19:45Z</time>
      </trkpt>
      <trkpt lat="45.75001" lon="4.63976">
        <ele>624</ele>
        <time>2011-10-01T06:19:47Z</time>
      </trkpt>
      <trkpt lat="45.75006" lon="4.63962">
        <ele>626</ele>
        <time>2011-10-01T06:19:55Z</time>
      </trkpt>
      <trkpt lat="45.75014" lon="4.63953">
        <ele>628</ele>
        <time>2011-10-01T06:20:03Z</time>
      </trkpt>
      <trkpt lat="45.75017" lon="4.6395">
        <ele>628</ele>
        <time>2011-10-01T06:20:05Z</time>
      </trkpt>
      <trkpt lat="45.75026" lon="4.63941">
        <ele>630</ele>
        <time>2011-10-01T06:20:13Z</time>
      </trkpt>
      <trkpt lat="45.75028" lon="4.63939">
        <ele>630</ele>
        <time>2011-10-01T06:20:15Z</time>
      </trkpt>
      <trkpt lat="45.75033" lon="4.63933">
        <ele>631</ele>
        <time>2011-10-01T06:20:19Z</time>
      </trkpt>
      <trkpt lat="45.75041" lon="4.63924">
        <ele>632</ele>
        <time>2011-10-01T06:20:26Z</time>
      </trkpt>
      <trkpt lat="45.75048" lon="4.63914">
        <ele>634</ele>
        <time>2011-10-01T06:20:33Z</time>
      </trkpt>
      <trkpt lat="45.75058" lon="4.63906">
        <ele>635</ele>
        <time>2011-10-01T06:20:41Z</time>
      </trkpt>
      <trkpt lat="45.75064" lon="4.63903">
        <ele>636</ele>
        <time>2011-10-01T06:20:46Z</time>
      </trkpt>
      <trkpt lat="45.75071" lon="4.63898">
        <ele>637</ele>
        <time>2011-10-01T06:20:53Z</time>
      </trkpt>
      <trkpt lat="45.75082" lon="4.63889">
        <ele>638</ele>
        <time>2011-10-01T06:21:01Z</time>
      </trkpt>
      <trkpt lat="45.75089" lon="4.63885">
        <ele>639</ele>
        <time>2011-10-01T06:21:06Z</time>
      </trkpt>
      <trkpt lat="45.75097" lon="4.63882">
        <ele>641</ele>
        <time>2011-10-01T06:21:12Z</time>
      </trkpt>
      <trkpt lat="45.751" lon="4.63876">
        <ele>642</ele>
        <time>2011-10-01T06:21:15Z</time>
      </trkpt>
      <trkpt lat="45.75102" lon="4.63874">
        <ele>642</ele>
        <time>2011-10-01T06:21:17Z</time>
      </trkpt>
      <trkpt lat="45.75112" lon="4.63863">
        <ele>643</ele>
        <time>2011-10-01T06:21:26Z</time>
      </trkpt>
      <trkpt lat="45.7512" lon="4.63859">
        <ele>644</ele>
        <time>2011-10-01T06:21:32Z</time>
      </trkpt>
      <trkpt lat="45.75127" lon="4.63856">
        <ele>644</ele>
        <time>2011-10-01T06:21:37Z</time>
      </trkpt>
      <trkpt lat="45.7513" lon="4.63853">
        <ele>645</ele>
        <time>2011-10-01T06:21:40Z</time>
      </trkpt>
      <trkpt lat="45.75137" lon="4.63849">
        <ele>645</ele>
        <time>2011-10-01T06:21:45Z</time>
      </trkpt>
      <trkpt lat="45.75155" lon="4.63848">
        <ele>643</ele>
        <time>2011-10-01T06:21:52Z</time>
      </trkpt>
      <trkpt lat="45.75166" lon="4.63846">
        <ele>644</ele>
        <time>2011-10-01T06:21:57Z</time>
      </trkpt>
      <trkpt lat="45.75184" lon="4.63837">
        <ele>644</ele>
        <time>2011-10-01T06:22:04Z</time>
      </trkpt>
      <trkpt lat="45.75198" lon="4.63828">
        <ele>644</ele>
        <time>2011-10-01T06:22:10Z</time>
      </trkpt>
      <trkpt lat="45.7521" lon="4.63818">
        <ele>645</ele>
        <time>2011-10-01T06:22:16Z</time>
      </trkpt>
      <trkpt lat="45.75223" lon="4.63799">
        <ele>646</ele>
        <time>2011-10-01T06:22:24Z</time>
      </trkpt>
      <trkpt lat="45.75232" lon="4.63787">
        <ele>647</ele>
        <time>2011-10-01T06:22:30Z</time>
      </trkpt>
      <trkpt lat="45.75243" lon="4.63767">
        <ele>647</ele>
        <time>2011-10-01T06:22:38Z</time>
      </trkpt>
      <trkpt lat="45.75253" lon="4.63747">
        <ele>647</ele>
        <time>2011-10-01T06:22:45Z</time>
      </trkpt>
      <trkpt lat="45.75263" lon="4.63724">
        <ele>648</ele>
        <time>2011-10-01T06:22:53Z</time>
      </trkpt>
      <trkpt lat="45.75268" lon="4.637">
        <ele>649</ele>
        <time>2011-10-01T06:23:01Z</time>
      </trkpt>
      <trkpt lat="45.75267" lon="4.63681">
        <ele>650</ele>
        <time>2011-10-01T06:23:09Z</time>
      </trkpt>
      <trkpt lat="45.75266" lon="4.63667">
        <ele>652</ele>
        <time>2011-10-01T06:23:16Z</time>
      </trkpt>
      <trkpt lat="45.75265" lon="4.63642">
        <ele>654</ele>
        <time>2011-10-01T06:23:27Z</time>
      </trkpt>
      <trkpt lat="45.75264" lon="4.63638">
        <ele>654</ele>
        <time>2011-10-01T06:23:29Z</time>
      </trkpt>
      <trkpt lat="45.75261" lon="4.63616">
        <ele>657</ele>
        <time>2011-10-01T06:23:39Z</time>
      </trkpt>
      <trkpt lat="45.75259" lon="4.63595">
        <ele>658</ele>
        <time>2011-10-01T06:23:48Z</time>
      </trkpt>
      <trkpt lat="45.75256" lon="4.63578">
        <ele>659</ele>
        <time>2011-10-01T06:23:56Z</time>
      </trkpt>
      <trkpt lat="45.75252" lon="4.63567">
        <ele>660</ele>
        <time>2011-10-01T06:24:02Z</time>
      </trkpt>
      <trkpt lat="45.75248" lon="4.6355">
        <ele>662</ele>
        <time>2011-10-01T06:24:10Z</time>
      </trkpt>
      <trkpt lat="45.75248" lon="4.6354">
        <ele>662</ele>
        <time>2011-10-01T06:24:16Z</time>
      </trkpt>
      <trkpt lat="45.75246" lon="4.63527">
        <ele>664</ele>
        <time>2011-10-01T06:24:23Z</time>
      </trkpt>
      <trkpt lat="45.75246" lon="4.63525">
        <ele>665</ele>
        <time>2011-10-01T06:24:24Z</time>
      </trkpt>
      <trkpt lat="45.75245" lon="4.63521">
        <ele>665</ele>
        <time>2011-10-01T06:24:27Z</time>
      </trkpt>
      <trkpt lat="45.75245" lon="4.63511">
        <ele>666</ele>
        <time>2011-10-01T06:24:32Z</time>
      </trkpt>
      <trkpt lat="45.75245" lon="4.63505">
        <ele>666</ele>
        <time>2011-10-01T06:24:35Z</time>
      </trkpt>
      <trkpt lat="45.75244" lon="4.63491">
        <ele>668</ele>
        <time>2011-10-01T06:24:42Z</time>
      </trkpt>
      <trkpt lat="45.75243" lon="4.63473">
        <ele>670</ele>
        <time>2011-10-01T06:24:50Z</time>
      </trkpt>
      <trkpt lat="45.75242" lon="4.6347">
        <ele>670</ele>
        <time>2011-10-01T06:24:52Z</time>
      </trkpt>
      <trkpt lat="45.75242" lon="4.63457">
        <ele>671</ele>
        <time>2011-10-01T06:24:58Z</time>
      </trkpt>
      <trkpt lat="45.75243" lon="4.6344">
        <ele>673</ele>
        <time>2011-10-01T06:25:05Z</time>
      </trkpt>
      <trkpt lat="45.75243" lon="4.63438">
        <ele>673</ele>
        <time>2011-10-01T06:25:06Z</time>
      </trkpt>
      <trkpt lat="45.75244" lon="4.63422">
        <ele>673</ele>
        <time>2011-10-01T06:25:13Z</time>
      </trkpt>
      <trkpt lat="45.75251" lon="4.63404">
        <ele>675</ele>
        <time>2011-10-01T06:25:22Z</time>
      </trkpt>
      <trkpt lat="45.75261" lon="4.63384">
        <ele>676</ele>
        <time>2011-10-01T06:25:32Z</time>
      </trkpt>
      <trkpt lat="45.75263" lon="4.6338">
        <ele>676</ele>
        <time>2011-10-01T06:25:34Z</time>
      </trkpt>
      <trkpt lat="45.75271" lon="4.63365">
        <ele>677</ele>
        <time>2011-10-01T06:25:42Z</time>
      </trkpt>
      <trkpt lat="45.75279" lon="4.6335">
        <ele>678</ele>
        <time>2011-10-01T06:25:50Z</time>
      </trkpt>
      <trkpt lat="45.75287" lon="4.63334">
        <ele>679</ele>
        <time>2011-10-01T06:25:57Z</time>
      </trkpt>
      <trkpt lat="45.75293" lon="4.63318">
        <ele>679</ele>
        <time>2011-10-01T06:26:04Z</time>
      </trkpt>
      <trkpt lat="45.75296" lon="4.63307">
        <ele>680</ele>
        <time>2011-10-01T06:26:08Z</time>
      </trkpt>
      <trkpt lat="45.75304" lon="4.63294">
        <ele>680</ele>
        <time>2011-10-01T06:26:14Z</time>
      </trkpt>
      <trkpt lat="45.75313" lon="4.63275">
        <ele>681</ele>
        <time>2011-10-01T06:26:21Z</time>
      </trkpt>
      <trkpt lat="45.75322" lon="4.63259">
        <ele>682</ele>
        <time>2011-10-01T06:26:28Z</time>
      </trkpt>
      <trkpt lat="45.75328" lon="4.63247">
        <ele>683</ele>
        <time>2011-10-01T06:26:33Z</time>
      </trkpt>
      <trkpt lat="45.75333" lon="4.63236">
        <ele>685</ele>
        <time>2011-10-01T06:26:38Z</time>
      </trkpt>
      <trkpt lat="45.75336" lon="4.63234">
        <ele>685</ele>
        <time>2011-10-01T06:26:40Z</time>
      </trkpt>
      <trkpt lat="45.75343" lon="4.63222">
        <ele>686</ele>
        <time>2011-10-01T06:26:46Z</time>
      </trkpt>
      <trkpt lat="45.75352" lon="4.63206">
        <ele>686</ele>
        <time>2011-10-01T06:26:52Z</time>
      </trkpt>
      <trkpt lat="45.75361" lon="4.63185">
        <ele>687</ele>
        <time>2011-10-01T06:27:00Z</time>
      </trkpt>
      <trkpt lat="45.7537" lon="4.63169">
        <ele>687</ele>
        <time>2011-10-01T06:27:05Z</time>
      </trkpt>
      <trkpt lat="45.75381" lon="4.63151">
        <ele>687</ele>
        <time>2011-10-01T06:27:11Z</time>
      </trkpt>
      <trkpt lat="45.75398" lon="4.63121">
        <ele>687</ele>
        <time>2011-10-01T06:27:19Z</time>
      </trkpt>
      <trkpt lat="45.75407" lon="4.63103">
        <ele>687</ele>
        <time>2011-10-01T06:27:24Z</time>
      </trkpt>
      <trkpt lat="45.75414" lon="4.63083">
        <ele>687</ele>
        <time>2011-10-01T06:27:29Z</time>
      </trkpt>
      <trkpt lat="45.75422" lon="4.63057">
        <ele>687</ele>
        <time>2011-10-01T06:27:35Z</time>
      </trkpt>
      <trkpt lat="45.75426" lon="4.63049">
        <ele>687</ele>
        <time>2011-10-01T06:27:37Z</time>
      </trkpt>
      <trkpt lat="45.75437" lon="4.63013">
        <ele>687</ele>
        <time>2011-10-01T06:27:45Z</time>
      </trkpt>
      <trkpt lat="45.75447" lon="4.62981">
        <ele>688</ele>
        <time>2011-10-01T06:27:52Z</time>
      </trkpt>
      <trkpt lat="45.75459" lon="4.62944">
        <ele>688</ele>
        <time>2011-10-01T06:28:00Z</time>
      </trkpt>
      <trkpt lat="45.75467" lon="4.62918">
        <ele>688</ele>
        <time>2011-10-01T06:28:06Z</time>
      </trkpt>
      <trkpt lat="45.75479" lon="4.62887">
        <ele>689</ele>
        <time>2011-10-01T06:28:13Z</time>
      </trkpt>
      <trkpt lat="45.7549" lon="4.62859">
        <ele>688</ele>
        <time>2011-10-01T06:28:20Z</time>
      </trkpt>
      <trkpt lat="45.75498" lon="4.62834">
        <ele>690</ele>
        <time>2011-10-01T06:28:26Z</time>
      </trkpt>
      <trkpt lat="45.75508" lon="4.62799">
        <ele>690</ele>
        <time>2011-10-01T06:28:35Z</time>
      </trkpt>
      <trkpt lat="45.75516" lon="4.62773">
        <ele>691</ele>
        <time>2011-10-01T06:28:42Z</time>
      </trkpt>
      <trkpt lat="45.75526" lon="4.62745">
        <ele>692</ele>
        <time>2011-10-01T06:28:49Z</time>
      </trkpt>
      <trkpt lat="45.75536" lon="4.62716">
        <ele>693</ele>
        <time>2011-10-01T06:28:57Z</time>
      </trkpt>
      <trkpt lat="45.75547" lon="4.6269">
        <ele>694</ele>
        <time>2011-10-01T06:29:05Z</time>
      </trkpt>
      <trkpt lat="45.75554" lon="4.62668">
        <ele>695</ele>
        <time>2011-10-01T06:29:13Z</time>
      </trkpt>
      <trkpt lat="45.75562" lon="4.62652">
        <ele>696</ele>
        <time>2011-10-01T06:29:20Z</time>
      </trkpt>
      <trkpt lat="45.75567" lon="4.6264">
        <ele>698</ele>
        <time>2011-10-01T06:29:26Z</time>
      </trkpt>
      <trkpt lat="45.75574" lon="4.62622">
        <ele>699</ele>
        <time>2011-10-01T06:29:34Z</time>
      </trkpt>
      <trkpt lat="45.75579" lon="4.6261">
        <ele>701</ele>
        <time>2011-10-01T06:29:40Z</time>
      </trkpt>
      <trkpt lat="45.75586" lon="4.62596">
        <ele>702</ele>
        <time>2011-10-01T06:29:47Z</time>
      </trkpt>
      <trkpt lat="45.75588" lon="4.62588">
        <ele>703</ele>
        <time>2011-10-01T06:29:51Z</time>
      </trkpt>
      <trkpt lat="45.75593" lon="4.62572">
        <ele>705</ele>
        <time>2011-10-01T06:29:58Z</time>
      </trkpt>
      <trkpt lat="45.75594" lon="4.62562">
        <ele>705</ele>
        <time>2011-10-01T06:30:02Z</time>
      </trkpt>
      <trkpt lat="45.75595" lon="4.62543">
        <ele>706</ele>
        <time>2011-10-01T06:30:10Z</time>
      </trkpt>
      <trkpt lat="45.75597" lon="4.62532">
        <ele>707</ele>
        <time>2011-10-01T06:30:15Z</time>
      </trkpt>
      <trkpt lat="45.75598" lon="4.62518">
        <ele>709</ele>
        <time>2011-10-01T06:30:21Z</time>
      </trkpt>
      <trkpt lat="45.75597" lon="4.62504">
        <ele>710</ele>
        <time>2011-10-01T06:30:27Z</time>
      </trkpt>
      <trkpt lat="45.75599" lon="4.62485">
        <ele>711</ele>
        <time>2011-10-01T06:30:35Z</time>
      </trkpt>
      <trkpt lat="45.756" lon="4.62479">
        <ele>712</ele>
        <time>2011-10-01T06:30:38Z</time>
      </trkpt>
      <trkpt lat="45.756" lon="4.62466">
        <ele>714</ele>
        <time>2011-10-01T06:30:44Z</time>
      </trkpt>
      <trkpt lat="45.75602" lon="4.62455">
        <ele>714</ele>
        <time>2011-10-01T06:30:49Z</time>
      </trkpt>
      <trkpt lat="45.75603" lon="4.62434">
        <ele>716</ele>
        <time>2011-10-01T06:30:57Z</time>
      </trkpt>
      <trkpt lat="45.75604" lon="4.62425">
        <ele>716</ele>
        <time>2011-10-01T06:31:01Z</time>
      </trkpt>
      <trkpt lat="45.75605" lon="4.62407">
        <ele>717</ele>
        <time>2011-10-01T06:31:09Z</time>
      </trkpt>
      <trkpt lat="45.75605" lon="4.624">
        <ele>717</ele>
        <time>2011-10-01T06:31:12Z</time>
      </trkpt>
      <trkpt lat="45.75604" lon="4.62387">
        <ele>718</ele>
        <time>2011-10-01T06:31:17Z</time>
      </trkpt>
      <trkpt lat="45.75604" lon="4.62369">
        <ele>719</ele>
        <time>2011-10-01T06:31:23Z</time>
      </trkpt>
      <trkpt lat="45.75603" lon="4.62357">
        <ele>719</ele>
        <time>2011-10-01T06:31:27Z</time>
      </trkpt>
      <trkpt lat="45.75602" lon="4.62343">
        <ele>719</ele>
        <time>2011-10-01T06:31:32Z</time>
      </trkpt>
      <trkpt lat="45.75596" lon="4.62313">
        <ele>720</ele>
        <time>2011-10-01T06:31:41Z</time>
      </trkpt>
      <trkpt lat="45.75593" lon="4.62292">
        <ele>721</ele>
        <time>2011-10-01T06:31:48Z</time>
      </trkpt>
      <trkpt lat="45.7559" lon="4.62275">
        <ele>723</ele>
        <time>2011-10-01T06:31:55Z</time>
      </trkpt>
      <trkpt lat="45.75589" lon="4.62259">
        <ele>724</ele>
        <time>2011-10-01T06:32:02Z</time>
      </trkpt>
      <trkpt lat="45.7559" lon="4.62254">
        <ele>724</ele>
        <time>2011-10-01T06:32:04Z</time>
      </trkpt>
      <trkpt lat="45.7559" lon="4.62236">
        <ele>725</ele>
        <time>2011-10-01T06:32:11Z</time>
      </trkpt>
      <trkpt lat="45.7559" lon="4.62219">
        <ele>726</ele>
        <time>2011-10-01T06:32:17Z</time>
      </trkpt>
      <trkpt lat="45.75589" lon="4.62216">
        <ele>726</ele>
        <time>2011-10-01T06:32:19Z</time>
      </trkpt>
      <trkpt lat="45.75591" lon="4.62193">
        <ele>728</ele>
        <time>2011-10-01T06:32:28Z</time>
      </trkpt>
      <trkpt lat="45.75592" lon="4.62187">
        <ele>729</ele>
        <time>2011-10-01T06:32:30Z</time>
      </trkpt>
      <trkpt lat="45.75592" lon="4.62179">
        <ele>729</ele>
        <time>2011-10-01T06:32:34Z</time>
      </trkpt>
      <trkpt lat="45.75592" lon="4.62171">
        <ele>729</ele>
        <time>2011-10-01T06:32:37Z</time>
      </trkpt>
      <trkpt lat="45.75593" lon="4.62151">
        <ele>731</ele>
        <time>2011-10-01T06:32:45Z</time>
      </trkpt>
      <trkpt lat="45.75592" lon="4.62146">
        <ele>731</ele>
        <time>2011-10-01T06:32:47Z</time>
      </trkpt>
      <trkpt lat="45.75593" lon="4.62138">
        <ele>732</ele>
        <time>2011-10-01T06:32:50Z</time>
      </trkpt>
      <trkpt lat="45.75594" lon="4.62132">
        <ele>733</ele>
        <time>2011-10-01T06:32:53Z</time>
      </trkpt>
      <trkpt lat="45.75592" lon="4.62115">
        <ele>734</ele>
        <time>2011-10-01T06:33:01Z</time>
      </trkpt>
      <trkpt lat="45.75592" lon="4.62095">
        <ele>736</ele>
        <time>2011-10-01T06:33:10Z</time>
      </trkpt>
      <trkpt lat="45.75592" lon="4.62088">
        <ele>736</ele>
        <time>2011-10-01T06:33:13Z</time>
      </trkpt>
      <trkpt lat="45.75592" lon="4.62068">
        <ele>737</ele>
        <time>2011-10-01T06:33:19Z</time>
      </trkpt>
      <trkpt lat="45.75594" lon="4.62055">
        <ele>738</ele>
        <time>2011-10-01T06:33:23Z</time>
      </trkpt>
      <trkpt lat="45.75594" lon="4.62026">
        <ele>738</ele>
        <time>2011-10-01T06:33:32Z</time>
      </trkpt>
      <trkpt lat="45.75594" lon="4.62002">
        <ele>740</ele>
        <time>2011-10-01T06:33:40Z</time>
      </trkpt>
      <trkpt lat="45.75593" lon="4.6198">
        <ele>741</ele>
        <time>2011-10-01T06:33:47Z</time>
      </trkpt>
      <trkpt lat="45.75593" lon="4.61975">
        <ele>740</ele>
        <time>2011-10-01T06:33:49Z</time>
      </trkpt>
      <trkpt lat="45.75594" lon="4.61952">
        <ele>742</ele>
        <time>2011-10-01T06:33:56Z</time>
      </trkpt>
      <trkpt lat="45.75596" lon="4.61933">
        <ele>743</ele>
        <time>2011-10-01T06:34:03Z</time>
      </trkpt>
      <trkpt lat="45.75594" lon="4.61908">
        <ele>744</ele>
        <time>2011-10-01T06:34:10Z</time>
      </trkpt>
      <trkpt lat="45.75592" lon="4.61878">
        <ele>745</ele>
        <time>2011-10-01T06:34:19Z</time>
      </trkpt>
      <trkpt lat="45.75588" lon="4.61869">
        <ele>746</ele>
        <time>2011-10-01T06:34:22Z</time>
      </trkpt>
      <trkpt lat="45.7559" lon="4.61839">
        <ele>747</ele>
        <time>2011-10-01T06:34:30Z</time>
      </trkpt>
      <trkpt lat="45.75592" lon="4.61833">
        <ele>748</ele>
        <time>2011-10-01T06:34:32Z</time>
      </trkpt>
      <trkpt lat="45.75598" lon="4.61818">
        <ele>748</ele>
        <time>2011-10-01T06:34:38Z</time>
      </trkpt>
      <trkpt lat="45.75605" lon="4.61804">
        <ele>749</ele>
        <time>2011-10-01T06:34:45Z</time>
      </trkpt>
      <trkpt lat="45.756" lon="4.61804">
        <ele>749</ele>
        <time>2011-10-01T06:34:49Z</time>
      </trkpt>
      <trkpt lat="45.75598" lon="4.61797">
        <ele>750</ele>
        <time>2011-10-01T06:34:53Z</time>
      </trkpt>
      <trkpt lat="45.75589" lon="4.61789">
        <ele>750</ele>
        <time>2011-10-01T06:34:58Z</time>
      </trkpt>
      <trkpt lat="45.75586" lon="4.61785">
        <ele>750</ele>
        <time>2011-10-01T06:35:00Z</time>
      </trkpt>
      <trkpt lat="45.7558" lon="4.61773">
        <ele>752</ele>
        <time>2011-10-01T06:35:06Z</time>
      </trkpt>
      <trkpt lat="45.75572" lon="4.61759">
        <ele>753</ele>
        <time>2011-10-01T06:35:12Z</time>
      </trkpt>
      <trkpt lat="45.75564" lon="4.61751">
        <ele>753</ele>
        <time>2011-10-01T06:35:17Z</time>
      </trkpt>
      <trkpt lat="45.75557" lon="4.6174">
        <ele>755</ele>
        <time>2011-10-01T06:35:24Z</time>
      </trkpt>
      <trkpt lat="45.7555" lon="4.61735">
        <ele>755</ele>
        <time>2011-10-01T06:35:31Z</time>
      </trkpt>
      <trkpt lat="45.7555" lon="4.61734">
        <ele>756</ele>
        <time>2011-10-01T06:35:32Z</time>
      </trkpt>
      <trkpt lat="45.75538" lon="4.61721">
        <ele>756</ele>
        <time>2011-10-01T06:35:41Z</time>
      </trkpt>
      <trkpt lat="45.75527" lon="4.61712">
        <ele>758</ele>
        <time>2011-10-01T06:35:49Z</time>
      </trkpt>
      <trkpt lat="45.75526" lon="4.61711">
        <ele>758</ele>
        <time>2011-10-01T06:35:50Z</time>
      </trkpt>
      <trkpt lat="45.75514" lon="4.61696">
        <ele>759</ele>
        <time>2011-10-01T06:35:58Z</time>
      </trkpt>
      <trkpt lat="45.75505" lon="4.61687">
        <ele>761</ele>
        <time>2011-10-01T06:36:05Z</time>
      </trkpt>
      <trkpt lat="45.75497" lon="4.61677">
        <ele>761</ele>
        <time>2011-10-01T06:36:10Z</time>
      </trkpt>
      <trkpt lat="45.75491" lon="4.61675">
        <ele>761</ele>
        <time>2011-10-01T06:36:14Z</time>
      </trkpt>
      <trkpt lat="45.75485" lon="4.61669">
        <ele>762</ele>
        <time>2011-10-01T06:36:18Z</time>
      </trkpt>
      <trkpt lat="45.75483" lon="4.61665">
        <ele>762</ele>
        <time>2011-10-01T06:36:20Z</time>
      </trkpt>
      <trkpt lat="45.75475" lon="4.61661">
        <ele>764</ele>
        <time>2011-10-01T06:36:26Z</time>
      </trkpt>
      <trkpt lat="45.7547" lon="4.61653">
        <ele>765</ele>
        <time>2011-10-01T06:36:31Z</time>
      </trkpt>
      <trkpt lat="45.75467" lon="4.61652">
        <ele>765</ele>
        <time>2011-10-01T06:36:33Z</time>
      </trkpt>
      <trkpt lat="45.7546" lon="4.6165">
        <ele>766</ele>
        <time>2011-10-01T06:36:37Z</time>
      </trkpt>
      <trkpt lat="45.75447" lon="4.61647">
        <ele>768</ele>
        <time>2011-10-01T06:36:45Z</time>
      </trkpt>
      <trkpt lat="45.75443" lon="4.61646">
        <ele>768</ele>
        <time>2011-10-01T06:36:48Z</time>
      </trkpt>
      <trkpt lat="45.75437" lon="4.61642">
        <ele>769</ele>
        <time>2011-10-01T06:36:52Z</time>
      </trkpt>
      <trkpt lat="45.75426" lon="4.61637">
        <ele>770</ele>
        <time>2011-10-01T06:36:59Z</time>
      </trkpt>
      <trkpt lat="45.75419" lon="4.61635">
        <ele>770</ele>
        <time>2011-10-01T06:37:03Z</time>
      </trkpt>
      <trkpt lat="45.75405" lon="4.61627">
        <ele>771</ele>
        <time>2011-10-01T06:37:12Z</time>
      </trkpt>
      <trkpt lat="45.75403" lon="4.61626">
        <ele>772</ele>
        <time>2011-10-01T06:37:13Z</time>
      </trkpt>
      <trkpt lat="45.75385" lon="4.61616">
        <ele>773</ele>
        <time>2011-10-01T06:37:22Z</time>
      </trkpt>
      <trkpt lat="45.75373" lon="4.61605">
        <ele>774</ele>
        <time>2011-10-01T06:37:29Z</time>
      </trkpt>
      <trkpt lat="45.75359" lon="4.61598">
        <ele>774</ele>
        <time>2011-10-01T06:37:36Z</time>
      </trkpt>
      <trkpt lat="45.75352" lon="4.61592">
        <ele>774</ele>
        <time>2011-10-01T06:37:40Z</time>
      </trkpt>
      <trkpt lat="45.75336" lon="4.61584">
        <ele>774</ele>
        <time>2011-10-01T06:37:47Z</time>
      </trkpt>
      <trkpt lat="45.75325" lon="4.61581">
        <ele>774</ele>
        <time>2011-10-01T06:37:53Z</time>
      </trkpt>
      <trkpt lat="45.75305" lon="4.61577">
        <ele>774</ele>
        <time>2011-10-01T06:38:00Z</time>
      </trkpt>
      <trkpt lat="45.75295" lon="4.61572">
        <ele>773</ele>
        <time>2011-10-01T06:38:06Z</time>
      </trkpt>
      <trkpt lat="45.75292" lon="4.61575">
        <ele>772</ele>
        <time>2011-10-01T06:38:11Z</time>
      </trkpt>
      <trkpt lat="45.75285" lon="4.61583">
        <ele>772</ele>
        <time>2011-10-01T06:38:19Z</time>
      </trkpt>
      <trkpt lat="45.75275" lon="4.61598">
        <ele>768</ele>
        <time>2011-10-01T06:38:25Z</time>
      </trkpt>
      <trkpt lat="45.75273" lon="4.61602">
        <ele>767</ele>
        <time>2011-10-01T06:38:26Z</time>
      </trkpt>
      <trkpt lat="45.75247" lon="4.6164">
        <ele>763</ele>
        <time>2011-10-01T06:38:31Z</time>
      </trkpt>
      <trkpt lat="45.75242" lon="4.61648">
        <ele>763</ele>
        <time>2011-10-01T06:38:32Z</time>
      </trkpt>
      <trkpt lat="45.75232" lon="4.6167">
        <ele>761</ele>
        <time>2011-10-01T06:38:35Z</time>
      </trkpt>
      <trkpt lat="45.75217" lon="4.61697">
        <ele>757</ele>
        <time>2011-10-01T06:38:39Z</time>
      </trkpt>
      <trkpt lat="45.75201" lon="4.61727">
        <ele>753</ele>
        <time>2011-10-01T06:38:43Z</time>
      </trkpt>
      <trkpt lat="45.75192" lon="4.61762">
        <ele>750</ele>
        <time>2011-10-01T06:38:48Z</time>
      </trkpt>
      <trkpt lat="45.75182" lon="4.61797">
        <ele>746</ele>
        <time>2011-10-01T06:38:52Z</time>
      </trkpt>
      <trkpt lat="45.75172" lon="4.61827">
        <ele>742</ele>
        <time>2011-10-01T06:38:55Z</time>
      </trkpt>
      <trkpt lat="45.75159" lon="4.61855">
        <ele>738</ele>
        <time>2011-10-01T06:38:58Z</time>
      </trkpt>
      <trkpt lat="45.75148" lon="4.6188">
        <ele>735</ele>
        <time>2011-10-01T06:39:01Z</time>
      </trkpt>
      <trkpt lat="45.7514" lon="4.61892">
        <ele>733</ele>
        <time>2011-10-01T06:39:03Z</time>
      </trkpt>
      <trkpt lat="45.75134" lon="4.61906">
        <ele>731</ele>
        <time>2011-10-01T06:39:05Z</time>
      </trkpt>
      <trkpt lat="45.75124" lon="4.61931">
        <ele>727</ele>
        <time>2011-10-01T06:39:08Z</time>
      </trkpt>
      <trkpt lat="45.75115" lon="4.61945">
        <ele>724</ele>
        <time>2011-10-01T06:39:10Z</time>
      </trkpt>
      <trkpt lat="45.75093" lon="4.61968">
        <ele>720</ele>
        <time>2011-10-01T06:39:14Z</time>
      </trkpt>
      <trkpt lat="45.75079" lon="4.61983">
        <ele>717</ele>
        <time>2011-10-01T06:39:17Z</time>
      </trkpt>
      <trkpt lat="45.75075" lon="4.61989">
        <ele>714</ele>
        <time>2011-10-01T06:39:18Z</time>
      </trkpt>
      <trkpt lat="45.75065" lon="4.62001">
        <ele>711</ele>
        <time>2011-10-01T06:39:20Z</time>
      </trkpt>
      <trkpt lat="45.75052" lon="4.62021">
        <ele>707</ele>
        <time>2011-10-01T06:39:23Z</time>
      </trkpt>
      <trkpt lat="45.75044" lon="4.62034">
        <ele>705</ele>
        <time>2011-10-01T06:39:25Z</time>
      </trkpt>
      <trkpt lat="45.75029" lon="4.62055">
        <ele>701</ele>
        <time>2011-10-01T06:39:29Z</time>
      </trkpt>
      <trkpt lat="45.75025" lon="4.62062">
        <ele>701</ele>
        <time>2011-10-01T06:39:30Z</time>
      </trkpt>
      <trkpt lat="45.7501" lon="4.62092">
        <ele>697</ele>
        <time>2011-10-01T06:39:35Z</time>
      </trkpt>
      <trkpt lat="45.75004" lon="4.62111">
        <ele>696</ele>
        <time>2011-10-01T06:39:42Z</time>
      </trkpt>
      <trkpt lat="45.75001" lon="4.62123">
        <ele>696</ele>
        <time>2011-10-01T06:39:47Z</time>
      </trkpt>
      <trkpt lat="45.74993" lon="4.62135">
        <ele>693</ele>
        <time>2011-10-01T06:39:53Z</time>
      </trkpt>
      <trkpt lat="45.74989" lon="4.62142">
        <ele>692</ele>
        <time>2011-10-01T06:39:55Z</time>
      </trkpt>
      <trkpt lat="45.74979" lon="4.62174">
        <ele>690</ele>
        <time>2011-10-01T06:40:01Z</time>
      </trkpt>
      <trkpt lat="45.74977" lon="4.6218">
        <ele>689</ele>
        <time>2011-10-01T06:40:02Z</time>
      </trkpt>
      <trkpt lat="45.74973" lon="4.62195">
        <ele>689</ele>
        <time>2011-10-01T06:40:04Z</time>
      </trkpt>
      <trkpt lat="45.74964" lon="4.6223">
        <ele>687</ele>
        <time>2011-10-01T06:40:08Z</time>
      </trkpt>
      <trkpt lat="45.7495" lon="4.62272">
        <ele>687</ele>
        <time>2011-10-01T06:40:14Z</time>
      </trkpt>
      <trkpt lat="45.74935" lon="4.62299">
        <ele>685</ele>
        <time>2011-10-01T06:40:21Z</time>
      </trkpt>
      <trkpt lat="45.74923" lon="4.62315">
        <ele>682</ele>
        <time>2011-10-01T06:40:25Z</time>
      </trkpt>
      <trkpt lat="45.74921" lon="4.62319">
        <ele>681</ele>
        <time>2011-10-01T06:40:26Z</time>
      </trkpt>
      <trkpt lat="45.74919" lon="4.62324">
        <ele>681</ele>
        <time>2011-10-01T06:40:27Z</time>
      </trkpt>
      <trkpt lat="45.74917" lon="4.6233">
        <ele>680</ele>
        <time>2011-10-01T06:40:28Z</time>
      </trkpt>
      <trkpt lat="45.74915" lon="4.62336">
        <ele>680</ele>
        <time>2011-10-01T06:40:29Z</time>
      </trkpt>
      <trkpt lat="45.74913" lon="4.62342">
        <ele>679</ele>
        <time>2011-10-01T06:40:30Z</time>
      </trkpt>
      <trkpt lat="45.74911" lon="4.62349">
        <ele>677</ele>
        <time>2011-10-01T06:40:31Z</time>
      </trkpt>
      <trkpt lat="45.74908" lon="4.62355">
        <ele>676</ele>
        <time>2011-10-01T06:40:32Z</time>
      </trkpt>
      <trkpt lat="45.74906" lon="4.6236">
        <ele>676</ele>
        <time>2011-10-01T06:40:33Z</time>
      </trkpt>
      <trkpt lat="45.74904" lon="4.62366">
        <ele>675</ele>
        <time>2011-10-01T06:40:34Z</time>
      </trkpt>
      <trkpt lat="45.74902" lon="4.62372">
        <ele>674</ele>
        <time>2011-10-01T06:40:35Z</time>
      </trkpt>
      <trkpt lat="45.749" lon="4.62379">
        <ele>674</ele>
        <time>2011-10-01T06:40:36Z</time>
      </trkpt>
      <trkpt lat="45.74898" lon="4.62386">
        <ele>672</ele>
        <time>2011-10-01T06:40:37Z</time>
      </trkpt>
      <trkpt lat="45.74895" lon="4.624">
        <ele>670</ele>
        <time>2011-10-01T06:40:39Z</time>
      </trkpt>
      <trkpt lat="45.7489" lon="4.62411">
        <ele>669</ele>
        <time>2011-10-01T06:40:41Z</time>
      </trkpt>
      <trkpt lat="45.74887" lon="4.62416">
        <ele>668</ele>
        <time>2011-10-01T06:40:42Z</time>
      </trkpt>
      <trkpt lat="45.74884" lon="4.62422">
        <ele>666</ele>
        <time>2011-10-01T06:40:43Z</time>
      </trkpt>
      <trkpt lat="45.74874" lon="4.62441">
        <ele>665</ele>
        <time>2011-10-01T06:40:46Z</time>
      </trkpt>
      <trkpt lat="45.74872" lon="4.62448">
        <ele>664</ele>
        <time>2011-10-01T06:40:47Z</time>
      </trkpt>
      <trkpt lat="45.74869" lon="4.62455">
        <ele>662</ele>
        <time>2011-10-01T06:40:48Z</time>
      </trkpt>
      <trkpt lat="45.74867" lon="4.62463">
        <ele>662</ele>
        <time>2011-10-01T06:40:49Z</time>
      </trkpt>
      <trkpt lat="45.74865" lon="4.62471">
        <ele>661</ele>
        <time>2011-10-01T06:40:50Z</time>
      </trkpt>
      <trkpt lat="45.74862" lon="4.62479">
        <ele>661</ele>
        <time>2011-10-01T06:40:51Z</time>
      </trkpt>
      <trkpt lat="45.74854" lon="4.62505">
        <ele>658</ele>
        <time>2011-10-01T06:40:54Z</time>
      </trkpt>
      <trkpt lat="45.7485" lon="4.62514">
        <ele>657</ele>
        <time>2011-10-01T06:40:55Z</time>
      </trkpt>
      <trkpt lat="45.74847" lon="4.62522">
        <ele>655</ele>
        <time>2011-10-01T06:40:56Z</time>
      </trkpt>
      <trkpt lat="45.74845" lon="4.62529">
        <ele>655</ele>
        <time>2011-10-01T06:40:57Z</time>
      </trkpt>
      <trkpt lat="45.74844" lon="4.62536">
        <ele>653</ele>
        <time>2011-10-01T06:40:58Z</time>
      </trkpt>
      <trkpt lat="45.74843" lon="4.62541">
        <ele>653</ele>
        <time>2011-10-01T06:40:59Z</time>
      </trkpt>
      <trkpt lat="45.74841" lon="4.62545">
        <ele>652</ele>
        <time>2011-10-01T06:41:00Z</time>
      </trkpt>
      <trkpt lat="45.7484" lon="4.6255">
        <ele>652</ele>
        <time>2011-10-01T06:41:01Z</time>
      </trkpt>
      <trkpt lat="45.7484" lon="4.62558">
        <ele>651</ele>
        <time>2011-10-01T06:41:02Z</time>
      </trkpt>
      <trkpt lat="45.74839" lon="4.62566">
        <ele>650</ele>
        <time>2011-10-01T06:41:03Z</time>
      </trkpt>
      <trkpt lat="45.74839" lon="4.62573">
        <ele>650</ele>
        <time>2011-10-01T06:41:04Z</time>
      </trkpt>
      <trkpt lat="45.74838" lon="4.62578">
        <ele>649</ele>
        <time>2011-10-01T06:41:05Z</time>
      </trkpt>
      <trkpt lat="45.74838" lon="4.6258">
        <ele>649</ele>
        <time>2011-10-01T06:41:06Z</time>
      </trkpt>
      <trkpt lat="45.74835" lon="4.62582">
        <ele>648</ele>
        <time>2011-10-01T06:41:09Z</time>
      </trkpt>
      <trkpt lat="45.7483" lon="4.62577">
        <ele>647</ele>
        <time>2011-10-01T06:41:12Z</time>
      </trkpt>
      <trkpt lat="45.74829" lon="4.62574">
        <ele>647</ele>
        <time>2011-10-01T06:41:14Z</time>
      </trkpt>
      <trkpt lat="45.74827" lon="4.62571">
        <ele>646</ele>
        <time>2011-10-01T06:41:18Z</time>
      </trkpt>
      <trkpt lat="45.74825" lon="4.62576">
        <ele>646</ele>
        <time>2011-10-01T06:41:22Z</time>
      </trkpt>
      <trkpt lat="45.74824" lon="4.62579">
        <ele>647</ele>
        <time>2011-10-01T06:41:29Z</time>
      </trkpt>
      <trkpt lat="45.74824" lon="4.62578">
        <ele>646</ele>
        <time>2011-10-01T06:41:37Z</time>
      </trkpt>
      <trkpt lat="45.74824" lon="4.62579">
        <ele>646</ele>
        <time>2011-10-01T06:41:44Z</time>
      </trkpt>
      <trkpt lat="45.74824" lon="4.62579">
        <ele>646</ele>
        <time>2011-10-01T06:41:55Z</time>
      </trkpt>
      <trkpt lat="45.74817" lon="4.6259">
        <ele>643</ele>
        <time>2011-10-01T06:42:00Z</time>
      </trkpt>
      <trkpt lat="45.74814" lon="4.62595">
        <ele>641</ele>
        <time>2011-10-01T06:42:01Z</time>
      </trkpt>
      <trkpt lat="45.7481" lon="4.626">
        <ele>641</ele>
        <time>2011-10-01T06:42:02Z</time>
      </trkpt>
      <trkpt lat="45.74807" lon="4.62605">
        <ele>639</ele>
        <time>2011-10-01T06:42:03Z</time>
      </trkpt>
      <trkpt lat="45.74804" lon="4.62608">
        <ele>638</ele>
        <time>2011-10-01T06:42:04Z</time>
      </trkpt>
      <trkpt lat="45.74797" lon="4.62619">
        <ele>635</ele>
        <time>2011-10-01T06:42:07Z</time>
      </trkpt>
      <trkpt lat="45.74786" lon="4.62633">
        <ele>630</ele>
        <time>2011-10-01T06:42:11Z</time>
      </trkpt>
      <trkpt lat="45.74783" lon="4.62639">
        <ele>628</ele>
        <time>2011-10-01T06:42:13Z</time>
      </trkpt>
      <trkpt lat="45.74774" lon="4.62649">
        <ele>624</ele>
        <time>2011-10-01T06:42:17Z</time>
      </trkpt>
      <trkpt lat="45.74768" lon="4.62656">
        <ele>620</ele>
        <time>2011-10-01T06:42:20Z</time>
      </trkpt>
      <trkpt lat="45.74761" lon="4.62667">
        <ele>616</ele>
        <time>2011-10-01T06:42:23Z</time>
      </trkpt>
      <trkpt lat="45.74758" lon="4.62676">
        <ele>614</ele>
        <time>2011-10-01T06:42:25Z</time>
      </trkpt>
      <trkpt lat="45.74752" lon="4.62696">
        <ele>609</ele>
        <time>2011-10-01T06:42:29Z</time>
      </trkpt>
      <trkpt lat="45.74749" lon="4.62705">
        <ele>607</ele>
        <time>2011-10-01T06:42:31Z</time>
      </trkpt>
      <trkpt lat="45.74746" lon="4.62725">
        <ele>602</ele>
        <time>2011-10-01T06:42:34Z</time>
      </trkpt>
      <trkpt lat="45.74742" lon="4.6275">
        <ele>598</ele>
        <time>2011-10-01T06:42:38Z</time>
      </trkpt>
      <trkpt lat="45.74736" lon="4.62761">
        <ele>595</ele>
        <time>2011-10-01T06:42:41Z</time>
      </trkpt>
      <trkpt lat="45.7473" lon="4.6277">
        <ele>593</ele>
        <time>2011-10-01T06:42:43Z</time>
      </trkpt>
      <trkpt lat="45.74727" lon="4.62775">
        <ele>591</ele>
        <time>2011-10-01T06:42:44Z</time>
      </trkpt>
      <trkpt lat="45.7472" lon="4.62785">
        <ele>589</ele>
        <time>2011-10-01T06:42:46Z</time>
      </trkpt>
      <trkpt lat="45.74713" lon="4.62794">
        <ele>587</ele>
        <time>2011-10-01T06:42:48Z</time>
      </trkpt>
      <trkpt lat="45.7471" lon="4.628">
        <ele>587</ele>
        <time>2011-10-01T06:42:49Z</time>
      </trkpt>
      <trkpt lat="45.74703" lon="4.62812">
        <ele>584</ele>
        <time>2011-10-01T06:42:51Z</time>
      </trkpt>
      <trkpt lat="45.74698" lon="4.6282">
        <ele>581</ele>
        <time>2011-10-01T06:42:53Z</time>
      </trkpt>
      <trkpt lat="45.74698" lon="4.62824">
        <ele>581</ele>
        <time>2011-10-01T06:42:54Z</time>
      </trkpt>
      <trkpt lat="45.74698" lon="4.62826">
        <ele>581</ele>
        <time>2011-10-01T06:42:55Z</time>
      </trkpt>
      <trkpt lat="45.74697" lon="4.62828">
        <ele>580</ele>
        <time>2011-10-01T06:42:56Z</time>
      </trkpt>
      <trkpt lat="45.74694" lon="4.6283">
        <ele>579</ele>
        <time>2011-10-01T06:42:58Z</time>
      </trkpt>
      <trkpt lat="45.74691" lon="4.62825">
        <ele>577</ele>
        <time>2011-10-01T06:43:04Z</time>
      </trkpt>
      <trkpt lat="45.74692" lon="4.62825">
        <ele>578</ele>
        <time>2011-10-01T06:43:13Z</time>
      </trkpt>
      <trkpt lat="45.74692" lon="4.62825">
        <ele>578</ele>
        <time>2011-10-01T06:43:31Z</time>
      </trkpt>
      <trkpt lat="45.74692" lon="4.62825">
        <ele>578</ele>
        <time>2011-10-01T06:43:50Z</time>
      </trkpt>
      <trkpt lat="45.74692" lon="4.62825">
        <ele>578</ele>
        <time>2011-10-01T06:44:01Z</time>
      </trkpt>
      <trkpt lat="45.74692" lon="4.62824">
        <ele>578</ele>
        <time>2011-10-01T06:44:19Z</time>
      </trkpt>
      <trkpt lat="45.74692" lon="4.62818">
        <ele>579</ele>
        <time>2011-10-01T06:44:26Z</time>
      </trkpt>
      <trkpt lat="45.74692" lon="4.62818">
        <ele>578</ele>
        <time>2011-10-01T06:44:38Z</time>
      </trkpt>
      <trkpt lat="45.74692" lon="4.62818">
        <ele>578</ele>
        <time>2011-10-01T06:44:52Z</time>
      </trkpt>
      <trkpt lat="45.74692" lon="4.62818">
        <ele>578</ele>
        <time>2011-10-01T06:45:03Z</time>
      </trkpt>
      <trkpt lat="45.74692" lon="4.62819">
        <ele>578</ele>
        <time>2011-10-01T06:45:15Z</time>
      </trkpt>
      <trkpt lat="45.74692" lon="4.62815">
        <ele>578</ele>
        <time>2011-10-01T06:45:24Z</time>
      </trkpt>
      <trkpt lat="45.7469" lon="4.62801">
        <ele>579</ele>
        <time>2011-10-01T06:45:32Z</time>
      </trkpt>
      <trkpt lat="45.74689" lon="4.62783">
        <ele>580</ele>
        <time>2011-10-01T06:45:39Z</time>
      </trkpt>
      <trkpt lat="45.74688" lon="4.62762">
        <ele>580</ele>
        <time>2011-10-01T06:45:46Z</time>
      </trkpt>
      <trkpt lat="45.74684" lon="4.62741">
        <ele>581</ele>
        <time>2011-10-01T06:45:53Z</time>
      </trkpt>
      <trkpt lat="45.74682" lon="4.6273">
        <ele>581</ele>
        <time>2011-10-01T06:45:56Z</time>
      </trkpt>
      <trkpt lat="45.74678" lon="4.62717">
        <ele>581</ele>
        <time>2011-10-01T06:46:00Z</time>
      </trkpt>
      <trkpt lat="45.74674" lon="4.62688">
        <ele>582</ele>
        <time>2011-10-01T06:46:09Z</time>
      </trkpt>
      <trkpt lat="45.74674" lon="4.62666">
        <ele>584</ele>
        <time>2011-10-01T06:46:17Z</time>
      </trkpt>
      <trkpt lat="45.74675" lon="4.62648">
        <ele>586</ele>
        <time>2011-10-01T06:46:25Z</time>
      </trkpt>
      <trkpt lat="45.74676" lon="4.62633">
        <ele>587</ele>
        <time>2011-10-01T06:46:32Z</time>
      </trkpt>
      <trkpt lat="45.74678" lon="4.62617">
        <ele>589</ele>
        <time>2011-10-01T06:46:40Z</time>
      </trkpt>
      <trkpt lat="45.74678" lon="4.62615">
        <ele>589</ele>
        <time>2011-10-01T06:46:41Z</time>
      </trkpt>
      <trkpt lat="45.74678" lon="4.62597">
        <ele>590</ele>
        <time>2011-10-01T06:46:50Z</time>
      </trkpt>
      <trkpt lat="45.74679" lon="4.62581">
        <ele>591</ele>
        <time>2011-10-01T06:46:57Z</time>
      </trkpt>
      <trkpt lat="45.7468" lon="4.62571">
        <ele>593</ele>
        <time>2011-10-01T06:47:03Z</time>
      </trkpt>
      <trkpt lat="45.74679" lon="4.62561">
        <ele>595</ele>
        <time>2011-10-01T06:47:09Z</time>
      </trkpt>
      <trkpt lat="45.74679" lon="4.6256">
        <ele>595</ele>
        <time>2011-10-01T06:47:10Z</time>
      </trkpt>
      <trkpt lat="45.74682" lon="4.62539">
        <ele>597</ele>
        <time>2011-10-01T06:47:20Z</time>
      </trkpt>
      <trkpt lat="45.74683" lon="4.62537">
        <ele>597</ele>
        <time>2011-10-01T06:47:21Z</time>
      </trkpt>
      <trkpt lat="45.74686" lon="4.62524">
        <ele>598</ele>
        <time>2011-10-01T06:47:27Z</time>
      </trkpt>
      <trkpt lat="45.74687" lon="4.62507">
        <ele>600</ele>
        <time>2011-10-01T06:47:35Z</time>
      </trkpt>
      <trkpt lat="45.74687" lon="4.62501">
        <ele>600</ele>
        <time>2011-10-01T06:47:38Z</time>
      </trkpt>
      <trkpt lat="45.74689" lon="4.6249">
        <ele>601</ele>
        <time>2011-10-01T06:47:43Z</time>
      </trkpt>
      <trkpt lat="45.74689" lon="4.62487">
        <ele>601</ele>
        <time>2011-10-01T06:47:45Z</time>
      </trkpt>
      <trkpt lat="45.74689" lon="4.6248">
        <ele>602</ele>
        <time>2011-10-01T06:47:48Z</time>
      </trkpt>
      <trkpt lat="45.7469" lon="4.62463">
        <ele>603</ele>
        <time>2011-10-01T06:47:56Z</time>
      </trkpt>
      <trkpt lat="45.74689" lon="4.62443">
        <ele>603</ele>
        <time>2011-10-01T06:48:04Z</time>
      </trkpt>
      <trkpt lat="45.74689" lon="4.62429">
        <ele>604</ele>
        <time>2011-10-01T06:48:10Z</time>
      </trkpt>
      <trkpt lat="45.74688" lon="4.62419">
        <ele>605</ele>
        <time>2011-10-01T06:48:15Z</time>
      </trkpt>
      <trkpt lat="45.74686" lon="4.62403">
        <ele>606</ele>
        <time>2011-10-01T06:48:22Z</time>
      </trkpt>
      <trkpt lat="45.74685" lon="4.62398">
        <ele>606</ele>
        <time>2011-10-01T06:48:25Z</time>
      </trkpt>
      <trkpt lat="45.74682" lon="4.62378">
        <ele>606</ele>
        <time>2011-10-01T06:48:32Z</time>
      </trkpt>
      <trkpt lat="45.74679" lon="4.62352">
        <ele>606</ele>
        <time>2011-10-01T06:48:40Z</time>
      </trkpt>
      <trkpt lat="45.7468" lon="4.62321">
        <ele>605</ele>
        <time>2011-10-01T06:48:48Z</time>
      </trkpt>
      <trkpt lat="45.74682" lon="4.62298">
        <ele>606</ele>
        <time>2011-10-01T06:48:54Z</time>
      </trkpt>
      <trkpt lat="45.74681" lon="4.62295">
        <ele>606</ele>
        <time>2011-10-01T06:48:55Z</time>
      </trkpt>
      <trkpt lat="45.74684" lon="4.62283">
        <ele>606</ele>
        <time>2011-10-01T06:48:58Z</time>
      </trkpt>
      <trkpt lat="45.74694" lon="4.62252">
        <ele>606</ele>
        <time>2011-10-01T06:49:06Z</time>
      </trkpt>
      <trkpt lat="45.74697" lon="4.62226">
        <ele>606</ele>
        <time>2011-10-01T06:49:12Z</time>
      </trkpt>
      <trkpt lat="45.74701" lon="4.62198">
        <ele>606</ele>
        <time>2011-10-01T06:49:18Z</time>
      </trkpt>
      <trkpt lat="45.74708" lon="4.62171">
        <ele>606</ele>
        <time>2011-10-01T06:49:24Z</time>
      </trkpt>
      <trkpt lat="45.7472" lon="4.62147">
        <ele>608</ele>
        <time>2011-10-01T06:49:31Z</time>
      </trkpt>
      <trkpt lat="45.74726" lon="4.62125">
        <ele>609</ele>
        <time>2011-10-01T06:49:37Z</time>
      </trkpt>
      <trkpt lat="45.74729" lon="4.62102">
        <ele>609</ele>
        <time>2011-10-01T06:49:43Z</time>
      </trkpt>
      <trkpt lat="45.7473" lon="4.62073">
        <ele>609</ele>
        <time>2011-10-01T06:49:50Z</time>
      </trkpt>
      <trkpt lat="45.74736" lon="4.62034">
        <ele>608</ele>
        <time>2011-10-01T06:49:57Z</time>
      </trkpt>
      <trkpt lat="45.74743" lon="4.61995">
        <ele>609</ele>
        <time>2011-10-01T06:50:05Z</time>
      </trkpt>
      <trkpt lat="45.74748" lon="4.6197">
        <ele>611</ele>
        <time>2011-10-01T06:50:12Z</time>
      </trkpt>
      <trkpt lat="45.74752" lon="4.61954">
        <ele>612</ele>
        <time>2011-10-01T06:50:17Z</time>
      </trkpt>
      <trkpt lat="45.74758" lon="4.61932">
        <ele>612</ele>
        <time>2011-10-01T06:50:23Z</time>
      </trkpt>
      <trkpt lat="45.74764" lon="4.61909">
        <ele>612</ele>
        <time>2011-10-01T06:50:29Z</time>
      </trkpt>
      <trkpt lat="45.7477" lon="4.61884">
        <ele>612</ele>
        <time>2011-10-01T06:50:35Z</time>
      </trkpt>
      <trkpt lat="45.74784" lon="4.61866">
        <ele>611</ele>
        <time>2011-10-01T06:50:41Z</time>
      </trkpt>
      <trkpt lat="45.74786" lon="4.61862">
        <ele>611</ele>
        <time>2011-10-01T06:50:42Z</time>
      </trkpt>
      <trkpt lat="45.74788" lon="4.61838">
        <ele>611</ele>
        <time>2011-10-01T06:50:46Z</time>
      </trkpt>
      <trkpt lat="45.74794" lon="4.61813">
        <ele>612</ele>
        <time>2011-10-01T06:50:52Z</time>
      </trkpt>
      <trkpt lat="45.74795" lon="4.61804">
        <ele>612</ele>
        <time>2011-10-01T06:50:55Z</time>
      </trkpt>
      <trkpt lat="45.74799" lon="4.61773">
        <ele>612</ele>
        <time>2011-10-01T06:51:02Z</time>
      </trkpt>
      <trkpt lat="45.74798" lon="4.61749">
        <ele>612</ele>
        <time>2011-10-01T06:51:09Z</time>
      </trkpt>
      <trkpt lat="45.74796" lon="4.61735">
        <ele>613</ele>
        <time>2011-10-01T06:51:14Z</time>
      </trkpt>
      <trkpt lat="45.74791" lon="4.61717">
        <ele>614</ele>
        <time>2011-10-01T06:51:21Z</time>
      </trkpt>
      <trkpt lat="45.74791" lon="4.61708">
        <ele>615</ele>
        <time>2011-10-01T06:51:26Z</time>
      </trkpt>
      <trkpt lat="45.74791" lon="4.61695">
        <ele>617</ele>
        <time>2011-10-01T06:51:32Z</time>
      </trkpt>
      <trkpt lat="45.74793" lon="4.61685">
        <ele>619</ele>
        <time>2011-10-01T06:51:38Z</time>
      </trkpt>
      <trkpt lat="45.74793" lon="4.61683">
        <ele>620</ele>
        <time>2011-10-01T06:51:39Z</time>
      </trkpt>
      <trkpt lat="45.74796" lon="4.6167">
        <ele>622</ele>
        <time>2011-10-01T06:51:46Z</time>
      </trkpt>
      <trkpt lat="45.74798" lon="4.61665">
        <ele>623</ele>
        <time>2011-10-01T06:51:49Z</time>
      </trkpt>
      <trkpt lat="45.748" lon="4.61663">
        <ele>624</ele>
        <time>2011-10-01T06:51:51Z</time>
      </trkpt>
      <trkpt lat="45.74804" lon="4.61652">
        <ele>625</ele>
        <time>2011-10-01T06:51:57Z</time>
      </trkpt>
      <trkpt lat="45.74805" lon="4.61644">
        <ele>626</ele>
        <time>2011-10-01T06:52:05Z</time>
      </trkpt>
      <trkpt lat="45.74806" lon="4.61638">
        <ele>627</ele>
        <time>2011-10-01T06:52:13Z</time>
      </trkpt>
      <trkpt lat="45.74808" lon="4.61631">
        <ele>627</ele>
        <time>2011-10-01T06:52:22Z</time>
      </trkpt>
      <trkpt lat="45.74808" lon="4.61629">
        <ele>629</ele>
        <time>2011-10-01T06:52:32Z</time>
      </trkpt>
      <trkpt lat="45.74812" lon="4.61619">
        <ele>630</ele>
        <time>2011-10-01T06:52:41Z</time>
      </trkpt>
      <trkpt lat="45.74817" lon="4.61612">
        <ele>632</ele>
        <time>2011-10-01T06:52:50Z</time>
      </trkpt>
      <trkpt lat="45.74817" lon="4.61609">
        <ele>633</ele>
        <time>2011-10-01T06:52:57Z</time>
      </trkpt>
      <trkpt lat="45.74816" lon="4.61605">
        <ele>634</ele>
        <time>2011-10-01T06:53:02Z</time>
      </trkpt>
      <trkpt lat="45.74818" lon="4.61597">
        <ele>634</ele>
        <time>2011-10-01T06:53:10Z</time>
      </trkpt>
      <trkpt lat="45.74819" lon="4.61592">
        <ele>635</ele>
        <time>2011-10-01T06:53:15Z</time>
      </trkpt>
      <trkpt lat="45.74822" lon="4.61588">
        <ele>635</ele>
        <time>2011-10-01T06:53:21Z</time>
      </trkpt>
      <trkpt lat="45.74822" lon="4.61585">
        <ele>636</ele>
        <time>2011-10-01T06:53:31Z</time>
      </trkpt>
      <trkpt lat="45.74821" lon="4.61582">
        <ele>636</ele>
        <time>2011-10-01T06:53:33Z</time>
      </trkpt>
      <trkpt lat="45.74822" lon="4.61575">
        <ele>637</ele>
        <time>2011-10-01T06:53:36Z</time>
      </trkpt>
      <trkpt lat="45.74826" lon="4.61557">
        <ele>639</ele>
        <time>2011-10-01T06:53:44Z</time>
      </trkpt>
      <trkpt lat="45.74827" lon="4.61541">
        <ele>641</ele>
        <time>2011-10-01T06:53:51Z</time>
      </trkpt>
      <trkpt lat="45.74829" lon="4.61534">
        <ele>642</ele>
        <time>2011-10-01T06:53:58Z</time>
      </trkpt>
      <trkpt lat="45.7483" lon="4.61526">
        <ele>643</ele>
        <time>2011-10-01T06:54:02Z</time>
      </trkpt>
      <trkpt lat="45.74831" lon="4.61506">
        <ele>647</ele>
        <time>2011-10-01T06:54:10Z</time>
      </trkpt>
      <trkpt lat="45.74833" lon="4.61495">
        <ele>648</ele>
        <time>2011-10-01T06:54:17Z</time>
      </trkpt>
      <trkpt lat="45.74834" lon="4.61492">
        <ele>649</ele>
        <time>2011-10-01T06:54:24Z</time>
      </trkpt>
      <trkpt lat="45.74834" lon="4.61489">
        <ele>650</ele>
        <time>2011-10-01T06:54:27Z</time>
      </trkpt>
      <trkpt lat="45.74832" lon="4.61482">
        <ele>650</ele>
        <time>2011-10-01T06:54:32Z</time>
      </trkpt>
      <trkpt lat="45.7483" lon="4.61479">
        <ele>651</ele>
        <time>2011-10-01T06:54:36Z</time>
      </trkpt>
      <trkpt lat="45.74831" lon="4.61472">
        <ele>652</ele>
        <time>2011-10-01T06:54:42Z</time>
      </trkpt>
      <trkpt lat="45.74831" lon="4.61468">
        <ele>652</ele>
        <time>2011-10-01T06:54:49Z</time>
      </trkpt>
      <trkpt lat="45.74831" lon="4.61468">
        <ele>652</ele>
        <time>2011-10-01T06:55:03Z</time>
      </trkpt>
      <trkpt lat="45.74826" lon="4.61466">
        <ele>653</ele>
        <time>2011-10-01T06:55:14Z</time>
      </trkpt>
      <trkpt lat="45.74822" lon="4.61463">
        <ele>654</ele>
        <time>2011-10-01T06:55:20Z</time>
      </trkpt>
      <trkpt lat="45.74817" lon="4.61461">
        <ele>656</ele>
        <time>2011-10-01T06:55:27Z</time>
      </trkpt>
      <trkpt lat="45.74812" lon="4.6146">
        <ele>657</ele>
        <time>2011-10-01T06:55:32Z</time>
      </trkpt>
      <trkpt lat="45.74802" lon="4.61464">
        <ele>658</ele>
        <time>2011-10-01T06:55:41Z</time>
      </trkpt>
      <trkpt lat="45.74798" lon="4.61467">
        <ele>659</ele>
        <time>2011-10-01T06:55:47Z</time>
      </trkpt>
      <trkpt lat="45.74798" lon="4.61467">
        <ele>658</ele>
        <time>2011-10-01T06:55:55Z</time>
      </trkpt>
      <trkpt lat="45.74797" lon="4.61469">
        <ele>658</ele>
        <time>2011-10-01T06:56:02Z</time>
      </trkpt>
      <trkpt lat="45.74797" lon="4.61474">
        <ele>657</ele>
        <time>2011-10-01T06:56:07Z</time>
      </trkpt>
      <trkpt lat="45.74798" lon="4.61474">
        <ele>656</ele>
        <time>2011-10-01T06:56:08Z</time>
      </trkpt>
      <trkpt lat="45.74799" lon="4.61475">
        <ele>655</ele>
        <time>2011-10-01T06:56:11Z</time>
      </trkpt>
      <trkpt lat="45.74801" lon="4.61476">
        <ele>655</ele>
        <time>2011-10-01T06:56:14Z</time>
      </trkpt>
      <trkpt lat="45.74803" lon="4.61485">
        <ele>652</ele>
        <time>2011-10-01T06:56:21Z</time>
      </trkpt>
      <trkpt lat="45.74783" lon="4.61513">
        <ele>652</ele>
        <time>2011-10-01T06:56:26Z</time>
      </trkpt>
      <trkpt lat="45.74776" lon="4.61526">
        <ele>652</ele>
        <time>2011-10-01T06:56:30Z</time>
      </trkpt>
      <trkpt lat="45.74774" lon="4.6153">
        <ele>651</ele>
        <time>2011-10-01T06:56:33Z</time>
      </trkpt>
      <trkpt lat="45.74775" lon="4.61535">
        <ele>649</ele>
        <time>2011-10-01T06:56:35Z</time>
      </trkpt>
      <trkpt lat="45.74755" lon="4.61566">
        <ele>646</ele>
        <time>2011-10-01T06:56:41Z</time>
      </trkpt>
      <trkpt lat="45.74732" lon="4.61596">
        <ele>642</ele>
        <time>2011-10-01T06:56:45Z</time>
      </trkpt>
      <trkpt lat="45.74713" lon="4.61623">
        <ele>640</ele>
        <time>2011-10-01T06:56:50Z</time>
      </trkpt>
      <trkpt lat="45.74705" lon="4.61639">
        <ele>637</ele>
        <time>2011-10-01T06:56:52Z</time>
      </trkpt>
      <trkpt lat="45.74704" lon="4.61642">
        <ele>639</ele>
        <time>2011-10-01T06:56:53Z</time>
      </trkpt>
      <trkpt lat="45.7469" lon="4.61662">
        <ele>638</ele>
        <time>2011-10-01T06:57:00Z</time>
      </trkpt>
      <trkpt lat="45.74687" lon="4.61672">
        <ele>638</ele>
        <time>2011-10-01T06:57:07Z</time>
      </trkpt>
      <trkpt lat="45.74679" lon="4.61684">
        <ele>638</ele>
        <time>2011-10-01T06:57:16Z</time>
      </trkpt>
      <trkpt lat="45.74679" lon="4.61688">
        <ele>638</ele>
        <time>2011-10-01T06:57:21Z</time>
      </trkpt>
      <trkpt lat="45.74687" lon="4.61684">
        <ele>639</ele>
        <time>2011-10-01T06:57:27Z</time>
      </trkpt>
      <trkpt lat="45.7469" lon="4.61681">
        <ele>639</ele>
        <time>2011-10-01T06:57:32Z</time>
      </trkpt>
      <trkpt lat="45.7469" lon="4.6168">
        <ele>640</ele>
        <time>2011-10-01T06:57:41Z</time>
      </trkpt>
      <trkpt lat="45.74689" lon="4.61679">
        <ele>639</ele>
        <time>2011-10-01T06:57:47Z</time>
      </trkpt>
      <trkpt lat="45.74687" lon="4.6168">
        <ele>640</ele>
        <time>2011-10-01T06:57:52Z</time>
      </trkpt>
      <trkpt lat="45.74681" lon="4.61681">
        <ele>642</ele>
        <time>2011-10-01T06:57:58Z</time>
      </trkpt>
      <trkpt lat="45.7468" lon="4.61679">
        <ele>643</ele>
        <time>2011-10-01T06:58:03Z</time>
      </trkpt>
      <trkpt lat="45.74684" lon="4.61671">
        <ele>643</ele>
        <time>2011-10-01T06:58:10Z</time>
      </trkpt>
      <trkpt lat="45.74684" lon="4.61666">
        <ele>645</ele>
        <time>2011-10-01T06:58:15Z</time>
      </trkpt>
      <trkpt lat="45.74682" lon="4.61665">
        <ele>645</ele>
        <time>2011-10-01T06:58:17Z</time>
      </trkpt>
      <trkpt lat="45.74677" lon="4.61665">
        <ele>646</ele>
        <time>2011-10-01T06:58:22Z</time>
      </trkpt>
      <trkpt lat="45.74677" lon="4.61665">
        <ele>646</ele>
        <time>2011-10-01T06:58:23Z</time>
      </trkpt>
      <trkpt lat="45.74672" lon="4.61667">
        <ele>648</ele>
        <time>2011-10-01T06:58:28Z</time>
      </trkpt>
      <trkpt lat="45.74663" lon="4.61671">
        <ele>649</ele>
        <time>2011-10-01T06:58:34Z</time>
      </trkpt>
      <trkpt lat="45.74661" lon="4.61673">
        <ele>649</ele>
        <time>2011-10-01T06:58:36Z</time>
      </trkpt>
      <trkpt lat="45.74654" lon="4.61673">
        <ele>650</ele>
        <time>2011-10-01T06:58:42Z</time>
      </trkpt>
      <trkpt lat="45.74644" lon="4.61677">
        <ele>650</ele>
        <time>2011-10-01T06:58:47Z</time>
      </trkpt>
      <trkpt lat="45.74633" lon="4.61679">
        <ele>651</ele>
        <time>2011-10-01T06:58:53Z</time>
      </trkpt>
      <trkpt lat="45.74629" lon="4.61678">
        <ele>651</ele>
        <time>2011-10-01T06:58:55Z</time>
      </trkpt>
      <trkpt lat="45.74616" lon="4.61681">
        <ele>650</ele>
        <time>2011-10-01T06:59:03Z</time>
      </trkpt>
      <trkpt lat="45.74606" lon="4.61682">
        <ele>649</ele>
        <time>2011-10-01T06:59:12Z</time>
      </trkpt>
      <trkpt lat="45.74606" lon="4.61682">
        <ele>649</ele>
        <time>2011-10-01T06:59:25Z</time>
      </trkpt>
      <trkpt lat="45.74606" lon="4.61682">
        <ele>649</ele>
        <time>2011-10-01T06:59:41Z</time>
      </trkpt>
      <trkpt lat="45.74606" lon="4.61682">
        <ele>649</ele>
        <time>2011-10-01T06:59:55Z</time>
      </trkpt>
      <trkpt lat="45.74606" lon="4.61683">
        <ele>649</ele>
        <time>2011-10-01T07:00:02Z</time>
      </trkpt>
      <trkpt lat="45.74606" lon="4.61684">
        <ele>650</ele>
        <time>2011-10-01T07:00:07Z</time>
      </trkpt>
      <trkpt lat="45.74607" lon="4.61685">
        <ele>649</ele>
        <time>2011-10-01T07:00:09Z</time>
      </trkpt>
      <trkpt lat="45.74615" lon="4.61684">
        <ele>650</ele>
        <time>2011-10-01T07:00:15Z</time>
      </trkpt>
      <trkpt lat="45.74626" lon="4.61681">
        <ele>651</ele>
        <time>2011-10-01T07:00:22Z</time>
      </trkpt>
      <trkpt lat="45.74633" lon="4.6168">
        <ele>651</ele>
        <time>2011-10-01T07:00:25Z</time>
      </trkpt>
      <trkpt lat="45.74652" lon="4.61679">
        <ele>649</ele>
        <time>2011-10-01T07:00:32Z</time>
      </trkpt>
      <trkpt lat="45.74666" lon="4.61675">
        <ele>646</ele>
        <time>2011-10-01T07:00:38Z</time>
      </trkpt>
      <trkpt lat="45.74675" lon="4.6167">
        <ele>645</ele>
        <time>2011-10-01T07:00:41Z</time>
      </trkpt>
      <trkpt lat="45.74677" lon="4.61669">
        <ele>645</ele>
        <time>2011-10-01T07:00:42Z</time>
      </trkpt>
      <trkpt lat="45.74679" lon="4.6167">
        <ele>645</ele>
        <time>2011-10-01T07:00:43Z</time>
      </trkpt>
      <trkpt lat="45.74679" lon="4.61673">
        <ele>643</ele>
        <time>2011-10-01T07:00:46Z</time>
      </trkpt>
      <trkpt lat="45.74668" lon="4.61688">
        <ele>642</ele>
        <time>2011-10-01T07:00:51Z</time>
      </trkpt>
      <trkpt lat="45.74664" lon="4.61694">
        <ele>640</ele>
        <time>2011-10-01T07:00:53Z</time>
      </trkpt>
      <trkpt lat="45.74661" lon="4.61698">
        <ele>640</ele>
        <time>2011-10-01T07:00:55Z</time>
      </trkpt>
      <trkpt lat="45.74655" lon="4.6171">
        <ele>639</ele>
        <time>2011-10-01T07:01:01Z</time>
      </trkpt>
      <trkpt lat="45.74653" lon="4.61712">
        <ele>639</ele>
        <time>2011-10-01T07:01:03Z</time>
      </trkpt>
      <trkpt lat="45.74641" lon="4.61728">
        <ele>637</ele>
        <time>2011-10-01T07:01:10Z</time>
      </trkpt>
      <trkpt lat="45.74628" lon="4.61749">
        <ele>635</ele>
        <time>2011-10-01T07:01:16Z</time>
      </trkpt>
      <trkpt lat="45.74625" lon="4.61754">
        <ele>635</ele>
        <time>2011-10-01T07:01:17Z</time>
      </trkpt>
      <trkpt lat="45.74614" lon="4.61765">
        <ele>631</ele>
        <time>2011-10-01T07:01:21Z</time>
      </trkpt>
      <trkpt lat="45.74604" lon="4.61767">
        <ele>630</ele>
        <time>2011-10-01T07:01:25Z</time>
      </trkpt>
      <trkpt lat="45.74599" lon="4.61767">
        <ele>630</ele>
        <time>2011-10-01T07:01:26Z</time>
      </trkpt>
      <trkpt lat="45.74591" lon="4.61761">
        <ele>629</ele>
        <time>2011-10-01T07:01:31Z</time>
      </trkpt>
      <trkpt lat="45.74588" lon="4.61749">
        <ele>628</ele>
        <time>2011-10-01T07:01:34Z</time>
      </trkpt>
      <trkpt lat="45.74587" lon="4.61729">
        <ele>626</ele>
        <time>2011-10-01T07:01:38Z</time>
      </trkpt>
      <trkpt lat="45.74577" lon="4.61717">
        <ele>628</ele>
        <time>2011-10-01T07:01:45Z</time>
      </trkpt>
      <trkpt lat="45.74576" lon="4.61714">
        <ele>627</ele>
        <time>2011-10-01T07:01:48Z</time>
      </trkpt>
      <trkpt lat="45.74561" lon="4.61716">
        <ele>626</ele>
        <time>2011-10-01T07:01:53Z</time>
      </trkpt>
      <trkpt lat="45.74552" lon="4.61714">
        <ele>627</ele>
        <time>2011-10-01T07:01:59Z</time>
      </trkpt>
      <trkpt lat="45.74543" lon="4.61712">
        <ele>627</ele>
        <time>2011-10-01T07:02:05Z</time>
      </trkpt>
      <trkpt lat="45.74539" lon="4.61711">
        <ele>628</ele>
        <time>2011-10-01T07:02:16Z</time>
      </trkpt>
      <trkpt lat="45.74534" lon="4.61704">
        <ele>630</ele>
        <time>2011-10-01T07:02:23Z</time>
      </trkpt>
      <trkpt lat="45.74533" lon="4.61697">
        <ele>631</ele>
        <time>2011-10-01T07:02:30Z</time>
      </trkpt>
      <trkpt lat="45.74532" lon="4.61696">
        <ele>631</ele>
        <time>2011-10-01T07:02:39Z</time>
      </trkpt>
      <trkpt lat="45.74528" lon="4.61697">
        <ele>631</ele>
        <time>2011-10-01T07:02:46Z</time>
      </trkpt>
      <trkpt lat="45.74515" lon="4.617">
        <ele>630</ele>
        <time>2011-10-01T07:02:54Z</time>
      </trkpt>
      <trkpt lat="45.74511" lon="4.617">
        <ele>629</ele>
        <time>2011-10-01T07:03:02Z</time>
      </trkpt>
      <trkpt lat="45.74501" lon="4.61703">
        <ele>629</ele>
        <time>2011-10-01T07:03:09Z</time>
      </trkpt>
      <trkpt lat="45.74498" lon="4.61705">
        <ele>629</ele>
        <time>2011-10-01T07:03:16Z</time>
      </trkpt>
      <trkpt lat="45.74493" lon="4.61708">
        <ele>629</ele>
        <time>2011-10-01T07:03:24Z</time>
      </trkpt>
      <trkpt lat="45.7449" lon="4.61711">
        <ele>630</ele>
        <time>2011-10-01T07:03:30Z</time>
      </trkpt>
      <trkpt lat="45.74487" lon="4.61712">
        <ele>629</ele>
        <time>2011-10-01T07:03:38Z</time>
      </trkpt>
      <trkpt lat="45.74487" lon="4.61712">
        <ele>629</ele>
        <time>2011-10-01T07:03:52Z</time>
      </trkpt>
      <trkpt lat="45.74483" lon="4.61712">
        <ele>629</ele>
        <time>2011-10-01T07:04:00Z</time>
      </trkpt>
      <trkpt lat="45.7447" lon="4.61714">
        <ele>629</ele>
        <time>2011-10-01T07:04:07Z</time>
      </trkpt>
      <trkpt lat="45.74465" lon="4.61713">
        <ele>629</ele>
        <time>2011-10-01T07:04:10Z</time>
      </trkpt>
      <trkpt lat="45.7445" lon="4.61717">
        <ele>628</ele>
        <time>2011-10-01T07:04:17Z</time>
      </trkpt>
      <trkpt lat="45.74446" lon="4.61719">
        <ele>629</ele>
        <time>2011-10-01T07:04:20Z</time>
      </trkpt>
      <trkpt lat="45.7443" lon="4.61716">
        <ele>632</ele>
        <time>2011-10-01T07:04:28Z</time>
      </trkpt>
      <trkpt lat="45.74425" lon="4.61713">
        <ele>634</ele>
        <time>2011-10-01T07:04:31Z</time>
      </trkpt>
      <trkpt lat="45.74413" lon="4.6171">
        <ele>636</ele>
        <time>2011-10-01T07:04:37Z</time>
      </trkpt>
      <trkpt lat="45.74406" lon="4.61707">
        <ele>636</ele>
        <time>2011-10-01T07:04:42Z</time>
      </trkpt>
      <trkpt lat="45.74394" lon="4.61705">
        <ele>637</ele>
        <time>2011-10-01T07:04:49Z</time>
      </trkpt>
      <trkpt lat="45.74391" lon="4.61703">
        <ele>637</ele>
        <time>2011-10-01T07:04:51Z</time>
      </trkpt>
      <trkpt lat="45.7438" lon="4.61705">
        <ele>636</ele>
        <time>2011-10-01T07:04:57Z</time>
      </trkpt>
      <trkpt lat="45.74377" lon="4.61708">
        <ele>635</ele>
        <time>2011-10-01T07:04:58Z</time>
      </trkpt>
      <trkpt lat="45.74373" lon="4.61715">
        <ele>633</ele>
        <time>2011-10-01T07:05:00Z</time>
      </trkpt>
      <trkpt lat="45.74369" lon="4.61723">
        <ele>631</ele>
        <time>2011-10-01T07:05:03Z</time>
      </trkpt>
      <trkpt lat="45.74374" lon="4.61747">
        <ele>629</ele>
        <time>2011-10-01T07:05:05Z</time>
      </trkpt>
      <trkpt lat="45.74378" lon="4.6176">
        <ele>627</ele>
        <time>2011-10-01T07:05:07Z</time>
      </trkpt>
      <trkpt lat="45.74378" lon="4.6179">
        <ele>624</ele>
        <time>2011-10-01T07:05:10Z</time>
      </trkpt>
      <trkpt lat="45.74378" lon="4.61801">
        <ele>622</ele>
        <time>2011-10-01T07:05:11Z</time>
      </trkpt>
      <trkpt lat="45.74379" lon="4.61814">
        <ele>620</ele>
        <time>2011-10-01T07:05:13Z</time>
      </trkpt>
      <trkpt lat="45.74374" lon="4.61839">
        <ele>617</ele>
        <time>2011-10-01T07:05:17Z</time>
      </trkpt>
      <trkpt lat="45.74372" lon="4.61855">
        <ele>615</ele>
        <time>2011-10-01T07:05:20Z</time>
      </trkpt>
      <trkpt lat="45.74372" lon="4.61858">
        <ele>614</ele>
        <time>2011-10-01T07:05:21Z</time>
      </trkpt>
      <trkpt lat="45.74372" lon="4.61866">
        <ele>612</ele>
        <time>2011-10-01T07:05:23Z</time>
      </trkpt>
      <trkpt lat="45.74371" lon="4.6187">
        <ele>612</ele>
        <time>2011-10-01T07:05:24Z</time>
      </trkpt>
      <trkpt lat="45.74369" lon="4.61877">
        <ele>612</ele>
        <time>2011-10-01T07:05:25Z</time>
      </trkpt>
      <trkpt lat="45.74358" lon="4.61913">
        <ele>612</ele>
        <time>2011-10-01T07:05:31Z</time>
      </trkpt>
      <trkpt lat="45.74349" lon="4.61948">
        <ele>612</ele>
        <time>2011-10-01T07:05:37Z</time>
      </trkpt>
      <trkpt lat="45.74342" lon="4.61971">
        <ele>613</ele>
        <time>2011-10-01T07:05:44Z</time>
      </trkpt>
      <trkpt lat="45.74341" lon="4.61976">
        <ele>612</ele>
        <time>2011-10-01T07:05:46Z</time>
      </trkpt>
      <trkpt lat="45.7434" lon="4.61978">
        <ele>613</ele>
        <time>2011-10-01T07:05:47Z</time>
      </trkpt>
      <trkpt lat="45.74335" lon="4.61999">
        <ele>614</ele>
        <time>2011-10-01T07:05:54Z</time>
      </trkpt>
      <trkpt lat="45.74329" lon="4.62022">
        <ele>615</ele>
        <time>2011-10-01T07:06:01Z</time>
      </trkpt>
      <trkpt lat="45.74326" lon="4.62041">
        <ele>614</ele>
        <time>2011-10-01T07:06:07Z</time>
      </trkpt>
      <trkpt lat="45.74323" lon="4.62059">
        <ele>614</ele>
        <time>2011-10-01T07:06:14Z</time>
      </trkpt>
      <trkpt lat="45.74314" lon="4.62076">
        <ele>614</ele>
        <time>2011-10-01T07:06:20Z</time>
      </trkpt>
      <trkpt lat="45.74289" lon="4.62105">
        <ele>614</ele>
        <time>2011-10-01T07:06:26Z</time>
      </trkpt>
      <trkpt lat="45.74288" lon="4.62104">
        <ele>615</ele>
        <time>2011-10-01T07:06:27Z</time>
      </trkpt>
      <trkpt lat="45.74287" lon="4.62102">
        <ele>615</ele>
        <time>2011-10-01T07:06:28Z</time>
      </trkpt>
      <trkpt lat="45.74284" lon="4.62097">
        <ele>615</ele>
        <time>2011-10-01T07:06:31Z</time>
      </trkpt>
      <trkpt lat="45.74283" lon="4.62091">
        <ele>616</ele>
        <time>2011-10-01T07:06:34Z</time>
      </trkpt>
      <trkpt lat="45.7428" lon="4.62086">
        <ele>617</ele>
        <time>2011-10-01T07:06:37Z</time>
      </trkpt>
      <trkpt lat="45.74271" lon="4.62088">
        <ele>618</ele>
        <time>2011-10-01T07:06:44Z</time>
      </trkpt>
      <trkpt lat="45.74262" lon="4.62087">
        <ele>619</ele>
        <time>2011-10-01T07:06:50Z</time>
      </trkpt>
      <trkpt lat="45.74255" lon="4.6208">
        <ele>621</ele>
        <time>2011-10-01T07:06:58Z</time>
      </trkpt>
      <trkpt lat="45.74251" lon="4.62065">
        <ele>624</ele>
        <time>2011-10-01T07:07:07Z</time>
      </trkpt>
      <trkpt lat="45.7425" lon="4.62057">
        <ele>625</ele>
        <time>2011-10-01T07:07:11Z</time>
      </trkpt>
      <trkpt lat="45.74245" lon="4.62041">
        <ele>628</ele>
        <time>2011-10-01T07:07:21Z</time>
      </trkpt>
      <trkpt lat="45.74242" lon="4.62031">
        <ele>629</ele>
        <time>2011-10-01T07:07:28Z</time>
      </trkpt>
      <trkpt lat="45.74239" lon="4.62015">
        <ele>630</ele>
        <time>2011-10-01T07:07:37Z</time>
      </trkpt>
      <trkpt lat="45.74238" lon="4.62014">
        <ele>629</ele>
        <time>2011-10-01T07:07:42Z</time>
      </trkpt>
      <trkpt lat="45.74238" lon="4.62014">
        <ele>630</ele>
        <time>2011-10-01T07:07:57Z</time>
      </trkpt>
      <trkpt lat="45.74238" lon="4.62014">
        <ele>630</ele>
        <time>2011-10-01T07:08:19Z</time>
      </trkpt>
      <trkpt lat="45.74237" lon="4.62014">
        <ele>630</ele>
        <time>2011-10-01T07:08:41Z</time>
      </trkpt>
      <trkpt lat="45.74237" lon="4.62013">
        <ele>630</ele>
        <time>2011-10-01T07:09:04Z</time>
      </trkpt>
      <trkpt lat="45.74237" lon="4.62013">
        <ele>630</ele>
        <time>2011-10-01T07:09:25Z</time>
      </trkpt>
      <trkpt lat="45.74237" lon="4.62013">
        <ele>630</ele>
        <time>2011-10-01T07:09:43Z</time>
      </trkpt>
      <trkpt lat="45.74237" lon="4.62013">
        <ele>630</ele>
        <time>2011-10-01T07:10:02Z</time>
      </trkpt>
      <trkpt lat="45.74237" lon="4.62012">
        <ele>630</ele>
        <time>2011-10-01T07:10:21Z</time>
      </trkpt>
      <trkpt lat="45.74237" lon="4.62012">
        <ele>630</ele>
        <time>2011-10-01T07:10:41Z</time>
      </trkpt>
      <trkpt lat="45.74237" lon="4.6201">
        <ele>630</ele>
        <time>2011-10-01T07:10:47Z</time>
      </trkpt>
      <trkpt lat="45.74237" lon="4.62008">
        <ele>630</ele>
        <time>2011-10-01T07:10:58Z</time>
      </trkpt>
      <trkpt lat="45.74236" lon="4.61987">
        <ele>631</ele>
        <time>2011-10-01T07:11:06Z</time>
      </trkpt>
      <trkpt lat="45.74236" lon="4.61982">
        <ele>630</ele>
        <time>2011-10-01T07:11:08Z</time>
      </trkpt>
      <trkpt lat="45.74235" lon="4.61952">
        <ele>631</ele>
        <time>2011-10-01T07:11:18Z</time>
      </trkpt>
      <trkpt lat="45.74235" lon="4.61931">
        <ele>632</ele>
        <time>2011-10-01T07:11:25Z</time>
      </trkpt>
      <trkpt lat="45.74234" lon="4.61907">
        <ele>633</ele>
        <time>2011-10-01T07:11:34Z</time>
      </trkpt>
      <trkpt lat="45.74234" lon="4.61891">
        <ele>635</ele>
        <time>2011-10-01T07:11:40Z</time>
      </trkpt>
      <trkpt lat="45.74235" lon="4.61868">
        <ele>636</ele>
        <time>2011-10-01T07:11:49Z</time>
      </trkpt>
      <trkpt lat="45.74235" lon="4.61863">
        <ele>637</ele>
        <time>2011-10-01T07:11:51Z</time>
      </trkpt>
      <trkpt lat="45.74238" lon="4.61854">
        <ele>638</ele>
        <time>2011-10-01T07:11:56Z</time>
      </trkpt>
      <trkpt lat="45.74238" lon="4.6185">
        <ele>639</ele>
        <time>2011-10-01T07:11:58Z</time>
      </trkpt>
      <trkpt lat="45.74239" lon="4.61835">
        <ele>641</ele>
        <time>2011-10-01T07:12:05Z</time>
      </trkpt>
      <trkpt lat="45.74241" lon="4.61831">
        <ele>642</ele>
        <time>2011-10-01T07:12:10Z</time>
      </trkpt>
      <trkpt lat="45.74244" lon="4.61822">
        <ele>642</ele>
        <time>2011-10-01T07:12:14Z</time>
      </trkpt>
      <trkpt lat="45.74254" lon="4.61812">
        <ele>643</ele>
        <time>2011-10-01T07:12:19Z</time>
      </trkpt>
      <trkpt lat="45.74259" lon="4.61803">
        <ele>644</ele>
        <time>2011-10-01T07:12:23Z</time>
      </trkpt>
      <trkpt lat="45.74267" lon="4.61793">
        <ele>645</ele>
        <time>2011-10-01T07:12:29Z</time>
      </trkpt>
      <trkpt lat="45.74275" lon="4.61786">
        <ele>646</ele>
        <time>2011-10-01T07:12:37Z</time>
      </trkpt>
      <trkpt lat="45.74281" lon="4.61775">
        <ele>647</ele>
        <time>2011-10-01T07:12:44Z</time>
      </trkpt>
      <trkpt lat="45.74284" lon="4.61767">
        <ele>647</ele>
        <time>2011-10-01T07:12:48Z</time>
      </trkpt>
      <trkpt lat="45.74289" lon="4.61755">
        <ele>648</ele>
        <time>2011-10-01T07:12:55Z</time>
      </trkpt>
      <trkpt lat="45.74289" lon="4.61752">
        <ele>649</ele>
        <time>2011-10-01T07:12:57Z</time>
      </trkpt>
      <trkpt lat="45.74295" lon="4.61738">
        <ele>650</ele>
        <time>2011-10-01T07:13:05Z</time>
      </trkpt>
      <trkpt lat="45.74298" lon="4.61731">
        <ele>651</ele>
        <time>2011-10-01T07:13:10Z</time>
      </trkpt>
      <trkpt lat="45.74299" lon="4.61727">
        <ele>652</ele>
        <time>2011-10-01T07:13:13Z</time>
      </trkpt>
      <trkpt lat="45.74303" lon="4.61721">
        <ele>653</ele>
        <time>2011-10-01T07:13:18Z</time>
      </trkpt>
      <trkpt lat="45.74304" lon="4.61717">
        <ele>654</ele>
        <time>2011-10-01T07:13:21Z</time>
      </trkpt>
      <trkpt lat="45.74305" lon="4.61706">
        <ele>655</ele>
        <time>2011-10-01T07:13:27Z</time>
      </trkpt>
      <trkpt lat="45.74305" lon="4.61695">
        <ele>657</ele>
        <time>2011-10-01T07:13:34Z</time>
      </trkpt>
      <trkpt lat="45.74307" lon="4.61684">
        <ele>659</ele>
        <time>2011-10-01T07:13:41Z</time>
      </trkpt>
      <trkpt lat="45.7431" lon="4.6168">
        <ele>659</ele>
        <time>2011-10-01T07:13:45Z</time>
      </trkpt>
      <trkpt lat="45.74314" lon="4.61673">
        <ele>660</ele>
        <time>2011-10-01T07:13:53Z</time>
      </trkpt>
      <trkpt lat="45.7432" lon="4.61667">
        <ele>661</ele>
        <time>2011-10-01T07:14:01Z</time>
      </trkpt>
      <trkpt lat="45.74323" lon="4.61666">
        <ele>661</ele>
        <time>2011-10-01T07:14:07Z</time>
      </trkpt>
      <trkpt lat="45.74324" lon="4.61667">
        <ele>661</ele>
        <time>2011-10-01T07:14:14Z</time>
      </trkpt>
      <trkpt lat="45.74333" lon="4.61658">
        <ele>662</ele>
        <time>2011-10-01T07:14:22Z</time>
      </trkpt>
      <trkpt lat="45.74337" lon="4.61655">
        <ele>662</ele>
        <time>2011-10-01T07:14:25Z</time>
      </trkpt>
      <trkpt lat="45.74349" lon="4.61653">
        <ele>662</ele>
        <time>2011-10-01T07:14:32Z</time>
      </trkpt>
      <trkpt lat="45.74353" lon="4.61651">
        <ele>663</ele>
        <time>2011-10-01T07:14:34Z</time>
      </trkpt>
      <trkpt lat="45.74362" lon="4.61648">
        <ele>663</ele>
        <time>2011-10-01T07:14:40Z</time>
      </trkpt>
      <trkpt lat="45.74369" lon="4.61644">
        <ele>663</ele>
        <time>2011-10-01T07:14:43Z</time>
      </trkpt>
      <trkpt lat="45.74376" lon="4.61641">
        <ele>664</ele>
        <time>2011-10-01T07:14:46Z</time>
      </trkpt>
      <trkpt lat="45.74392" lon="4.6163">
        <ele>665</ele>
        <time>2011-10-01T07:14:54Z</time>
      </trkpt>
      <trkpt lat="45.74399" lon="4.6162">
        <ele>667</ele>
        <time>2011-10-01T07:15:01Z</time>
      </trkpt>
      <trkpt lat="45.74405" lon="4.61613">
        <ele>668</ele>
        <time>2011-10-01T07:15:08Z</time>
      </trkpt>
      <trkpt lat="45.74412" lon="4.61605">
        <ele>670</ele>
        <time>2011-10-01T07:15:16Z</time>
      </trkpt>
      <trkpt lat="45.74421" lon="4.61601">
        <ele>672</ele>
        <time>2011-10-01T07:15:24Z</time>
      </trkpt>
      <trkpt lat="45.74427" lon="4.61596">
        <ele>673</ele>
        <time>2011-10-01T07:15:30Z</time>
      </trkpt>
      <trkpt lat="45.74436" lon="4.61587">
        <ele>675</ele>
        <time>2011-10-01T07:15:38Z</time>
      </trkpt>
      <trkpt lat="45.74442" lon="4.61577">
        <ele>678</ele>
        <time>2011-10-01T07:15:46Z</time>
      </trkpt>
      <trkpt lat="45.74447" lon="4.61569">
        <ele>680</ele>
        <time>2011-10-01T07:15:53Z</time>
      </trkpt>
      <trkpt lat="45.74453" lon="4.61559">
        <ele>684</ele>
        <time>2011-10-01T07:16:02Z</time>
      </trkpt>
      <trkpt lat="45.74463" lon="4.61548">
        <ele>686</ele>
        <time>2011-10-01T07:16:10Z</time>
      </trkpt>
      <trkpt lat="45.74473" lon="4.61543">
        <ele>687</ele>
        <time>2011-10-01T07:16:18Z</time>
      </trkpt>
      <trkpt lat="45.74483" lon="4.61535">
        <ele>688</ele>
        <time>2011-10-01T07:16:25Z</time>
      </trkpt>
      <trkpt lat="45.74489" lon="4.6153">
        <ele>689</ele>
        <time>2011-10-01T07:16:32Z</time>
      </trkpt>
      <trkpt lat="45.74495" lon="4.61524">
        <ele>689</ele>
        <time>2011-10-01T07:16:38Z</time>
      </trkpt>
      <trkpt lat="45.74501" lon="4.61517">
        <ele>690</ele>
        <time>2011-10-01T07:16:45Z</time>
      </trkpt>
      <trkpt lat="45.74508" lon="4.6151">
        <ele>691</ele>
        <time>2011-10-01T07:16:53Z</time>
      </trkpt>
      <trkpt lat="45.74511" lon="4.61504">
        <ele>693</ele>
        <time>2011-10-01T07:17:00Z</time>
      </trkpt>
      <trkpt lat="45.74514" lon="4.61501">
        <ele>694</ele>
        <time>2011-10-01T07:17:06Z</time>
      </trkpt>
      <trkpt lat="45.74519" lon="4.61498">
        <ele>694</ele>
        <time>2011-10-01T07:17:12Z</time>
      </trkpt>
      <trkpt lat="45.74523" lon="4.61495">
        <ele>694</ele>
        <time>2011-10-01T07:17:17Z</time>
      </trkpt>
      <trkpt lat="45.74527" lon="4.61491">
        <ele>695</ele>
        <time>2011-10-01T07:17:23Z</time>
      </trkpt>
      <trkpt lat="45.74536" lon="4.61489">
        <ele>695</ele>
        <time>2011-10-01T07:17:31Z</time>
      </trkpt>
      <trkpt lat="45.74538" lon="4.61488">
        <ele>696</ele>
        <time>2011-10-01T07:17:39Z</time>
      </trkpt>
      <trkpt lat="45.74545" lon="4.61486">
        <ele>696</ele>
        <time>2011-10-01T07:17:45Z</time>
      </trkpt>
      <trkpt lat="45.74558" lon="4.61485">
        <ele>697</ele>
        <time>2011-10-01T07:17:52Z</time>
      </trkpt>
      <trkpt lat="45.74567" lon="4.61481">
        <ele>698</ele>
        <time>2011-10-01T07:17:58Z</time>
      </trkpt>
      <trkpt lat="45.7457" lon="4.61481">
        <ele>698</ele>
        <time>2011-10-01T07:17:59Z</time>
      </trkpt>
      <trkpt lat="45.74586" lon="4.61475">
        <ele>699</ele>
        <time>2011-10-01T07:18:07Z</time>
      </trkpt>
      <trkpt lat="45.74596" lon="4.61472">
        <ele>700</ele>
        <time>2011-10-01T07:18:14Z</time>
      </trkpt>
      <trkpt lat="45.74604" lon="4.61468">
        <ele>702</ele>
        <time>2011-10-01T07:18:20Z</time>
      </trkpt>
      <trkpt lat="45.74614" lon="4.61459">
        <ele>703</ele>
        <time>2011-10-01T07:18:27Z</time>
      </trkpt>
      <trkpt lat="45.74616" lon="4.61459">
        <ele>703</ele>
        <time>2011-10-01T07:18:28Z</time>
      </trkpt>
      <trkpt lat="45.74624" lon="4.61452">
        <ele>704</ele>
        <time>2011-10-01T07:18:34Z</time>
      </trkpt>
      <trkpt lat="45.74636" lon="4.61443">
        <ele>706</ele>
        <time>2011-10-01T07:18:42Z</time>
      </trkpt>
      <trkpt lat="45.74645" lon="4.61434">
        <ele>707</ele>
        <time>2011-10-01T07:18:52Z</time>
      </trkpt>
      <trkpt lat="45.74652" lon="4.61428">
        <ele>708</ele>
        <time>2011-10-01T07:18:57Z</time>
      </trkpt>
      <trkpt lat="45.74661" lon="4.61421">
        <ele>709</ele>
        <time>2011-10-01T07:19:05Z</time>
      </trkpt>
      <trkpt lat="45.74665" lon="4.61416">
        <ele>710</ele>
        <time>2011-10-01T07:19:08Z</time>
      </trkpt>
      <trkpt lat="45.74675" lon="4.61404">
        <ele>711</ele>
        <time>2011-10-01T07:19:16Z</time>
      </trkpt>
      <trkpt lat="45.74677" lon="4.61403">
        <ele>710</ele>
        <time>2011-10-01T07:19:17Z</time>
      </trkpt>
      <trkpt lat="45.74679" lon="4.61398">
        <ele>711</ele>
        <time>2011-10-01T07:19:20Z</time>
      </trkpt>
      <trkpt lat="45.74684" lon="4.61389">
        <ele>712</ele>
        <time>2011-10-01T07:19:26Z</time>
      </trkpt>
      <trkpt lat="45.74685" lon="4.61385">
        <ele>712</ele>
        <time>2011-10-01T07:19:29Z</time>
      </trkpt>
      <trkpt lat="45.74689" lon="4.61373">
        <ele>714</ele>
        <time>2011-10-01T07:19:37Z</time>
      </trkpt>
      <trkpt lat="45.74694" lon="4.61367">
        <ele>716</ele>
        <time>2011-10-01T07:19:43Z</time>
      </trkpt>
      <trkpt lat="45.74698" lon="4.61364">
        <ele>716</ele>
        <time>2011-10-01T07:19:47Z</time>
      </trkpt>
      <trkpt lat="45.74703" lon="4.61346">
        <ele>718</ele>
        <time>2011-10-01T07:19:57Z</time>
      </trkpt>
      <trkpt lat="45.74703" lon="4.61346">
        <ele>719</ele>
        <time>2011-10-01T07:20:06Z</time>
      </trkpt>
      <trkpt lat="45.74702" lon="4.61348">
        <ele>719</ele>
        <time>2011-10-01T07:20:14Z</time>
      </trkpt>
      <trkpt lat="45.74701" lon="4.61353">
        <ele>718</ele>
        <time>2011-10-01T07:20:19Z</time>
      </trkpt>
      <trkpt lat="45.74698" lon="4.61356">
        <ele>719</ele>
        <time>2011-10-01T07:20:23Z</time>
      </trkpt>
      <trkpt lat="45.74689" lon="4.61363">
        <ele>719</ele>
        <time>2011-10-01T07:20:30Z</time>
      </trkpt>
      <trkpt lat="45.7468" lon="4.6137">
        <ele>719</ele>
        <time>2011-10-01T07:20:37Z</time>
      </trkpt>
      <trkpt lat="45.74674" lon="4.61375">
        <ele>719</ele>
        <time>2011-10-01T07:20:40Z</time>
      </trkpt>
      <trkpt lat="45.74662" lon="4.61379">
        <ele>719</ele>
        <time>2011-10-01T07:20:46Z</time>
      </trkpt>
      <trkpt lat="45.74651" lon="4.61385">
        <ele>719</ele>
        <time>2011-10-01T07:20:53Z</time>
      </trkpt>
      <trkpt lat="45.7464" lon="4.61385">
        <ele>720</ele>
        <time>2011-10-01T07:20:59Z</time>
      </trkpt>
      <trkpt lat="45.74622" lon="4.61382">
        <ele>722</ele>
        <time>2011-10-01T07:21:08Z</time>
      </trkpt>
      <trkpt lat="45.74617" lon="4.6138">
        <ele>722</ele>
        <time>2011-10-01T07:21:11Z</time>
      </trkpt>
      <trkpt lat="45.74614" lon="4.61378">
        <ele>723</ele>
        <time>2011-10-01T07:21:13Z</time>
      </trkpt>
      <trkpt lat="45.74607" lon="4.61375">
        <ele>723</ele>
        <time>2011-10-01T07:21:17Z</time>
      </trkpt>
      <trkpt lat="45.74596" lon="4.61375">
        <ele>724</ele>
        <time>2011-10-01T07:21:24Z</time>
      </trkpt>
      <trkpt lat="45.74584" lon="4.61373">
        <ele>725</ele>
        <time>2011-10-01T07:21:31Z</time>
      </trkpt>
      <trkpt lat="45.74575" lon="4.61373">
        <ele>727</ele>
        <time>2011-10-01T07:21:35Z</time>
      </trkpt>
      <trkpt lat="45.74563" lon="4.61372">
        <ele>729</ele>
        <time>2011-10-01T07:21:43Z</time>
      </trkpt>
      <trkpt lat="45.74554" lon="4.61372">
        <ele>730</ele>
        <time>2011-10-01T07:21:49Z</time>
      </trkpt>
      <trkpt lat="45.74545" lon="4.6137">
        <ele>731</ele>
        <time>2011-10-01T07:21:57Z</time>
      </trkpt>
      <trkpt lat="45.74538" lon="4.61369">
        <ele>733</ele>
        <time>2011-10-01T07:22:05Z</time>
      </trkpt>
      <trkpt lat="45.7453" lon="4.61367">
        <ele>733</ele>
        <time>2011-10-01T07:22:12Z</time>
      </trkpt>
      <trkpt lat="45.74523" lon="4.61365">
        <ele>735</ele>
        <time>2011-10-01T07:22:19Z</time>
      </trkpt>
      <trkpt lat="45.74517" lon="4.61364">
        <ele>736</ele>
        <time>2011-10-01T07:22:24Z</time>
      </trkpt>
      <trkpt lat="45.74511" lon="4.61364">
        <ele>738</ele>
        <time>2011-10-01T07:22:30Z</time>
      </trkpt>
      <trkpt lat="45.74504" lon="4.61367">
        <ele>738</ele>
        <time>2011-10-01T07:22:35Z</time>
      </trkpt>
      <trkpt lat="45.74499" lon="4.61369">
        <ele>738</ele>
        <time>2011-10-01T07:22:41Z</time>
      </trkpt>
      <trkpt lat="45.74493" lon="4.61373">
        <ele>738</ele>
        <time>2011-10-01T07:22:46Z</time>
      </trkpt>
      <trkpt lat="45.74487" lon="4.61377">
        <ele>738</ele>
        <time>2011-10-01T07:22:52Z</time>
      </trkpt>
      <trkpt lat="45.74474" lon="4.61383">
        <ele>738</ele>
        <time>2011-10-01T07:22:59Z</time>
      </trkpt>
      <trkpt lat="45.74474" lon="4.61383">
        <ele>738</ele>
        <time>2011-10-01T07:23:14Z</time>
      </trkpt>
      <trkpt lat="45.74468" lon="4.61386">
        <ele>738</ele>
        <time>2011-10-01T07:23:20Z</time>
      </trkpt>
      <trkpt lat="45.74457" lon="4.61394">
        <ele>737</ele>
        <time>2011-10-01T07:23:26Z</time>
      </trkpt>
      <trkpt lat="45.74437" lon="4.61401">
        <ele>737</ele>
        <time>2011-10-01T07:23:33Z</time>
      </trkpt>
      <trkpt lat="45.74421" lon="4.61404">
        <ele>736</ele>
        <time>2011-10-01T07:23:39Z</time>
      </trkpt>
      <trkpt lat="45.74416" lon="4.61405">
        <ele>736</ele>
        <time>2011-10-01T07:23:41Z</time>
      </trkpt>
      <trkpt lat="45.74401" lon="4.61403">
        <ele>737</ele>
        <time>2011-10-01T07:23:47Z</time>
      </trkpt>
      <trkpt lat="45.7439" lon="4.61395">
        <ele>737</ele>
        <time>2011-10-01T07:23:53Z</time>
      </trkpt>
      <trkpt lat="45.74386" lon="4.61393">
        <ele>737</ele>
        <time>2011-10-01T07:23:55Z</time>
      </trkpt>
      <trkpt lat="45.7438" lon="4.61389">
        <ele>737</ele>
        <time>2011-10-01T07:23:58Z</time>
      </trkpt>
      <trkpt lat="45.74374" lon="4.61388">
        <ele>737</ele>
        <time>2011-10-01T07:24:01Z</time>
      </trkpt>
      <trkpt lat="45.7436" lon="4.61374">
        <ele>737</ele>
        <time>2011-10-01T07:24:08Z</time>
      </trkpt>
      <trkpt lat="45.74354" lon="4.61369">
        <ele>738</ele>
        <time>2011-10-01T07:24:11Z</time>
      </trkpt>
      <trkpt lat="45.74338" lon="4.61366">
        <ele>738</ele>
        <time>2011-10-01T07:24:17Z</time>
      </trkpt>
      <trkpt lat="45.74332" lon="4.6136">
        <ele>739</ele>
        <time>2011-10-01T07:24:24Z</time>
      </trkpt>
      <trkpt lat="45.74324" lon="4.6136">
        <ele>740</ele>
        <time>2011-10-01T07:24:27Z</time>
      </trkpt>
      <trkpt lat="45.74312" lon="4.61353">
        <ele>742</ele>
        <time>2011-10-01T07:24:34Z</time>
      </trkpt>
      <trkpt lat="45.74304" lon="4.61349">
        <ele>743</ele>
        <time>2011-10-01T07:24:40Z</time>
      </trkpt>
      <trkpt lat="45.74294" lon="4.61345">
        <ele>744</ele>
        <time>2011-10-01T07:24:46Z</time>
      </trkpt>
      <trkpt lat="45.74292" lon="4.61344">
        <ele>745</ele>
        <time>2011-10-01T07:24:47Z</time>
      </trkpt>
      <trkpt lat="45.74288" lon="4.61344">
        <ele>745</ele>
        <time>2011-10-01T07:24:50Z</time>
      </trkpt>
      <trkpt lat="45.74286" lon="4.61335">
        <ele>747</ele>
        <time>2011-10-01T07:24:57Z</time>
      </trkpt>
      <trkpt lat="45.74291" lon="4.61329">
        <ele>748</ele>
        <time>2011-10-01T07:25:06Z</time>
      </trkpt>
      <trkpt lat="45.74294" lon="4.61324">
        <ele>749</ele>
        <time>2011-10-01T07:25:10Z</time>
      </trkpt>
      <trkpt lat="45.74299" lon="4.61317">
        <ele>749</ele>
        <time>2011-10-01T07:25:15Z</time>
      </trkpt>
      <trkpt lat="45.74302" lon="4.61312">
        <ele>750</ele>
        <time>2011-10-01T07:25:18Z</time>
      </trkpt>
      <trkpt lat="45.74311" lon="4.61303">
        <ele>752</ele>
        <time>2011-10-01T07:25:28Z</time>
      </trkpt>
      <trkpt lat="45.74321" lon="4.61295">
        <ele>754</ele>
        <time>2011-10-01T07:25:36Z</time>
      </trkpt>
      <trkpt lat="45.74329" lon="4.61286">
        <ele>755</ele>
        <time>2011-10-01T07:25:44Z</time>
      </trkpt>
      <trkpt lat="45.74334" lon="4.61281">
        <ele>756</ele>
        <time>2011-10-01T07:25:49Z</time>
      </trkpt>
      <trkpt lat="45.74343" lon="4.61274">
        <ele>757</ele>
        <time>2011-10-01T07:25:57Z</time>
      </trkpt>
      <trkpt lat="45.74348" lon="4.61273">
        <ele>758</ele>
        <time>2011-10-01T07:26:01Z</time>
      </trkpt>
      <trkpt lat="45.74354" lon="4.61269">
        <ele>758</ele>
        <time>2011-10-01T07:26:06Z</time>
      </trkpt>
      <trkpt lat="45.74354" lon="4.61263">
        <ele>760</ele>
        <time>2011-10-01T07:26:11Z</time>
      </trkpt>
      <trkpt lat="45.74345" lon="4.61253">
        <ele>760</ele>
        <time>2011-10-01T07:26:21Z</time>
      </trkpt>
      <trkpt lat="45.74337" lon="4.61249">
        <ele>761</ele>
        <time>2011-10-01T07:26:28Z</time>
      </trkpt>
      <trkpt lat="45.74327" lon="4.61246">
        <ele>761</ele>
        <time>2011-10-01T07:26:35Z</time>
      </trkpt>
      <trkpt lat="45.74324" lon="4.61244">
        <ele>762</ele>
        <time>2011-10-01T07:26:37Z</time>
      </trkpt>
      <trkpt lat="45.7431" lon="4.61244">
        <ele>763</ele>
        <time>2011-10-01T07:26:45Z</time>
      </trkpt>
      <trkpt lat="45.74303" lon="4.61242">
        <ele>763</ele>
        <time>2011-10-01T07:26:49Z</time>
      </trkpt>
      <trkpt lat="45.7429" lon="4.61241">
        <ele>764</ele>
        <time>2011-10-01T07:26:57Z</time>
      </trkpt>
      <trkpt lat="45.7428" lon="4.61239">
        <ele>765</ele>
        <time>2011-10-01T07:27:04Z</time>
      </trkpt>
      <trkpt lat="45.74266" lon="4.61237">
        <ele>765</ele>
        <time>2011-10-01T07:27:12Z</time>
      </trkpt>
      <trkpt lat="45.7425" lon="4.61234">
        <ele>767</ele>
        <time>2011-10-01T07:27:21Z</time>
      </trkpt>
      <trkpt lat="45.74242" lon="4.61234">
        <ele>767</ele>
        <time>2011-10-01T07:27:25Z</time>
      </trkpt>
      <trkpt lat="45.74234" lon="4.61234">
        <ele>768</ele>
        <time>2011-10-01T07:27:30Z</time>
      </trkpt>
      <trkpt lat="45.7422" lon="4.61235">
        <ele>768</ele>
        <time>2011-10-01T07:27:39Z</time>
      </trkpt>
      <trkpt lat="45.74216" lon="4.61236">
        <ele>769</ele>
        <time>2011-10-01T07:27:42Z</time>
      </trkpt>
      <trkpt lat="45.74212" lon="4.61236">
        <ele>769</ele>
        <time>2011-10-01T07:27:45Z</time>
      </trkpt>
      <trkpt lat="45.74198" lon="4.61241">
        <ele>770</ele>
        <time>2011-10-01T07:27:53Z</time>
      </trkpt>
      <trkpt lat="45.74187" lon="4.61245">
        <ele>771</ele>
        <time>2011-10-01T07:28:00Z</time>
      </trkpt>
      <trkpt lat="45.74175" lon="4.61251">
        <ele>772</ele>
        <time>2011-10-01T07:28:08Z</time>
      </trkpt>
      <trkpt lat="45.74162" lon="4.61254">
        <ele>773</ele>
        <time>2011-10-01T07:28:15Z</time>
      </trkpt>
      <trkpt lat="45.74157" lon="4.61255">
        <ele>773</ele>
        <time>2011-10-01T07:28:18Z</time>
      </trkpt>
      <trkpt lat="45.74144" lon="4.61263">
        <ele>773</ele>
        <time>2011-10-01T07:28:26Z</time>
      </trkpt>
      <trkpt lat="45.74135" lon="4.61269">
        <ele>774</ele>
        <time>2011-10-01T07:28:33Z</time>
      </trkpt>
      <trkpt lat="45.74133" lon="4.61269">
        <ele>774</ele>
        <time>2011-10-01T07:28:34Z</time>
      </trkpt>
      <trkpt lat="45.74134" lon="4.61262">
        <ele>774</ele>
        <time>2011-10-01T07:28:38Z</time>
      </trkpt>
      <trkpt lat="45.74137" lon="4.61249">
        <ele>776</ele>
        <time>2011-10-01T07:28:47Z</time>
      </trkpt>
      <trkpt lat="45.7414" lon="4.61242">
        <ele>776</ele>
        <time>2011-10-01T07:28:51Z</time>
      </trkpt>
      <trkpt lat="45.74145" lon="4.61239">
        <ele>776</ele>
        <time>2011-10-01T07:28:55Z</time>
      </trkpt>
      <trkpt lat="45.74155" lon="4.61225">
        <ele>778</ele>
        <time>2011-10-01T07:29:04Z</time>
      </trkpt>
      <trkpt lat="45.74161" lon="4.61212">
        <ele>780</ele>
        <time>2011-10-01T07:29:13Z</time>
      </trkpt>
      <trkpt lat="45.74166" lon="4.61199">
        <ele>781</ele>
        <time>2011-10-01T07:29:21Z</time>
      </trkpt>
      <trkpt lat="45.7417" lon="4.61187">
        <ele>783</ele>
        <time>2011-10-01T07:29:28Z</time>
      </trkpt>
      <trkpt lat="45.74174" lon="4.61176">
        <ele>783</ele>
        <time>2011-10-01T07:29:35Z</time>
      </trkpt>
      <trkpt lat="45.74178" lon="4.61164">
        <ele>785</ele>
        <time>2011-10-01T07:29:42Z</time>
      </trkpt>
      <trkpt lat="45.74186" lon="4.61153">
        <ele>785</ele>
        <time>2011-10-01T07:29:49Z</time>
      </trkpt>
      <trkpt lat="45.7419" lon="4.61152">
        <ele>786</ele>
        <time>2011-10-01T07:29:52Z</time>
      </trkpt>
      <trkpt lat="45.74197" lon="4.61139">
        <ele>786</ele>
        <time>2011-10-01T07:30:00Z</time>
      </trkpt>
      <trkpt lat="45.74194" lon="4.61125">
        <ele>787</ele>
        <time>2011-10-01T07:30:07Z</time>
      </trkpt>
      <trkpt lat="45.74193" lon="4.6112">
        <ele>789</ele>
        <time>2011-10-01T07:30:10Z</time>
      </trkpt>
      <trkpt lat="45.74198" lon="4.61112">
        <ele>790</ele>
        <time>2011-10-01T07:30:16Z</time>
      </trkpt>
      <trkpt lat="45.742" lon="4.61109">
        <ele>790</ele>
        <time>2011-10-01T07:30:19Z</time>
      </trkpt>
      <trkpt lat="45.74208" lon="4.61102">
        <ele>791</ele>
        <time>2011-10-01T07:30:26Z</time>
      </trkpt>
      <trkpt lat="45.7421" lon="4.61098">
        <ele>791</ele>
        <time>2011-10-01T07:30:28Z</time>
      </trkpt>
      <trkpt lat="45.74217" lon="4.61087">
        <ele>792</ele>
        <time>2011-10-01T07:30:34Z</time>
      </trkpt>
      <trkpt lat="45.74221" lon="4.61077">
        <ele>793</ele>
        <time>2011-10-01T07:30:40Z</time>
      </trkpt>
      <trkpt lat="45.74226" lon="4.61068">
        <ele>793</ele>
        <time>2011-10-01T07:30:45Z</time>
      </trkpt>
      <trkpt lat="45.74231" lon="4.61058">
        <ele>793</ele>
        <time>2011-10-01T07:30:50Z</time>
      </trkpt>
      <trkpt lat="45.74236" lon="4.6105">
        <ele>795</ele>
        <time>2011-10-01T07:30:56Z</time>
      </trkpt>
      <trkpt lat="45.74241" lon="4.61044">
        <ele>795</ele>
        <time>2011-10-01T07:31:04Z</time>
      </trkpt>
      <trkpt lat="45.74251" lon="4.61038">
        <ele>795</ele>
        <time>2011-10-01T07:31:10Z</time>
      </trkpt>
      <trkpt lat="45.7426" lon="4.61027">
        <ele>796</ele>
        <time>2011-10-01T07:31:17Z</time>
      </trkpt>
      <trkpt lat="45.74268" lon="4.61023">
        <ele>797</ele>
        <time>2011-10-01T07:31:23Z</time>
      </trkpt>
      <trkpt lat="45.74275" lon="4.61024">
        <ele>796</ele>
        <time>2011-10-01T07:31:27Z</time>
      </trkpt>
      <trkpt lat="45.74284" lon="4.61024">
        <ele>796</ele>
        <time>2011-10-01T07:31:31Z</time>
      </trkpt>
      <trkpt lat="45.74293" lon="4.61025">
        <ele>797</ele>
        <time>2011-10-01T07:31:35Z</time>
      </trkpt>
      <trkpt lat="45.74304" lon="4.61026">
        <ele>796</ele>
        <time>2011-10-01T07:31:39Z</time>
      </trkpt>
      <trkpt lat="45.74313" lon="4.61032">
        <ele>796</ele>
        <time>2011-10-01T07:31:43Z</time>
      </trkpt>
      <trkpt lat="45.74326" lon="4.61023">
        <ele>797</ele>
        <time>2011-10-01T07:31:50Z</time>
      </trkpt>
      <trkpt lat="45.74328" lon="4.6102">
        <ele>797</ele>
        <time>2011-10-01T07:31:52Z</time>
      </trkpt>
      <trkpt lat="45.74329" lon="4.61011">
        <ele>798</ele>
        <time>2011-10-01T07:31:57Z</time>
      </trkpt>
      <trkpt lat="45.74326" lon="4.61">
        <ele>799</ele>
        <time>2011-10-01T07:32:03Z</time>
      </trkpt>
      <trkpt lat="45.7432" lon="4.60981">
        <ele>802</ele>
        <time>2011-10-01T07:32:12Z</time>
      </trkpt>
      <trkpt lat="45.74316" lon="4.60965">
        <ele>803</ele>
        <time>2011-10-01T07:32:20Z</time>
      </trkpt>
      <trkpt lat="45.74316" lon="4.60961">
        <ele>803</ele>
        <time>2011-10-01T07:32:22Z</time>
      </trkpt>
      <trkpt lat="45.74312" lon="4.60948">
        <ele>805</ele>
        <time>2011-10-01T07:32:30Z</time>
      </trkpt>
      <trkpt lat="45.74312" lon="4.60945">
        <ele>806</ele>
        <time>2011-10-01T07:32:36Z</time>
      </trkpt>
      <trkpt lat="45.7431" lon="4.60944">
        <ele>806</ele>
        <time>2011-10-01T07:32:38Z</time>
      </trkpt>
      <trkpt lat="45.74304" lon="4.60942">
        <ele>807</ele>
        <time>2011-10-01T07:32:45Z</time>
      </trkpt>
      <trkpt lat="45.74303" lon="4.60938">
        <ele>808</ele>
        <time>2011-10-01T07:32:48Z</time>
      </trkpt>
      <trkpt lat="45.74295" lon="4.60929">
        <ele>810</ele>
        <time>2011-10-01T07:32:55Z</time>
      </trkpt>
      <trkpt lat="45.7429" lon="4.60917">
        <ele>811</ele>
        <time>2011-10-01T07:33:02Z</time>
      </trkpt>
      <trkpt lat="45.74289" lon="4.60916">
        <ele>812</ele>
        <time>2011-10-01T07:33:03Z</time>
      </trkpt>
      <trkpt lat="45.74284" lon="4.60899">
        <ele>813</ele>
        <time>2011-10-01T07:33:12Z</time>
      </trkpt>
      <trkpt lat="45.74285" lon="4.60888">
        <ele>814</ele>
        <time>2011-10-01T07:33:18Z</time>
      </trkpt>
      <trkpt lat="45.74285" lon="4.60886">
        <ele>814</ele>
        <time>2011-10-01T07:33:19Z</time>
      </trkpt>
      <trkpt lat="45.74282" lon="4.60867">
        <ele>814</ele>
        <time>2011-10-01T07:33:25Z</time>
      </trkpt>
      <trkpt lat="45.74282" lon="4.60864">
        <ele>814</ele>
        <time>2011-10-01T07:33:26Z</time>
      </trkpt>
      <trkpt lat="45.74284" lon="4.60845">
        <ele>812</ele>
        <time>2011-10-01T07:33:32Z</time>
      </trkpt>
      <trkpt lat="45.74286" lon="4.60825">
        <ele>811</ele>
        <time>2011-10-01T07:33:37Z</time>
      </trkpt>
      <trkpt lat="45.74275" lon="4.60798">
        <ele>811</ele>
        <time>2011-10-01T07:33:43Z</time>
      </trkpt>
      <trkpt lat="45.74271" lon="4.60787">
        <ele>810</ele>
        <time>2011-10-01T07:33:51Z</time>
      </trkpt>
      <trkpt lat="45.74271" lon="4.60787">
        <ele>810</ele>
        <time>2011-10-01T07:34:03Z</time>
      </trkpt>
      <trkpt lat="45.74271" lon="4.60785">
        <ele>810</ele>
        <time>2011-10-01T07:34:13Z</time>
      </trkpt>
      <trkpt lat="45.74271" lon="4.60785">
        <ele>810</ele>
        <time>2011-10-01T07:34:24Z</time>
      </trkpt>
      <trkpt lat="45.74272" lon="4.60785">
        <ele>810</ele>
        <time>2011-10-01T07:34:34Z</time>
      </trkpt>
      <trkpt lat="45.74272" lon="4.60785">
        <ele>810</ele>
        <time>2011-10-01T07:34:42Z</time>
      </trkpt>
      <trkpt lat="45.74272" lon="4.60785">
        <ele>810</ele>
        <time>2011-10-01T07:34:57Z</time>
      </trkpt>
      <trkpt lat="45.74271" lon="4.60784">
        <ele>810</ele>
        <time>2011-10-01T07:35:04Z</time>
      </trkpt>
      <trkpt lat="45.74271" lon="4.60784">
        <ele>809</ele>
        <time>2011-10-01T07:35:21Z</time>
      </trkpt>
      <trkpt lat="45.74271" lon="4.60784">
        <ele>810</ele>
        <time>2011-10-01T07:35:38Z</time>
      </trkpt>
      <trkpt lat="45.74271" lon="4.60784">
        <ele>810</ele>
        <time>2011-10-01T07:35:56Z</time>
      </trkpt>
      <trkpt lat="45.74271" lon="4.60784">
        <ele>810</ele>
        <time>2011-10-01T07:36:11Z</time>
      </trkpt>
      <trkpt lat="45.7427" lon="4.60783">
        <ele>809</ele>
        <time>2011-10-01T07:36:29Z</time>
      </trkpt>
      <trkpt lat="45.7427" lon="4.60783">
        <ele>809</ele>
        <time>2011-10-01T07:36:49Z</time>
      </trkpt>
      <trkpt lat="45.7427" lon="4.60782">
        <ele>809</ele>
        <time>2011-10-01T07:37:10Z</time>
      </trkpt>
      <trkpt lat="45.7427" lon="4.60782">
        <ele>809</ele>
        <time>2011-10-01T07:37:30Z</time>
      </trkpt>
      <trkpt lat="45.7427" lon="4.60781">
        <ele>809</ele>
        <time>2011-10-01T07:37:49Z</time>
      </trkpt>
      <trkpt lat="45.7427" lon="4.60781">
        <ele>809</ele>
        <time>2011-10-01T07:38:08Z</time>
      </trkpt>
      <trkpt lat="45.74269" lon="4.60781">
        <ele>810</ele>
        <time>2011-10-01T07:38:19Z</time>
      </trkpt>
      <trkpt lat="45.74269" lon="4.60781">
        <ele>809</ele>
        <time>2011-10-01T07:38:21Z</time>
      </trkpt>
      <trkpt lat="45.74267" lon="4.60774">
        <ele>809</ele>
        <time>2011-10-01T07:38:25Z</time>
      </trkpt>
      <trkpt lat="45.74266" lon="4.60756">
        <ele>807</ele>
        <time>2011-10-01T07:38:30Z</time>
      </trkpt>
      <trkpt lat="45.74261" lon="4.60732">
        <ele>805</ele>
        <time>2011-10-01T07:38:33Z</time>
      </trkpt>
      <trkpt lat="45.74246" lon="4.60715">
        <ele>805</ele>
        <time>2011-10-01T07:38:38Z</time>
      </trkpt>
      <trkpt lat="45.74244" lon="4.60718">
        <ele>806</ele>
        <time>2011-10-01T07:38:40Z</time>
      </trkpt>
      <trkpt lat="45.74241" lon="4.60718">
        <ele>808</ele>
        <time>2011-10-01T07:38:45Z</time>
      </trkpt>
      <trkpt lat="45.74236" lon="4.60712">
        <ele>809</ele>
        <time>2011-10-01T07:38:52Z</time>
      </trkpt>
      <trkpt lat="45.74235" lon="4.60711">
        <ele>809</ele>
        <time>2011-10-01T07:38:58Z</time>
      </trkpt>
      <trkpt lat="45.74235" lon="4.60711">
        <ele>809</ele>
        <time>2011-10-01T07:39:11Z</time>
      </trkpt>
      <trkpt lat="45.74234" lon="4.60709">
        <ele>809</ele>
        <time>2011-10-01T07:39:17Z</time>
      </trkpt>
      <trkpt lat="45.74235" lon="4.60709">
        <ele>809</ele>
        <time>2011-10-01T07:39:24Z</time>
      </trkpt>
      <trkpt lat="45.74234" lon="4.60708">
        <ele>809</ele>
        <time>2011-10-01T07:39:33Z</time>
      </trkpt>
      <trkpt lat="45.74224" lon="4.60703">
        <ele>810</ele>
        <time>2011-10-01T07:39:39Z</time>
      </trkpt>
      <trkpt lat="45.74222" lon="4.60703">
        <ele>811</ele>
        <time>2011-10-01T07:39:46Z</time>
      </trkpt>
      <trkpt lat="45.7422" lon="4.60707">
        <ele>812</ele>
        <time>2011-10-01T07:39:52Z</time>
      </trkpt>
      <trkpt lat="45.74219" lon="4.60707">
        <ele>812</ele>
        <time>2011-10-01T07:39:53Z</time>
      </trkpt>
      <trkpt lat="45.74216" lon="4.60712">
        <ele>814</ele>
        <time>2011-10-01T07:40:00Z</time>
      </trkpt>
      <trkpt lat="45.74212" lon="4.60717">
        <ele>815</ele>
        <time>2011-10-01T07:40:08Z</time>
      </trkpt>
      <trkpt lat="45.74207" lon="4.6072">
        <ele>817</ele>
        <time>2011-10-01T07:40:16Z</time>
      </trkpt>
      <trkpt lat="45.74204" lon="4.60721">
        <ele>819</ele>
        <time>2011-10-01T07:40:25Z</time>
      </trkpt>
      <trkpt lat="45.74201" lon="4.60725">
        <ele>820</ele>
        <time>2011-10-01T07:40:31Z</time>
      </trkpt>
      <trkpt lat="45.74195" lon="4.60724">
        <ele>820</ele>
        <time>2011-10-01T07:40:38Z</time>
      </trkpt>
      <trkpt lat="45.74193" lon="4.60722">
        <ele>820</ele>
        <time>2011-10-01T07:40:39Z</time>
      </trkpt>
      <trkpt lat="45.74188" lon="4.60717">
        <ele>821</ele>
        <time>2011-10-01T07:40:43Z</time>
      </trkpt>
      <trkpt lat="45.74183" lon="4.60713">
        <ele>822</ele>
        <time>2011-10-01T07:40:46Z</time>
      </trkpt>
      <trkpt lat="45.74177" lon="4.60705">
        <ele>822</ele>
        <time>2011-10-01T07:40:52Z</time>
      </trkpt>
      <trkpt lat="45.74174" lon="4.60704">
        <ele>823</ele>
        <time>2011-10-01T07:40:55Z</time>
      </trkpt>
      <trkpt lat="45.74169" lon="4.60695">
        <ele>823</ele>
        <time>2011-10-01T07:41:00Z</time>
      </trkpt>
      <trkpt lat="45.7416" lon="4.60676">
        <ele>822</ele>
        <time>2011-10-01T07:41:07Z</time>
      </trkpt>
      <trkpt lat="45.74151" lon="4.60662">
        <ele>823</ele>
        <time>2011-10-01T07:41:11Z</time>
      </trkpt>
      <trkpt lat="45.7415" lon="4.6066">
        <ele>823</ele>
        <time>2011-10-01T07:41:12Z</time>
      </trkpt>
      <trkpt lat="45.74136" lon="4.6064">
        <ele>822</ele>
        <time>2011-10-01T07:41:19Z</time>
      </trkpt>
      <trkpt lat="45.74126" lon="4.60624">
        <ele>822</ele>
        <time>2011-10-01T07:41:24Z</time>
      </trkpt>
      <trkpt lat="45.74124" lon="4.6062">
        <ele>823</ele>
        <time>2011-10-01T07:41:26Z</time>
      </trkpt>
      <trkpt lat="45.74112" lon="4.60605">
        <ele>824</ele>
        <time>2011-10-01T07:41:32Z</time>
      </trkpt>
      <trkpt lat="45.74099" lon="4.6058">
        <ele>823</ele>
        <time>2011-10-01T07:41:38Z</time>
      </trkpt>
      <trkpt lat="45.74083" lon="4.60567">
        <ele>824</ele>
        <time>2011-10-01T07:41:44Z</time>
      </trkpt>
      <trkpt lat="45.74075" lon="4.60557">
        <ele>824</ele>
        <time>2011-10-01T07:41:48Z</time>
      </trkpt>
      <trkpt lat="45.74064" lon="4.6054">
        <ele>823</ele>
        <time>2011-10-01T07:41:51Z</time>
      </trkpt>
      <trkpt lat="45.74055" lon="4.60523">
        <ele>823</ele>
        <time>2011-10-01T07:41:54Z</time>
      </trkpt>
      <trkpt lat="45.74045" lon="4.60484">
        <ele>822</ele>
        <time>2011-10-01T07:42:00Z</time>
      </trkpt>
      <trkpt lat="45.7404" lon="4.60452">
        <ele>821</ele>
        <time>2011-10-01T07:42:05Z</time>
      </trkpt>
      <trkpt lat="45.74039" lon="4.60439">
        <ele>821</ele>
        <time>2011-10-01T07:42:07Z</time>
      </trkpt>
      <trkpt lat="45.74036" lon="4.60426">
        <ele>820</ele>
        <time>2011-10-01T07:42:09Z</time>
      </trkpt>
      <trkpt lat="45.74035" lon="4.6041">
        <ele>820</ele>
        <time>2011-10-01T07:42:11Z</time>
      </trkpt>
      <trkpt lat="45.74034" lon="4.60403">
        <ele>820</ele>
        <time>2011-10-01T07:42:12Z</time>
      </trkpt>
      <trkpt lat="45.74026" lon="4.60383">
        <ele>820</ele>
        <time>2011-10-01T07:42:17Z</time>
      </trkpt>
      <trkpt lat="45.74025" lon="4.60378">
        <ele>820</ele>
        <time>2011-10-01T07:42:18Z</time>
      </trkpt>
      <trkpt lat="45.74023" lon="4.60374">
        <ele>821</ele>
        <time>2011-10-01T07:42:19Z</time>
      </trkpt>
      <trkpt lat="45.74022" lon="4.60372">
        <ele>820</ele>
        <time>2011-10-01T07:42:20Z</time>
      </trkpt>
      <trkpt lat="45.7402" lon="4.60369">
        <ele>820</ele>
        <time>2011-10-01T07:42:21Z</time>
      </trkpt>
      <trkpt lat="45.74019" lon="4.60368">
        <ele>820</ele>
        <time>2011-10-01T07:42:22Z</time>
      </trkpt>
      <trkpt lat="45.74018" lon="4.60369">
        <ele>820</ele>
        <time>2011-10-01T07:42:23Z</time>
      </trkpt>
      <trkpt lat="45.74017" lon="4.60369">
        <ele>820</ele>
        <time>2011-10-01T07:42:24Z</time>
      </trkpt>
      <trkpt lat="45.74015" lon="4.60369">
        <ele>820</ele>
        <time>2011-10-01T07:42:25Z</time>
      </trkpt>
      <trkpt lat="45.74013" lon="4.60369">
        <ele>820</ele>
        <time>2011-10-01T07:42:26Z</time>
      </trkpt>
      <trkpt lat="45.74012" lon="4.6037">
        <ele>820</ele>
        <time>2011-10-01T07:42:27Z</time>
      </trkpt>
      <trkpt lat="45.74011" lon="4.6037">
        <ele>820</ele>
        <time>2011-10-01T07:42:28Z</time>
      </trkpt>
      <trkpt lat="45.7401" lon="4.6037">
        <ele>820</ele>
        <time>2011-10-01T07:42:29Z</time>
      </trkpt>
      <trkpt lat="45.74008" lon="4.6037">
        <ele>820</ele>
        <time>2011-10-01T07:42:30Z</time>
      </trkpt>
      <trkpt lat="45.74" lon="4.60377">
        <ele>821</ele>
        <time>2011-10-01T07:42:37Z</time>
      </trkpt>
      <trkpt lat="45.73995" lon="4.60381">
        <ele>821</ele>
        <time>2011-10-01T07:42:40Z</time>
      </trkpt>
      <trkpt lat="45.73994" lon="4.60383">
        <ele>821</ele>
        <time>2011-10-01T07:42:41Z</time>
      </trkpt>
      <trkpt lat="45.73992" lon="4.60384">
        <ele>821</ele>
        <time>2011-10-01T07:42:42Z</time>
      </trkpt>
      <trkpt lat="45.73983" lon="4.60394">
        <ele>822</ele>
        <time>2011-10-01T07:42:48Z</time>
      </trkpt>
      <trkpt lat="45.73974" lon="4.60412">
        <ele>822</ele>
        <time>2011-10-01T07:42:54Z</time>
      </trkpt>
      <trkpt lat="45.73966" lon="4.60432">
        <ele>823</ele>
        <time>2011-10-01T07:43:00Z</time>
      </trkpt>
      <trkpt lat="45.73957" lon="4.60452">
        <ele>823</ele>
        <time>2011-10-01T07:43:06Z</time>
      </trkpt>
      <trkpt lat="45.73956" lon="4.60459">
        <ele>823</ele>
        <time>2011-10-01T07:43:08Z</time>
      </trkpt>
      <trkpt lat="45.73952" lon="4.60467">
        <ele>824</ele>
        <time>2011-10-01T07:43:11Z</time>
      </trkpt>
      <trkpt lat="45.73952" lon="4.60469">
        <ele>824</ele>
        <time>2011-10-01T07:43:12Z</time>
      </trkpt>
      <trkpt lat="45.7395" lon="4.60475">
        <ele>824</ele>
        <time>2011-10-01T07:43:15Z</time>
      </trkpt>
      <trkpt lat="45.73947" lon="4.60482">
        <ele>825</ele>
        <time>2011-10-01T07:43:19Z</time>
      </trkpt>
      <trkpt lat="45.73947" lon="4.60484">
        <ele>826</ele>
        <time>2011-10-01T07:43:20Z</time>
      </trkpt>
      <trkpt lat="45.73949" lon="4.60488">
        <ele>826</ele>
        <time>2011-10-01T07:43:22Z</time>
      </trkpt>
      <trkpt lat="45.73954" lon="4.605">
        <ele>827</ele>
        <time>2011-10-01T07:43:25Z</time>
      </trkpt>
      <trkpt lat="45.73956" lon="4.60503">
        <ele>827</ele>
        <time>2011-10-01T07:43:26Z</time>
      </trkpt>
      <trkpt lat="45.73955" lon="4.60511">
        <ele>827</ele>
        <time>2011-10-01T07:43:30Z</time>
      </trkpt>
      <trkpt lat="45.73957" lon="4.60523">
        <ele>829</ele>
        <time>2011-10-01T07:43:36Z</time>
      </trkpt>
      <trkpt lat="45.73957" lon="4.60525">
        <ele>829</ele>
        <time>2011-10-01T07:43:37Z</time>
      </trkpt>
      <trkpt lat="45.73955" lon="4.60527">
        <ele>830</ele>
        <time>2011-10-01T07:43:39Z</time>
      </trkpt>
      <trkpt lat="45.73954" lon="4.60532">
        <ele>830</ele>
        <time>2011-10-01T07:43:41Z</time>
      </trkpt>
      <trkpt lat="45.73954" lon="4.60534">
        <ele>830</ele>
        <time>2011-10-01T07:43:42Z</time>
      </trkpt>
      <trkpt lat="45.73954" lon="4.60539">
        <ele>830</ele>
        <time>2011-10-01T07:43:45Z</time>
      </trkpt>
      <trkpt lat="45.73953" lon="4.60547">
        <ele>831</ele>
        <time>2011-10-01T07:43:48Z</time>
      </trkpt>
      <trkpt lat="45.73952" lon="4.60549">
        <ele>831</ele>
        <time>2011-10-01T07:43:49Z</time>
      </trkpt>
      <trkpt lat="45.73952" lon="4.60551">
        <ele>831</ele>
        <time>2011-10-01T07:43:50Z</time>
      </trkpt>
      <trkpt lat="45.73952" lon="4.60554">
        <ele>831</ele>
        <time>2011-10-01T07:43:51Z</time>
      </trkpt>
      <trkpt lat="45.73952" lon="4.60556">
        <ele>831</ele>
        <time>2011-10-01T07:43:52Z</time>
      </trkpt>
      <trkpt lat="45.73952" lon="4.60565">
        <ele>832</ele>
        <time>2011-10-01T07:43:59Z</time>
      </trkpt>
      <trkpt lat="45.73951" lon="4.60567">
        <ele>833</ele>
        <time>2011-10-01T07:44:00Z</time>
      </trkpt>
      <trkpt lat="45.7395" lon="4.60575">
        <ele>833</ele>
        <time>2011-10-01T07:44:04Z</time>
      </trkpt>
      <trkpt lat="45.73947" lon="4.60575">
        <ele>833</ele>
        <time>2011-10-01T07:44:05Z</time>
      </trkpt>
      <trkpt lat="45.73945" lon="4.60578">
        <ele>833</ele>
        <time>2011-10-01T07:44:06Z</time>
      </trkpt>
      <trkpt lat="45.73945" lon="4.60581">
        <ele>834</ele>
        <time>2011-10-01T07:44:07Z</time>
      </trkpt>
      <trkpt lat="45.73945" lon="4.60584">
        <ele>834</ele>
        <time>2011-10-01T07:44:08Z</time>
      </trkpt>
      <trkpt lat="45.73944" lon="4.60588">
        <ele>834</ele>
        <time>2011-10-01T07:44:09Z</time>
      </trkpt>
      <trkpt lat="45.73943" lon="4.60591">
        <ele>834</ele>
        <time>2011-10-01T07:44:10Z</time>
      </trkpt>
      <trkpt lat="45.7394" lon="4.60608">
        <ele>835</ele>
        <time>2011-10-01T07:44:15Z</time>
      </trkpt>
      <trkpt lat="45.73937" lon="4.60612">
        <ele>835</ele>
        <time>2011-10-01T07:44:17Z</time>
      </trkpt>
      <trkpt lat="45.73936" lon="4.60614">
        <ele>835</ele>
        <time>2011-10-01T07:44:18Z</time>
      </trkpt>
      <trkpt lat="45.73932" lon="4.60619">
        <ele>836</ele>
        <time>2011-10-01T07:44:21Z</time>
      </trkpt>
      <trkpt lat="45.73932" lon="4.60623">
        <ele>836</ele>
        <time>2011-10-01T07:44:23Z</time>
      </trkpt>
      <trkpt lat="45.73928" lon="4.60636">
        <ele>837</ele>
        <time>2011-10-01T07:44:30Z</time>
      </trkpt>
      <trkpt lat="45.73927" lon="4.60637">
        <ele>837</ele>
        <time>2011-10-01T07:44:31Z</time>
      </trkpt>
      <trkpt lat="45.73927" lon="4.60644">
        <ele>838</ele>
        <time>2011-10-01T07:44:35Z</time>
      </trkpt>
      <trkpt lat="45.73933" lon="4.60656">
        <ele>839</ele>
        <time>2011-10-01T07:44:41Z</time>
      </trkpt>
      <trkpt lat="45.73935" lon="4.60658">
        <ele>839</ele>
        <time>2011-10-01T07:44:42Z</time>
      </trkpt>
      <trkpt lat="45.73942" lon="4.60661">
        <ele>840</ele>
        <time>2011-10-01T07:44:47Z</time>
      </trkpt>
      <trkpt lat="45.73946" lon="4.60661">
        <ele>840</ele>
        <time>2011-10-01T07:44:50Z</time>
      </trkpt>
      <trkpt lat="45.73948" lon="4.60662">
        <ele>840</ele>
        <time>2011-10-01T07:44:51Z</time>
      </trkpt>
      <trkpt lat="45.73953" lon="4.60664">
        <ele>841</ele>
        <time>2011-10-01T07:44:55Z</time>
      </trkpt>
      <trkpt lat="45.73958" lon="4.60669">
        <ele>843</ele>
        <time>2011-10-01T07:45:02Z</time>
      </trkpt>
      <trkpt lat="45.73959" lon="4.60672">
        <ele>844</ele>
        <time>2011-10-01T07:45:05Z</time>
      </trkpt>
      <trkpt lat="45.73961" lon="4.60675">
        <ele>845</ele>
        <time>2011-10-01T07:45:07Z</time>
      </trkpt>
      <trkpt lat="45.73964" lon="4.60682">
        <ele>846</ele>
        <time>2011-10-01T07:45:12Z</time>
      </trkpt>
      <trkpt lat="45.73966" lon="4.60688">
        <ele>847</ele>
        <time>2011-10-01T07:45:17Z</time>
      </trkpt>
      <trkpt lat="45.73971" lon="4.60694">
        <ele>847</ele>
        <time>2011-10-01T07:45:21Z</time>
      </trkpt>
      <trkpt lat="45.73977" lon="4.60702">
        <ele>848</ele>
        <time>2011-10-01T07:45:26Z</time>
      </trkpt>
      <trkpt lat="45.73977" lon="4.60703">
        <ele>848</ele>
        <time>2011-10-01T07:45:27Z</time>
      </trkpt>
      <trkpt lat="45.73982" lon="4.6071">
        <ele>850</ele>
        <time>2011-10-01T07:45:34Z</time>
      </trkpt>
      <trkpt lat="45.73982" lon="4.60711">
        <ele>850</ele>
        <time>2011-10-01T07:45:36Z</time>
      </trkpt>
      <trkpt lat="45.73983" lon="4.6072">
        <ele>852</ele>
        <time>2011-10-01T07:45:42Z</time>
      </trkpt>
      <trkpt lat="45.73985" lon="4.60723">
        <ele>852</ele>
        <time>2011-10-01T07:45:44Z</time>
      </trkpt>
      <trkpt lat="45.73986" lon="4.60731">
        <ele>853</ele>
        <time>2011-10-01T07:45:50Z</time>
      </trkpt>
      <trkpt lat="45.7399" lon="4.60742">
        <ele>855</ele>
        <time>2011-10-01T07:45:57Z</time>
      </trkpt>
      <trkpt lat="45.73991" lon="4.60745">
        <ele>856</ele>
        <time>2011-10-01T07:46:00Z</time>
      </trkpt>
      <trkpt lat="45.73994" lon="4.60752">
        <ele>857</ele>
        <time>2011-10-01T07:46:05Z</time>
      </trkpt>
      <trkpt lat="45.73996" lon="4.60757">
        <ele>858</ele>
        <time>2011-10-01T07:46:07Z</time>
      </trkpt>
      <trkpt lat="45.73999" lon="4.60765">
        <ele>858</ele>
        <time>2011-10-01T07:46:11Z</time>
      </trkpt>
      <trkpt lat="45.73998" lon="4.60769">
        <ele>859</ele>
        <time>2011-10-01T07:46:14Z</time>
      </trkpt>
      <trkpt lat="45.74" lon="4.60781">
        <ele>861</ele>
        <time>2011-10-01T07:46:21Z</time>
      </trkpt>
      <trkpt lat="45.73999" lon="4.6079">
        <ele>862</ele>
        <time>2011-10-01T07:46:28Z</time>
      </trkpt>
      <trkpt lat="45.74003" lon="4.60792">
        <ele>862</ele>
        <time>2011-10-01T07:46:32Z</time>
      </trkpt>
      <trkpt lat="45.74006" lon="4.60795">
        <ele>862</ele>
        <time>2011-10-01T07:46:35Z</time>
      </trkpt>
      <trkpt lat="45.74004" lon="4.60803">
        <ele>864</ele>
        <time>2011-10-01T07:46:40Z</time>
      </trkpt>
      <trkpt lat="45.74005" lon="4.60812">
        <ele>865</ele>
        <time>2011-10-01T07:46:46Z</time>
      </trkpt>
      <trkpt lat="45.74005" lon="4.60813">
        <ele>865</ele>
        <time>2011-10-01T07:46:47Z</time>
      </trkpt>
      <trkpt lat="45.74004" lon="4.60824">
        <ele>867</ele>
        <time>2011-10-01T07:46:53Z</time>
      </trkpt>
      <trkpt lat="45.74004" lon="4.60826">
        <ele>867</ele>
        <time>2011-10-01T07:46:54Z</time>
      </trkpt>
      <trkpt lat="45.74005" lon="4.6084">
        <ele>868</ele>
        <time>2011-10-01T07:47:01Z</time>
      </trkpt>
      <trkpt lat="45.74007" lon="4.60846">
        <ele>869</ele>
        <time>2011-10-01T07:47:04Z</time>
      </trkpt>
      <trkpt lat="45.74011" lon="4.60849">
        <ele>870</ele>
        <time>2011-10-01T07:47:12Z</time>
      </trkpt>
      <trkpt lat="45.74011" lon="4.6085">
        <ele>869</ele>
        <time>2011-10-01T07:47:13Z</time>
      </trkpt>
      <trkpt lat="45.7401" lon="4.60855">
        <ele>870</ele>
        <time>2011-10-01T07:47:20Z</time>
      </trkpt>
      <trkpt lat="45.74011" lon="4.60856">
        <ele>870</ele>
        <time>2011-10-01T07:47:33Z</time>
      </trkpt>
      <trkpt lat="45.74011" lon="4.6086">
        <ele>870</ele>
        <time>2011-10-01T07:47:36Z</time>
      </trkpt>
      <trkpt lat="45.74017" lon="4.60866">
        <ele>870</ele>
        <time>2011-10-01T07:47:40Z</time>
      </trkpt>
      <trkpt lat="45.74018" lon="4.60871">
        <ele>869</ele>
        <time>2011-10-01T07:47:42Z</time>
      </trkpt>
      <trkpt lat="45.74016" lon="4.60876">
        <ele>869</ele>
        <time>2011-10-01T07:47:49Z</time>
      </trkpt>
      <trkpt lat="45.74016" lon="4.60879">
        <ele>870</ele>
        <time>2011-10-01T07:47:56Z</time>
      </trkpt>
      <trkpt lat="45.74015" lon="4.60881">
        <ele>870</ele>
        <time>2011-10-01T07:48:02Z</time>
      </trkpt>
      <trkpt lat="45.74015" lon="4.60885">
        <ele>870</ele>
        <time>2011-10-01T07:48:08Z</time>
      </trkpt>
      <trkpt lat="45.74014" lon="4.60887">
        <ele>870</ele>
        <time>2011-10-01T07:48:15Z</time>
      </trkpt>
      <trkpt lat="45.74014" lon="4.60887">
        <ele>870</ele>
        <time>2011-10-01T07:48:27Z</time>
      </trkpt>
      <trkpt lat="45.74014" lon="4.60887">
        <ele>869</ele>
        <time>2011-10-01T07:48:41Z</time>
      </trkpt>
      <trkpt lat="45.74013" lon="4.60889">
        <ele>870</ele>
        <time>2011-10-01T07:48:49Z</time>
      </trkpt>
      <trkpt lat="45.74009" lon="4.60895">
        <ele>870</ele>
        <time>2011-10-01T07:48:56Z</time>
      </trkpt>
      <trkpt lat="45.74009" lon="4.60895">
        <ele>869</ele>
        <time>2011-10-01T07:49:12Z</time>
      </trkpt>
      <trkpt lat="45.74009" lon="4.60895">
        <ele>869</ele>
        <time>2011-10-01T07:49:28Z</time>
      </trkpt>
      <trkpt lat="45.74009" lon="4.60895">
        <ele>870</ele>
        <time>2011-10-01T07:49:46Z</time>
      </trkpt>
      <trkpt lat="45.74009" lon="4.60895">
        <ele>870</ele>
        <time>2011-10-01T07:50:00Z</time>
      </trkpt>
      <trkpt lat="45.74009" lon="4.60895">
        <ele>870</ele>
        <time>2011-10-01T07:50:12Z</time>
      </trkpt>
      <trkpt lat="45.74009" lon="4.60904">
        <ele>870</ele>
        <time>2011-10-01T07:50:16Z</time>
      </trkpt>
      <trkpt lat="45.74014" lon="4.60923">
        <ele>867</ele>
        <time>2011-10-01T07:50:21Z</time>
      </trkpt>
      <trkpt lat="45.74012" lon="4.60933">
        <ele>865</ele>
        <time>2011-10-01T07:50:24Z</time>
      </trkpt>
      <trkpt lat="45.74011" lon="4.60948">
        <ele>861</ele>
        <time>2011-10-01T07:50:28Z</time>
      </trkpt>
      <trkpt lat="45.74014" lon="4.60956">
        <ele>860</ele>
        <time>2011-10-01T07:50:31Z</time>
      </trkpt>
      <trkpt lat="45.74017" lon="4.60961">
        <ele>858</ele>
        <time>2011-10-01T07:50:34Z</time>
      </trkpt>
      <trkpt lat="45.74018" lon="4.60968">
        <ele>855</ele>
        <time>2011-10-01T07:50:37Z</time>
      </trkpt>
      <trkpt lat="45.74022" lon="4.60971">
        <ele>853</ele>
        <time>2011-10-01T07:50:40Z</time>
      </trkpt>
      <trkpt lat="45.74028" lon="4.60979">
        <ele>850</ele>
        <time>2011-10-01T07:50:46Z</time>
      </trkpt>
      <trkpt lat="45.74034" lon="4.60993">
        <ele>847</ele>
        <time>2011-10-01T07:50:52Z</time>
      </trkpt>
      <trkpt lat="45.74035" lon="4.60998">
        <ele>844</ele>
        <time>2011-10-01T07:50:56Z</time>
      </trkpt>
      <trkpt lat="45.74038" lon="4.61">
        <ele>845</ele>
        <time>2011-10-01T07:51:03Z</time>
      </trkpt>
      <trkpt lat="45.74038" lon="4.61">
        <ele>844</ele>
        <time>2011-10-01T07:51:14Z</time>
      </trkpt>
      <trkpt lat="45.74038" lon="4.61">
        <ele>844</ele>
        <time>2011-10-01T07:51:23Z</time>
      </trkpt>
      <trkpt lat="45.74037" lon="4.61002">
        <ele>844</ele>
        <time>2011-10-01T07:51:32Z</time>
      </trkpt>
      <trkpt lat="45.74038" lon="4.61002">
        <ele>845</ele>
        <time>2011-10-01T07:51:41Z</time>
      </trkpt>
      <trkpt lat="45.74038" lon="4.61002">
        <ele>844</ele>
        <time>2011-10-01T07:51:57Z</time>
      </trkpt>
      <trkpt lat="45.74038" lon="4.61002">
        <ele>844</ele>
        <time>2011-10-01T07:52:06Z</time>
      </trkpt>
      <trkpt lat="45.74038" lon="4.61002">
        <ele>845</ele>
        <time>2011-10-01T07:52:17Z</time>
      </trkpt>
      <trkpt lat="45.74038" lon="4.61002">
        <ele>844</ele>
        <time>2011-10-01T07:52:30Z</time>
      </trkpt>
      <trkpt lat="45.74037" lon="4.61003">
        <ele>845</ele>
        <time>2011-10-01T07:52:36Z</time>
      </trkpt>
      <trkpt lat="45.74037" lon="4.61003">
        <ele>844</ele>
        <time>2011-10-01T07:52:49Z</time>
      </trkpt>
      <trkpt lat="45.74037" lon="4.61003">
        <ele>845</ele>
        <time>2011-10-01T07:53:00Z</time>
      </trkpt>
      <trkpt lat="45.74036" lon="4.61002">
        <ele>845</ele>
        <time>2011-10-01T07:53:15Z</time>
      </trkpt>
      <trkpt lat="45.74036" lon="4.61002">
        <ele>845</ele>
        <time>2011-10-01T07:53:29Z</time>
      </trkpt>
      <trkpt lat="45.74036" lon="4.61002">
        <ele>845</ele>
        <time>2011-10-01T07:53:44Z</time>
      </trkpt>
      <trkpt lat="45.74036" lon="4.61002">
        <ele>845</ele>
        <time>2011-10-01T07:53:55Z</time>
      </trkpt>
      <trkpt lat="45.74036" lon="4.61002">
        <ele>845</ele>
        <time>2011-10-01T07:54:13Z</time>
      </trkpt>
      <trkpt lat="45.74036" lon="4.61002">
        <ele>846</ele>
        <time>2011-10-01T07:54:31Z</time>
      </trkpt>
      <trkpt lat="45.74036" lon="4.61003">
        <ele>846</ele>
        <time>2011-10-01T07:54:56Z</time>
      </trkpt>
      <trkpt lat="45.74036" lon="4.61003">
        <ele>846</ele>
        <time>2011-10-01T07:55:19Z</time>
      </trkpt>
      <trkpt lat="45.74036" lon="4.61003">
        <ele>845</ele>
        <time>2011-10-01T07:55:40Z</time>
      </trkpt>
      <trkpt lat="45.74036" lon="4.61003">
        <ele>846</ele>
        <time>2011-10-01T07:55:58Z</time>
      </trkpt>
      <trkpt lat="45.74036" lon="4.61003">
        <ele>845</ele>
        <time>2011-10-01T07:56:11Z</time>
      </trkpt>
      <trkpt lat="45.74036" lon="4.61003">
        <ele>846</ele>
        <time>2011-10-01T07:56:29Z</time>
      </trkpt>
      <trkpt lat="45.74036" lon="4.61003">
        <ele>845</ele>
        <time>2011-10-01T07:56:42Z</time>
      </trkpt>
      <trkpt lat="45.74036" lon="4.61003">
        <ele>846</ele>
        <time>2011-10-01T07:56:58Z</time>
      </trkpt>
      <trkpt lat="45.74036" lon="4.61004">
        <ele>846</ele>
        <time>2011-10-01T07:57:17Z</time>
      </trkpt>
      <trkpt lat="45.74036" lon="4.61004">
        <ele>846</ele>
        <time>2011-10-01T07:57:35Z</time>
      </trkpt>
      <trkpt lat="45.74036" lon="4.61005">
        <ele>847</ele>
        <time>2011-10-01T07:57:52Z</time>
      </trkpt>
      <trkpt lat="45.74036" lon="4.61005">
        <ele>846</ele>
        <time>2011-10-01T07:58:08Z</time>
      </trkpt>
      <trkpt lat="45.74036" lon="4.61005">
        <ele>847</ele>
        <time>2011-10-01T07:58:21Z</time>
      </trkpt>
      <trkpt lat="45.74035" lon="4.61004">
        <ele>846</ele>
        <time>2011-10-01T07:58:37Z</time>
      </trkpt>
      <trkpt lat="45.74035" lon="4.61004">
        <ele>846</ele>
        <time>2011-10-01T07:58:54Z</time>
      </trkpt>
      <trkpt lat="45.74035" lon="4.61004">
        <ele>846</ele>
        <time>2011-10-01T07:59:12Z</time>
      </trkpt>
      <trkpt lat="45.74035" lon="4.61004">
        <ele>846</ele>
        <time>2011-10-01T07:59:29Z</time>
      </trkpt>
      <trkpt lat="45.74035" lon="4.61004">
        <ele>846</ele>
        <time>2011-10-01T07:59:46Z</time>
      </trkpt>
      <trkpt lat="45.74035" lon="4.61004">
        <ele>847</ele>
        <time>2011-10-01T08:00:04Z</time>
      </trkpt>
      <trkpt lat="45.74035" lon="4.61004">
        <ele>847</ele>
        <time>2011-10-01T08:00:23Z</time>
      </trkpt>
      <trkpt lat="45.74035" lon="4.61004">
        <ele>846</ele>
        <time>2011-10-01T08:00:41Z</time>
      </trkpt>
      <trkpt lat="45.74035" lon="4.61004">
        <ele>847</ele>
        <time>2011-10-01T08:01:03Z</time>
      </trkpt>
      <trkpt lat="45.74035" lon="4.61004">
        <ele>847</ele>
        <time>2011-10-01T08:01:23Z</time>
      </trkpt>
      <trkpt lat="45.74035" lon="4.61004">
        <ele>843</ele>
        <time>2011-10-01T08:01:26Z</time>
      </trkpt>
      <trkpt lat="45.74035" lon="4.61004">
        <ele>848</ele>
        <time>2011-10-01T08:01:27Z</time>
      </trkpt>
      <trkpt lat="45.74035" lon="4.61004">
        <ele>847</ele>
        <time>2011-10-01T08:01:41Z</time>
      </trkpt>
      <trkpt lat="45.74034" lon="4.61003">
        <ele>847</ele>
        <time>2011-10-01T08:02:01Z</time>
      </trkpt>
      <trkpt lat="45.74034" lon="4.61003">
        <ele>847</ele>
        <time>2011-10-01T08:02:18Z</time>
      </trkpt>
      <trkpt lat="45.74034" lon="4.61005">
        <ele>847</ele>
        <time>2011-10-01T08:02:35Z</time>
      </trkpt>
      <trkpt lat="45.74034" lon="4.61005">
        <ele>847</ele>
        <time>2011-10-01T08:02:53Z</time>
      </trkpt>
      <trkpt lat="45.74034" lon="4.61005">
        <ele>847</ele>
        <time>2011-10-01T08:03:11Z</time>
      </trkpt>
      <trkpt lat="45.74034" lon="4.61004">
        <ele>848</ele>
        <time>2011-10-01T08:03:31Z</time>
      </trkpt>
      <trkpt lat="45.74034" lon="4.61004">
        <ele>847</ele>
        <time>2011-10-01T08:03:46Z</time>
      </trkpt>
      <trkpt lat="45.74034" lon="4.61004">
        <ele>847</ele>
        <time>2011-10-01T08:03:57Z</time>
      </trkpt>
      <trkpt lat="45.74034" lon="4.61004">
        <ele>847</ele>
        <time>2011-10-01T08:04:06Z</time>
      </trkpt>
      <trkpt lat="45.74034" lon="4.61004">
        <ele>847</ele>
        <time>2011-10-01T08:04:17Z</time>
      </trkpt>
      <trkpt lat="45.74034" lon="4.61005">
        <ele>847</ele>
        <time>2011-10-01T08:04:25Z</time>
      </trkpt>
      <trkpt lat="45.74034" lon="4.61007">
        <ele>847</ele>
        <time>2011-10-01T08:04:34Z</time>
      </trkpt>
      <trkpt lat="45.74034" lon="4.61009">
        <ele>846</ele>
        <time>2011-10-01T08:04:42Z</time>
      </trkpt>
      <trkpt lat="45.74038" lon="4.61011">
        <ele>845</ele>
        <time>2011-10-01T08:04:49Z</time>
      </trkpt>
      <trkpt lat="45.74038" lon="4.61011">
        <ele>844</ele>
        <time>2011-10-01T08:04:51Z</time>
      </trkpt>
      <trkpt lat="45.74039" lon="4.61012">
        <ele>844</ele>
        <time>2011-10-01T08:04:58Z</time>
      </trkpt>
      <trkpt lat="45.74039" lon="4.61012">
        <ele>844</ele>
        <time>2011-10-01T08:05:02Z</time>
      </trkpt>
      <trkpt lat="45.74041" lon="4.61017">
        <ele>842</ele>
        <time>2011-10-01T08:05:07Z</time>
      </trkpt>
      <trkpt lat="45.74044" lon="4.61019">
        <ele>840</ele>
        <time>2011-10-01T08:05:09Z</time>
      </trkpt>
      <trkpt lat="45.74047" lon="4.61022">
        <ele>839</ele>
        <time>2011-10-01T08:05:11Z</time>
      </trkpt>
      <trkpt lat="45.74047" lon="4.61023">
        <ele>838</ele>
        <time>2011-10-01T08:05:12Z</time>
      </trkpt>
      <trkpt lat="45.74055" lon="4.6103">
        <ele>834</ele>
        <time>2011-10-01T08:05:19Z</time>
      </trkpt>
      <trkpt lat="45.74056" lon="4.61033">
        <ele>832</ele>
        <time>2011-10-01T08:05:25Z</time>
      </trkpt>
      <trkpt lat="45.74059" lon="4.61034">
        <ele>830</ele>
        <time>2011-10-01T08:05:28Z</time>
      </trkpt>
      <trkpt lat="45.74061" lon="4.61036">
        <ele>829</ele>
        <time>2011-10-01T08:05:30Z</time>
      </trkpt>
      <trkpt lat="45.74065" lon="4.61039">
        <ele>828</ele>
        <time>2011-10-01T08:05:34Z</time>
      </trkpt>
      <trkpt lat="45.74069" lon="4.61042">
        <ele>826</ele>
        <time>2011-10-01T08:05:38Z</time>
      </trkpt>
      <trkpt lat="45.7407" lon="4.61045">
        <ele>825</ele>
        <time>2011-10-01T08:05:44Z</time>
      </trkpt>
      <trkpt lat="45.7407" lon="4.61045">
        <ele>824</ele>
        <time>2011-10-01T08:05:50Z</time>
      </trkpt>
      <trkpt lat="45.74075" lon="4.61049">
        <ele>822</ele>
        <time>2011-10-01T08:05:57Z</time>
      </trkpt>
      <trkpt lat="45.74076" lon="4.6105">
        <ele>822</ele>
        <time>2011-10-01T08:05:58Z</time>
      </trkpt>
      <trkpt lat="45.74084" lon="4.61055">
        <ele>821</ele>
        <time>2011-10-01T08:06:04Z</time>
      </trkpt>
      <trkpt lat="45.74089" lon="4.61057">
        <ele>819</ele>
        <time>2011-10-01T08:06:07Z</time>
      </trkpt>
      <trkpt lat="45.74093" lon="4.61062">
        <ele>818</ele>
        <time>2011-10-01T08:06:10Z</time>
      </trkpt>
      <trkpt lat="45.74092" lon="4.61069">
        <ele>817</ele>
        <time>2011-10-01T08:06:16Z</time>
      </trkpt>
      <trkpt lat="45.74094" lon="4.6107">
        <ele>815</ele>
        <time>2011-10-01T08:06:22Z</time>
      </trkpt>
      <trkpt lat="45.74094" lon="4.6107">
        <ele>814</ele>
        <time>2011-10-01T08:06:28Z</time>
      </trkpt>
      <trkpt lat="45.74098" lon="4.61075">
        <ele>811</ele>
        <time>2011-10-01T08:06:32Z</time>
      </trkpt>
      <trkpt lat="45.74101" lon="4.61078">
        <ele>811</ele>
        <time>2011-10-01T08:06:34Z</time>
      </trkpt>
      <trkpt lat="45.7411" lon="4.61083">
        <ele>808</ele>
        <time>2011-10-01T08:06:38Z</time>
      </trkpt>
      <trkpt lat="45.74123" lon="4.61085">
        <ele>806</ele>
        <time>2011-10-01T08:06:47Z</time>
      </trkpt>
      <trkpt lat="45.74123" lon="4.61085">
        <ele>805</ele>
        <time>2011-10-01T08:06:54Z</time>
      </trkpt>
      <trkpt lat="45.74123" lon="4.61086">
        <ele>805</ele>
        <time>2011-10-01T08:07:00Z</time>
      </trkpt>
      <trkpt lat="45.74123" lon="4.61088">
        <ele>805</ele>
        <time>2011-10-01T08:07:08Z</time>
      </trkpt>
      <trkpt lat="45.74123" lon="4.61088">
        <ele>805</ele>
        <time>2011-10-01T08:07:10Z</time>
      </trkpt>
      <trkpt lat="45.7412" lon="4.61095">
        <ele>804</ele>
        <time>2011-10-01T08:07:17Z</time>
      </trkpt>
      <trkpt lat="45.7412" lon="4.61097">
        <ele>804</ele>
        <time>2011-10-01T08:07:28Z</time>
      </trkpt>
      <trkpt lat="45.7412" lon="4.61098">
        <ele>804</ele>
        <time>2011-10-01T08:07:36Z</time>
      </trkpt>
      <trkpt lat="45.7412" lon="4.61099">
        <ele>803</ele>
        <time>2011-10-01T08:07:43Z</time>
      </trkpt>
      <trkpt lat="45.74122" lon="4.61103">
        <ele>802</ele>
        <time>2011-10-01T08:07:49Z</time>
      </trkpt>
      <trkpt lat="45.74121" lon="4.61104">
        <ele>801</ele>
        <time>2011-10-01T08:07:55Z</time>
      </trkpt>
      <trkpt lat="45.74121" lon="4.61104">
        <ele>801</ele>
        <time>2011-10-01T08:08:03Z</time>
      </trkpt>
      <trkpt lat="45.74121" lon="4.61104">
        <ele>799</ele>
        <time>2011-10-01T08:08:11Z</time>
      </trkpt>
      <trkpt lat="45.74121" lon="4.61104">
        <ele>799</ele>
        <time>2011-10-01T08:08:18Z</time>
      </trkpt>
      <trkpt lat="45.74121" lon="4.61104">
        <ele>797</ele>
        <time>2011-10-01T08:08:27Z</time>
      </trkpt>
      <trkpt lat="45.74122" lon="4.61105">
        <ele>797</ele>
        <time>2011-10-01T08:08:35Z</time>
      </trkpt>
      <trkpt lat="45.74122" lon="4.61105">
        <ele>796</ele>
        <time>2011-10-01T08:08:36Z</time>
      </trkpt>
      <trkpt lat="45.7412" lon="4.61109">
        <ele>795</ele>
        <time>2011-10-01T08:08:41Z</time>
      </trkpt>
      <trkpt lat="45.74117" lon="4.61115">
        <ele>793</ele>
        <time>2011-10-01T08:08:49Z</time>
      </trkpt>
      <trkpt lat="45.74117" lon="4.61115">
        <ele>791</ele>
        <time>2011-10-01T08:08:56Z</time>
      </trkpt>
      <trkpt lat="45.74117" lon="4.61115">
        <ele>790</ele>
        <time>2011-10-01T08:09:05Z</time>
      </trkpt>
      <trkpt lat="45.74122" lon="4.6112">
        <ele>791</ele>
        <time>2011-10-01T08:09:09Z</time>
      </trkpt>
      <trkpt lat="45.74142" lon="4.61145">
        <ele>789</ele>
        <time>2011-10-01T08:09:15Z</time>
      </trkpt>
      <trkpt lat="45.74144" lon="4.61147">
        <ele>789</ele>
        <time>2011-10-01T08:09:16Z</time>
      </trkpt>
      <trkpt lat="45.74144" lon="4.6116">
        <ele>787</ele>
        <time>2011-10-01T08:09:20Z</time>
      </trkpt>
      <trkpt lat="45.74139" lon="4.61173">
        <ele>786</ele>
        <time>2011-10-01T08:09:24Z</time>
      </trkpt>
      <trkpt lat="45.74131" lon="4.6119">
        <ele>785</ele>
        <time>2011-10-01T08:09:28Z</time>
      </trkpt>
      <trkpt lat="45.74128" lon="4.61196">
        <ele>784</ele>
        <time>2011-10-01T08:09:29Z</time>
      </trkpt>
      <trkpt lat="45.74124" lon="4.612">
        <ele>784</ele>
        <time>2011-10-01T08:09:30Z</time>
      </trkpt>
      <trkpt lat="45.74119" lon="4.61205">
        <ele>783</ele>
        <time>2011-10-01T08:09:31Z</time>
      </trkpt>
      <trkpt lat="45.74115" lon="4.6121">
        <ele>783</ele>
        <time>2011-10-01T08:09:32Z</time>
      </trkpt>
      <trkpt lat="45.7411" lon="4.61214">
        <ele>782</ele>
        <time>2011-10-01T08:09:33Z</time>
      </trkpt>
      <trkpt lat="45.74108" lon="4.61217">
        <ele>782</ele>
        <time>2011-10-01T08:09:34Z</time>
      </trkpt>
      <trkpt lat="45.74106" lon="4.61221">
        <ele>781</ele>
        <time>2011-10-01T08:09:35Z</time>
      </trkpt>
      <trkpt lat="45.741" lon="4.61231">
        <ele>780</ele>
        <time>2011-10-01T08:09:38Z</time>
      </trkpt>
      <trkpt lat="45.74094" lon="4.6125">
        <ele>780</ele>
        <time>2011-10-01T08:09:43Z</time>
      </trkpt>
      <trkpt lat="45.74096" lon="4.61254">
        <ele>780</ele>
        <time>2011-10-01T08:09:49Z</time>
      </trkpt>
      <trkpt lat="45.74096" lon="4.61254">
        <ele>780</ele>
        <time>2011-10-01T08:09:58Z</time>
      </trkpt>
      <trkpt lat="45.74098" lon="4.61261">
        <ele>780</ele>
        <time>2011-10-01T08:10:03Z</time>
      </trkpt>
      <trkpt lat="45.74098" lon="4.61265">
        <ele>779</ele>
        <time>2011-10-01T08:10:04Z</time>
      </trkpt>
      <trkpt lat="45.74097" lon="4.61269">
        <ele>780</ele>
        <time>2011-10-01T08:10:05Z</time>
      </trkpt>
      <trkpt lat="45.74095" lon="4.61274">
        <ele>778</ele>
        <time>2011-10-01T08:10:06Z</time>
      </trkpt>
      <trkpt lat="45.74093" lon="4.61279">
        <ele>779</ele>
        <time>2011-10-01T08:10:07Z</time>
      </trkpt>
      <trkpt lat="45.7409" lon="4.61285">
        <ele>778</ele>
        <time>2011-10-01T08:10:08Z</time>
      </trkpt>
      <trkpt lat="45.74086" lon="4.6129">
        <ele>778</ele>
        <time>2011-10-01T08:10:09Z</time>
      </trkpt>
      <trkpt lat="45.74082" lon="4.61295">
        <ele>777</ele>
        <time>2011-10-01T08:10:10Z</time>
      </trkpt>
      <trkpt lat="45.74078" lon="4.613">
        <ele>775</ele>
        <time>2011-10-01T08:10:11Z</time>
      </trkpt>
      <trkpt lat="45.74067" lon="4.61312">
        <ele>776</ele>
        <time>2011-10-01T08:10:13Z</time>
      </trkpt>
      <trkpt lat="45.74063" lon="4.61319">
        <ele>774</ele>
        <time>2011-10-01T08:10:14Z</time>
      </trkpt>
      <trkpt lat="45.74058" lon="4.61326">
        <ele>775</ele>
        <time>2011-10-01T08:10:15Z</time>
      </trkpt>
      <trkpt lat="45.74048" lon="4.61343">
        <ele>773</ele>
        <time>2011-10-01T08:10:17Z</time>
      </trkpt>
      <trkpt lat="45.74036" lon="4.61362">
        <ele>771</ele>
        <time>2011-10-01T08:10:19Z</time>
      </trkpt>
      <trkpt lat="45.7403" lon="4.61371">
        <ele>770</ele>
        <time>2011-10-01T08:10:20Z</time>
      </trkpt>
      <trkpt lat="45.74016" lon="4.61386">
        <ele>767</ele>
        <time>2011-10-01T08:10:22Z</time>
      </trkpt>
      <trkpt lat="45.74" lon="4.61399">
        <ele>764</ele>
        <time>2011-10-01T08:10:24Z</time>
      </trkpt>
      <trkpt lat="45.73992" lon="4.61403">
        <ele>762</ele>
        <time>2011-10-01T08:10:25Z</time>
      </trkpt>
      <trkpt lat="45.73983" lon="4.61406">
        <ele>762</ele>
        <time>2011-10-01T08:10:26Z</time>
      </trkpt>
      <trkpt lat="45.73965" lon="4.6141">
        <ele>761</ele>
        <time>2011-10-01T08:10:28Z</time>
      </trkpt>
      <trkpt lat="45.73955" lon="4.61412">
        <ele>760</ele>
        <time>2011-10-01T08:10:29Z</time>
      </trkpt>
      <trkpt lat="45.73944" lon="4.61415">
        <ele>760</ele>
        <time>2011-10-01T08:10:30Z</time>
      </trkpt>
      <trkpt lat="45.73934" lon="4.61419">
        <ele>758</ele>
        <time>2011-10-01T08:10:31Z</time>
      </trkpt>
      <trkpt lat="45.73923" lon="4.61424">
        <ele>759</ele>
        <time>2011-10-01T08:10:32Z</time>
      </trkpt>
      <trkpt lat="45.73887" lon="4.61449">
        <ele>757</ele>
        <time>2011-10-01T08:10:36Z</time>
      </trkpt>
      <trkpt lat="45.7388" lon="4.61457">
        <ele>756</ele>
        <time>2011-10-01T08:10:37Z</time>
      </trkpt>
      <trkpt lat="45.73846" lon="4.61512">
        <ele>754</ele>
        <time>2011-10-01T08:10:43Z</time>
      </trkpt>
      <trkpt lat="45.73839" lon="4.61519">
        <ele>754</ele>
        <time>2011-10-01T08:10:44Z</time>
      </trkpt>
      <trkpt lat="45.73834" lon="4.61527">
        <ele>754</ele>
        <time>2011-10-01T08:10:45Z</time>
      </trkpt>
      <trkpt lat="45.73827" lon="4.61531">
        <ele>753</ele>
        <time>2011-10-01T08:10:46Z</time>
      </trkpt>
      <trkpt lat="45.73821" lon="4.61536">
        <ele>753</ele>
        <time>2011-10-01T08:10:47Z</time>
      </trkpt>
      <trkpt lat="45.73814" lon="4.61538">
        <ele>754</ele>
        <time>2011-10-01T08:10:48Z</time>
      </trkpt>
      <trkpt lat="45.73808" lon="4.61539">
        <ele>753</ele>
        <time>2011-10-01T08:10:49Z</time>
      </trkpt>
      <trkpt lat="45.73802" lon="4.6154">
        <ele>753</ele>
        <time>2011-10-01T08:10:50Z</time>
      </trkpt>
      <trkpt lat="45.73755" lon="4.61541">
        <ele>750</ele>
        <time>2011-10-01T08:10:57Z</time>
      </trkpt>
      <trkpt lat="45.73748" lon="4.61541">
        <ele>750</ele>
        <time>2011-10-01T08:10:58Z</time>
      </trkpt>
      <trkpt lat="45.73741" lon="4.61543">
        <ele>748</ele>
        <time>2011-10-01T08:10:59Z</time>
      </trkpt>
      <trkpt lat="45.73733" lon="4.61546">
        <ele>747</ele>
        <time>2011-10-01T08:11:00Z</time>
      </trkpt>
      <trkpt lat="45.73725" lon="4.6155">
        <ele>746</ele>
        <time>2011-10-01T08:11:01Z</time>
      </trkpt>
      <trkpt lat="45.73718" lon="4.61556">
        <ele>745</ele>
        <time>2011-10-01T08:11:02Z</time>
      </trkpt>
      <trkpt lat="45.7371" lon="4.61564">
        <ele>744</ele>
        <time>2011-10-01T08:11:03Z</time>
      </trkpt>
      <trkpt lat="45.73705" lon="4.61577">
        <ele>743</ele>
        <time>2011-10-01T08:11:04Z</time>
      </trkpt>
      <trkpt lat="45.73699" lon="4.61591">
        <ele>742</ele>
        <time>2011-10-01T08:11:05Z</time>
      </trkpt>
      <trkpt lat="45.73693" lon="4.61605">
        <ele>740</ele>
        <time>2011-10-01T08:11:06Z</time>
      </trkpt>
      <trkpt lat="45.73687" lon="4.61616">
        <ele>739</ele>
        <time>2011-10-01T08:11:07Z</time>
      </trkpt>
      <trkpt lat="45.73681" lon="4.61626">
        <ele>737</ele>
        <time>2011-10-01T08:11:08Z</time>
      </trkpt>
      <trkpt lat="45.73676" lon="4.61634">
        <ele>736</ele>
        <time>2011-10-01T08:11:09Z</time>
      </trkpt>
      <trkpt lat="45.73673" lon="4.61643">
        <ele>734</ele>
        <time>2011-10-01T08:11:10Z</time>
      </trkpt>
      <trkpt lat="45.73672" lon="4.61653">
        <ele>734</ele>
        <time>2011-10-01T08:11:11Z</time>
      </trkpt>
      <trkpt lat="45.73672" lon="4.61663">
        <ele>733</ele>
        <time>2011-10-01T08:11:12Z</time>
      </trkpt>
      <trkpt lat="45.7367" lon="4.61674">
        <ele>733</ele>
        <time>2011-10-01T08:11:13Z</time>
      </trkpt>
      <trkpt lat="45.73668" lon="4.61683">
        <ele>733</ele>
        <time>2011-10-01T08:11:14Z</time>
      </trkpt>
      <trkpt lat="45.73664" lon="4.61691">
        <ele>733</ele>
        <time>2011-10-01T08:11:15Z</time>
      </trkpt>
      <trkpt lat="45.73661" lon="4.61698">
        <ele>732</ele>
        <time>2011-10-01T08:11:16Z</time>
      </trkpt>
      <trkpt lat="45.73656" lon="4.61704">
        <ele>732</ele>
        <time>2011-10-01T08:11:17Z</time>
      </trkpt>
      <trkpt lat="45.73634" lon="4.61735">
        <ele>732</ele>
        <time>2011-10-01T08:11:23Z</time>
      </trkpt>
      <trkpt lat="45.7363" lon="4.61739">
        <ele>731</ele>
        <time>2011-10-01T08:11:24Z</time>
      </trkpt>
      <trkpt lat="45.73627" lon="4.61742">
        <ele>732</ele>
        <time>2011-10-01T08:11:25Z</time>
      </trkpt>
      <trkpt lat="45.73599" lon="4.61772">
        <ele>733</ele>
        <time>2011-10-01T08:11:34Z</time>
      </trkpt>
      <trkpt lat="45.73585" lon="4.61796">
        <ele>733</ele>
        <time>2011-10-01T08:11:40Z</time>
      </trkpt>
      <trkpt lat="45.73584" lon="4.61801">
        <ele>733</ele>
        <time>2011-10-01T08:11:41Z</time>
      </trkpt>
      <trkpt lat="45.73582" lon="4.61807">
        <ele>733</ele>
        <time>2011-10-01T08:11:42Z</time>
      </trkpt>
      <trkpt lat="45.73573" lon="4.61844">
        <ele>733</ele>
        <time>2011-10-01T08:11:49Z</time>
      </trkpt>
      <trkpt lat="45.73569" lon="4.61881">
        <ele>733</ele>
        <time>2011-10-01T08:11:56Z</time>
      </trkpt>
      <trkpt lat="45.73563" lon="4.61907">
        <ele>733</ele>
        <time>2011-10-01T08:12:02Z</time>
      </trkpt>
      <trkpt lat="45.73561" lon="4.61936">
        <ele>731</ele>
        <time>2011-10-01T08:12:07Z</time>
      </trkpt>
      <trkpt lat="45.73555" lon="4.61993">
        <ele>731</ele>
        <time>2011-10-01T08:12:15Z</time>
      </trkpt>
      <trkpt lat="45.7355" lon="4.62041">
        <ele>730</ele>
        <time>2011-10-01T08:12:22Z</time>
      </trkpt>
      <trkpt lat="45.7355" lon="4.62047">
        <ele>730</ele>
        <time>2011-10-01T08:12:23Z</time>
      </trkpt>
      <trkpt lat="45.73549" lon="4.62054">
        <ele>729</ele>
        <time>2011-10-01T08:12:24Z</time>
      </trkpt>
      <trkpt lat="45.73545" lon="4.62092">
        <ele>730</ele>
        <time>2011-10-01T08:12:30Z</time>
      </trkpt>
      <trkpt lat="45.73544" lon="4.62098">
        <ele>729</ele>
        <time>2011-10-01T08:12:31Z</time>
      </trkpt>
      <trkpt lat="45.7354" lon="4.62133">
        <ele>729</ele>
        <time>2011-10-01T08:12:37Z</time>
      </trkpt>
      <trkpt lat="45.73532" lon="4.62194">
        <ele>726</ele>
        <time>2011-10-01T08:12:44Z</time>
      </trkpt>
      <trkpt lat="45.73527" lon="4.62243">
        <ele>724</ele>
        <time>2011-10-01T08:12:49Z</time>
      </trkpt>
      <trkpt lat="45.73529" lon="4.62252">
        <ele>724</ele>
        <time>2011-10-01T08:12:50Z</time>
      </trkpt>
      <trkpt lat="45.73532" lon="4.62271">
        <ele>723</ele>
        <time>2011-10-01T08:12:52Z</time>
      </trkpt>
      <trkpt lat="45.73534" lon="4.62282">
        <ele>723</ele>
        <time>2011-10-01T08:12:53Z</time>
      </trkpt>
      <trkpt lat="45.73536" lon="4.62292">
        <ele>722</ele>
        <time>2011-10-01T08:12:54Z</time>
      </trkpt>
      <trkpt lat="45.73537" lon="4.62303">
        <ele>722</ele>
        <time>2011-10-01T08:12:55Z</time>
      </trkpt>
      <trkpt lat="45.73539" lon="4.62313">
        <ele>722</ele>
        <time>2011-10-01T08:12:56Z</time>
      </trkpt>
      <trkpt lat="45.7354" lon="4.62322">
        <ele>721</ele>
        <time>2011-10-01T08:12:57Z</time>
      </trkpt>
      <trkpt lat="45.73541" lon="4.62331">
        <ele>720</ele>
        <time>2011-10-01T08:12:58Z</time>
      </trkpt>
      <trkpt lat="45.73542" lon="4.62348">
        <ele>718</ele>
        <time>2011-10-01T08:13:00Z</time>
      </trkpt>
      <trkpt lat="45.73544" lon="4.62364">
        <ele>716</ele>
        <time>2011-10-01T08:13:02Z</time>
      </trkpt>
      <trkpt lat="45.73545" lon="4.6237">
        <ele>716</ele>
        <time>2011-10-01T08:13:03Z</time>
      </trkpt>
      <trkpt lat="45.73547" lon="4.62375">
        <ele>714</ele>
        <time>2011-10-01T08:13:04Z</time>
      </trkpt>
      <trkpt lat="45.73547" lon="4.6238">
        <ele>713</ele>
        <time>2011-10-01T08:13:05Z</time>
      </trkpt>
      <trkpt lat="45.73547" lon="4.62385">
        <ele>712</ele>
        <time>2011-10-01T08:13:06Z</time>
      </trkpt>
      <trkpt lat="45.73545" lon="4.6239">
        <ele>711</ele>
        <time>2011-10-01T08:13:07Z</time>
      </trkpt>
      <trkpt lat="45.73544" lon="4.62395">
        <ele>711</ele>
        <time>2011-10-01T08:13:08Z</time>
      </trkpt>
      <trkpt lat="45.73545" lon="4.62406">
        <ele>710</ele>
        <time>2011-10-01T08:13:10Z</time>
      </trkpt>
      <trkpt lat="45.7355" lon="4.62426">
        <ele>708</ele>
        <time>2011-10-01T08:13:14Z</time>
      </trkpt>
      <trkpt lat="45.73554" lon="4.62443">
        <ele>705</ele>
        <time>2011-10-01T08:13:17Z</time>
      </trkpt>
      <trkpt lat="45.73554" lon="4.6245">
        <ele>704</ele>
        <time>2011-10-01T08:13:18Z</time>
      </trkpt>
      <trkpt lat="45.73555" lon="4.62456">
        <ele>702</ele>
        <time>2011-10-01T08:13:19Z</time>
      </trkpt>
      <trkpt lat="45.73556" lon="4.62462">
        <ele>703</ele>
        <time>2011-10-01T08:13:20Z</time>
      </trkpt>
      <trkpt lat="45.73556" lon="4.62467">
        <ele>702</ele>
        <time>2011-10-01T08:13:21Z</time>
      </trkpt>
      <trkpt lat="45.73556" lon="4.62472">
        <ele>701</ele>
        <time>2011-10-01T08:13:22Z</time>
      </trkpt>
      <trkpt lat="45.73556" lon="4.62476">
        <ele>700</ele>
        <time>2011-10-01T08:13:23Z</time>
      </trkpt>
      <trkpt lat="45.73557" lon="4.6248">
        <ele>699</ele>
        <time>2011-10-01T08:13:24Z</time>
      </trkpt>
      <trkpt lat="45.73557" lon="4.62486">
        <ele>699</ele>
        <time>2011-10-01T08:13:25Z</time>
      </trkpt>
      <trkpt lat="45.73558" lon="4.62493">
        <ele>699</ele>
        <time>2011-10-01T08:13:26Z</time>
      </trkpt>
      <trkpt lat="45.73562" lon="4.62527">
        <ele>698</ele>
        <time>2011-10-01T08:13:30Z</time>
      </trkpt>
      <trkpt lat="45.73564" lon="4.62536">
        <ele>696</ele>
        <time>2011-10-01T08:13:31Z</time>
      </trkpt>
      <trkpt lat="45.73566" lon="4.62545">
        <ele>696</ele>
        <time>2011-10-01T08:13:32Z</time>
      </trkpt>
      <trkpt lat="45.73568" lon="4.62565">
        <ele>694</ele>
        <time>2011-10-01T08:13:34Z</time>
      </trkpt>
      <trkpt lat="45.73568" lon="4.62576">
        <ele>694</ele>
        <time>2011-10-01T08:13:35Z</time>
      </trkpt>
      <trkpt lat="45.73567" lon="4.62586">
        <ele>693</ele>
        <time>2011-10-01T08:13:36Z</time>
      </trkpt>
      <trkpt lat="45.73565" lon="4.62603">
        <ele>692</ele>
        <time>2011-10-01T08:13:38Z</time>
      </trkpt>
      <trkpt lat="45.73564" lon="4.62608">
        <ele>690</ele>
        <time>2011-10-01T08:13:39Z</time>
      </trkpt>
      <trkpt lat="45.73561" lon="4.62612">
        <ele>690</ele>
        <time>2011-10-01T08:13:40Z</time>
      </trkpt>
      <trkpt lat="45.73551" lon="4.62627">
        <ele>687</ele>
        <time>2011-10-01T08:13:44Z</time>
      </trkpt>
      <trkpt lat="45.73549" lon="4.62629">
        <ele>687</ele>
        <time>2011-10-01T08:13:45Z</time>
      </trkpt>
      <trkpt lat="45.73544" lon="4.62646">
        <ele>684</ele>
        <time>2011-10-01T08:13:50Z</time>
      </trkpt>
      <trkpt lat="45.73542" lon="4.62651">
        <ele>684</ele>
        <time>2011-10-01T08:13:51Z</time>
      </trkpt>
      <trkpt lat="45.73536" lon="4.62658">
        <ele>683</ele>
        <time>2011-10-01T08:13:53Z</time>
      </trkpt>
      <trkpt lat="45.73529" lon="4.62672">
        <ele>681</ele>
        <time>2011-10-01T08:13:57Z</time>
      </trkpt>
      <trkpt lat="45.73527" lon="4.62675">
        <ele>680</ele>
        <time>2011-10-01T08:13:58Z</time>
      </trkpt>
      <trkpt lat="45.73523" lon="4.62678">
        <ele>680</ele>
        <time>2011-10-01T08:13:59Z</time>
      </trkpt>
      <trkpt lat="45.73521" lon="4.62679">
        <ele>680</ele>
        <time>2011-10-01T08:14:00Z</time>
      </trkpt>
      <trkpt lat="45.73519" lon="4.62681">
        <ele>679</ele>
        <time>2011-10-01T08:14:01Z</time>
      </trkpt>
      <trkpt lat="45.73517" lon="4.62683">
        <ele>678</ele>
        <time>2011-10-01T08:14:02Z</time>
      </trkpt>
      <trkpt lat="45.73516" lon="4.62685">
        <ele>678</ele>
        <time>2011-10-01T08:14:03Z</time>
      </trkpt>
      <trkpt lat="45.73514" lon="4.62688">
        <ele>678</ele>
        <time>2011-10-01T08:14:04Z</time>
      </trkpt>
      <trkpt lat="45.73513" lon="4.62691">
        <ele>677</ele>
        <time>2011-10-01T08:14:05Z</time>
      </trkpt>
      <trkpt lat="45.73511" lon="4.62693">
        <ele>677</ele>
        <time>2011-10-01T08:14:06Z</time>
      </trkpt>
      <trkpt lat="45.7351" lon="4.62695">
        <ele>676</ele>
        <time>2011-10-01T08:14:07Z</time>
      </trkpt>
      <trkpt lat="45.73508" lon="4.62696">
        <ele>676</ele>
        <time>2011-10-01T08:14:08Z</time>
      </trkpt>
      <trkpt lat="45.73506" lon="4.62696">
        <ele>676</ele>
        <time>2011-10-01T08:14:09Z</time>
      </trkpt>
      <trkpt lat="45.73504" lon="4.62696">
        <ele>675</ele>
        <time>2011-10-01T08:14:10Z</time>
      </trkpt>
      <trkpt lat="45.73501" lon="4.62696">
        <ele>674</ele>
        <time>2011-10-01T08:14:11Z</time>
      </trkpt>
      <trkpt lat="45.73498" lon="4.62695">
        <ele>674</ele>
        <time>2011-10-01T08:14:12Z</time>
      </trkpt>
      <trkpt lat="45.73495" lon="4.62694">
        <ele>673</ele>
        <time>2011-10-01T08:14:13Z</time>
      </trkpt>
      <trkpt lat="45.73491" lon="4.62693">
        <ele>673</ele>
        <time>2011-10-01T08:14:14Z</time>
      </trkpt>
      <trkpt lat="45.73482" lon="4.62685">
        <ele>671</ele>
        <time>2011-10-01T08:14:17Z</time>
      </trkpt>
      <trkpt lat="45.73478" lon="4.62685">
        <ele>670</ele>
        <time>2011-10-01T08:14:18Z</time>
      </trkpt>
      <trkpt lat="45.73475" lon="4.62686">
        <ele>669</ele>
        <time>2011-10-01T08:14:19Z</time>
      </trkpt>
      <trkpt lat="45.73472" lon="4.62688">
        <ele>668</ele>
        <time>2011-10-01T08:14:20Z</time>
      </trkpt>
      <trkpt lat="45.73469" lon="4.62689">
        <ele>668</ele>
        <time>2011-10-01T08:14:21Z</time>
      </trkpt>
      <trkpt lat="45.73466" lon="4.6269">
        <ele>667</ele>
        <time>2011-10-01T08:14:22Z</time>
      </trkpt>
      <trkpt lat="45.73464" lon="4.6269">
        <ele>666</ele>
        <time>2011-10-01T08:14:23Z</time>
      </trkpt>
      <trkpt lat="45.73462" lon="4.62692">
        <ele>667</ele>
        <time>2011-10-01T08:14:24Z</time>
      </trkpt>
      <trkpt lat="45.73454" lon="4.62695">
        <ele>663</ele>
        <time>2011-10-01T08:14:28Z</time>
      </trkpt>
      <trkpt lat="45.73446" lon="4.62699">
        <ele>661</ele>
        <time>2011-10-01T08:14:33Z</time>
      </trkpt>
      <trkpt lat="45.73446" lon="4.62696">
        <ele>661</ele>
        <time>2011-10-01T08:14:39Z</time>
      </trkpt>
      <trkpt lat="45.73446" lon="4.62696">
        <ele>662</ele>
        <time>2011-10-01T08:14:47Z</time>
      </trkpt>
      <trkpt lat="45.73446" lon="4.62697">
        <ele>662</ele>
        <time>2011-10-01T08:15:01Z</time>
      </trkpt>
      <trkpt lat="45.73446" lon="4.62697">
        <ele>661</ele>
        <time>2011-10-01T08:15:17Z</time>
      </trkpt>
      <trkpt lat="45.73447" lon="4.62697">
        <ele>661</ele>
        <time>2011-10-01T08:15:26Z</time>
      </trkpt>
      <trkpt lat="45.73447" lon="4.62697">
        <ele>662</ele>
        <time>2011-10-01T08:15:37Z</time>
      </trkpt>
      <trkpt lat="45.73447" lon="4.62697">
        <ele>661</ele>
        <time>2011-10-01T08:15:51Z</time>
      </trkpt>
      <trkpt lat="45.73447" lon="4.62698">
        <ele>661</ele>
        <time>2011-10-01T08:16:03Z</time>
      </trkpt>
      <trkpt lat="45.73447" lon="4.62698">
        <ele>662</ele>
        <time>2011-10-01T08:16:16Z</time>
      </trkpt>
      <trkpt lat="45.73447" lon="4.62698">
        <ele>661</ele>
        <time>2011-10-01T08:16:28Z</time>
      </trkpt>
      <trkpt lat="45.73449" lon="4.62693">
        <ele>662</ele>
        <time>2011-10-01T08:16:34Z</time>
      </trkpt>
      <trkpt lat="45.73453" lon="4.62688">
        <ele>662</ele>
        <time>2011-10-01T08:16:39Z</time>
      </trkpt>
      <trkpt lat="45.73454" lon="4.62687">
        <ele>662</ele>
        <time>2011-10-01T08:16:40Z</time>
      </trkpt>
      <trkpt lat="45.73458" lon="4.62681">
        <ele>663</ele>
        <time>2011-10-01T08:16:44Z</time>
      </trkpt>
      <trkpt lat="45.73467" lon="4.62673">
        <ele>663</ele>
        <time>2011-10-01T08:16:50Z</time>
      </trkpt>
      <trkpt lat="45.7347" lon="4.62667">
        <ele>664</ele>
        <time>2011-10-01T08:16:55Z</time>
      </trkpt>
      <trkpt lat="45.73471" lon="4.62665">
        <ele>665</ele>
        <time>2011-10-01T08:16:56Z</time>
      </trkpt>
      <trkpt lat="45.73476" lon="4.62655">
        <ele>665</ele>
        <time>2011-10-01T08:17:02Z</time>
      </trkpt>
      <trkpt lat="45.73483" lon="4.62648">
        <ele>667</ele>
        <time>2011-10-01T08:17:08Z</time>
      </trkpt>
      <trkpt lat="45.7349" lon="4.62638">
        <ele>669</ele>
        <time>2011-10-01T08:17:16Z</time>
      </trkpt>
      <trkpt lat="45.73496" lon="4.62627">
        <ele>671</ele>
        <time>2011-10-01T08:17:24Z</time>
      </trkpt>
      <trkpt lat="45.73501" lon="4.6262">
        <ele>672</ele>
        <time>2011-10-01T08:17:30Z</time>
      </trkpt>
      <trkpt lat="45.73506" lon="4.62615">
        <ele>673</ele>
        <time>2011-10-01T08:17:33Z</time>
      </trkpt>
      <trkpt lat="45.73507" lon="4.62613">
        <ele>673</ele>
        <time>2011-10-01T08:17:34Z</time>
      </trkpt>
      <trkpt lat="45.7351" lon="4.62608">
        <ele>674</ele>
        <time>2011-10-01T08:17:37Z</time>
      </trkpt>
      <trkpt lat="45.73513" lon="4.62594">
        <ele>675</ele>
        <time>2011-10-01T08:17:45Z</time>
      </trkpt>
      <trkpt lat="45.73513" lon="4.62592">
        <ele>674</ele>
        <time>2011-10-01T08:17:46Z</time>
      </trkpt>
      <trkpt lat="45.73513" lon="4.62589">
        <ele>675</ele>
        <time>2011-10-01T08:17:47Z</time>
      </trkpt>
      <trkpt lat="45.73514" lon="4.62587">
        <ele>675</ele>
        <time>2011-10-01T08:17:48Z</time>
      </trkpt>
      <trkpt lat="45.73514" lon="4.62585">
        <ele>675</ele>
        <time>2011-10-01T08:17:49Z</time>
      </trkpt>
      <trkpt lat="45.73515" lon="4.62581">
        <ele>676</ele>
        <time>2011-10-01T08:17:51Z</time>
      </trkpt>
      <trkpt lat="45.73516" lon="4.62579">
        <ele>676</ele>
        <time>2011-10-01T08:17:52Z</time>
      </trkpt>
      <trkpt lat="45.73518" lon="4.62576">
        <ele>676</ele>
        <time>2011-10-01T08:17:54Z</time>
      </trkpt>
      <trkpt lat="45.7352" lon="4.62573">
        <ele>676</ele>
        <time>2011-10-01T08:17:57Z</time>
      </trkpt>
      <trkpt lat="45.73521" lon="4.62571">
        <ele>676</ele>
        <time>2011-10-01T08:17:58Z</time>
      </trkpt>
      <trkpt lat="45.73521" lon="4.62568">
        <ele>678</ele>
        <time>2011-10-01T08:17:59Z</time>
      </trkpt>
      <trkpt lat="45.73527" lon="4.6256">
        <ele>678</ele>
        <time>2011-10-01T08:18:05Z</time>
      </trkpt>
      <trkpt lat="45.73527" lon="4.62558">
        <ele>679</ele>
        <time>2011-10-01T08:18:06Z</time>
      </trkpt>
      <trkpt lat="45.73528" lon="4.62556">
        <ele>679</ele>
        <time>2011-10-01T08:18:07Z</time>
      </trkpt>
      <trkpt lat="45.73528" lon="4.62549">
        <ele>679</ele>
        <time>2011-10-01T08:18:13Z</time>
      </trkpt>
      <trkpt lat="45.73526" lon="4.62534">
        <ele>679</ele>
        <time>2011-10-01T08:18:19Z</time>
      </trkpt>
      <trkpt lat="45.73525" lon="4.62524">
        <ele>681</ele>
        <time>2011-10-01T08:18:24Z</time>
      </trkpt>
      <trkpt lat="45.73526" lon="4.62515">
        <ele>682</ele>
        <time>2011-10-01T08:18:29Z</time>
      </trkpt>
      <trkpt lat="45.73526" lon="4.62513">
        <ele>682</ele>
        <time>2011-10-01T08:18:30Z</time>
      </trkpt>
      <trkpt lat="45.73524" lon="4.62498">
        <ele>683</ele>
        <time>2011-10-01T08:18:37Z</time>
      </trkpt>
      <trkpt lat="45.73523" lon="4.62494">
        <ele>683</ele>
        <time>2011-10-01T08:18:39Z</time>
      </trkpt>
      <trkpt lat="45.73523" lon="4.6249">
        <ele>684</ele>
        <time>2011-10-01T08:18:41Z</time>
      </trkpt>
      <trkpt lat="45.73521" lon="4.62481">
        <ele>683</ele>
        <time>2011-10-01T08:18:45Z</time>
      </trkpt>
      <trkpt lat="45.73514" lon="4.62465">
        <ele>682</ele>
        <time>2011-10-01T08:18:51Z</time>
      </trkpt>
      <trkpt lat="45.73511" lon="4.6246">
        <ele>683</ele>
        <time>2011-10-01T08:18:53Z</time>
      </trkpt>
      <trkpt lat="45.7351" lon="4.62458">
        <ele>683</ele>
        <time>2011-10-01T08:18:54Z</time>
      </trkpt>
      <trkpt lat="45.73507" lon="4.62456">
        <ele>682</ele>
        <time>2011-10-01T08:18:55Z</time>
      </trkpt>
      <trkpt lat="45.73505" lon="4.62455">
        <ele>681</ele>
        <time>2011-10-01T08:18:56Z</time>
      </trkpt>
      <trkpt lat="45.73503" lon="4.62452">
        <ele>681</ele>
        <time>2011-10-01T08:18:57Z</time>
      </trkpt>
      <trkpt lat="45.73501" lon="4.6245">
        <ele>680</ele>
        <time>2011-10-01T08:18:58Z</time>
      </trkpt>
      <trkpt lat="45.73499" lon="4.62449">
        <ele>680</ele>
        <time>2011-10-01T08:18:59Z</time>
      </trkpt>
      <trkpt lat="45.73497" lon="4.62448">
        <ele>679</ele>
        <time>2011-10-01T08:19:00Z</time>
      </trkpt>
      <trkpt lat="45.73492" lon="4.62446">
        <ele>678</ele>
        <time>2011-10-01T08:19:01Z</time>
      </trkpt>
      <trkpt lat="45.73488" lon="4.62442">
        <ele>677</ele>
        <time>2011-10-01T08:19:02Z</time>
      </trkpt>
      <trkpt lat="45.73482" lon="4.62434">
        <ele>676</ele>
        <time>2011-10-01T08:19:04Z</time>
      </trkpt>
      <trkpt lat="45.73475" lon="4.62417">
        <ele>676</ele>
        <time>2011-10-01T08:19:09Z</time>
      </trkpt>
      <trkpt lat="45.73467" lon="4.62398">
        <ele>678</ele>
        <time>2011-10-01T08:19:15Z</time>
      </trkpt>
      <trkpt lat="45.73459" lon="4.62385">
        <ele>677</ele>
        <time>2011-10-01T08:19:19Z</time>
      </trkpt>
      <trkpt lat="45.73458" lon="4.62375">
        <ele>677</ele>
        <time>2011-10-01T08:19:24Z</time>
      </trkpt>
      <trkpt lat="45.73457" lon="4.62373">
        <ele>677</ele>
        <time>2011-10-01T08:19:26Z</time>
      </trkpt>
      <trkpt lat="45.73446" lon="4.62345">
        <ele>677</ele>
        <time>2011-10-01T08:19:32Z</time>
      </trkpt>
      <trkpt lat="45.73433" lon="4.62333">
        <ele>674</ele>
        <time>2011-10-01T08:19:36Z</time>
      </trkpt>
      <trkpt lat="45.73426" lon="4.62328">
        <ele>672</ele>
        <time>2011-10-01T08:19:38Z</time>
      </trkpt>
      <trkpt lat="45.73419" lon="4.62323">
        <ele>671</ele>
        <time>2011-10-01T08:19:39Z</time>
      </trkpt>
      <trkpt lat="45.73403" lon="4.623">
        <ele>667</ele>
        <time>2011-10-01T08:19:43Z</time>
      </trkpt>
      <trkpt lat="45.73399" lon="4.62293">
        <ele>667</ele>
        <time>2011-10-01T08:19:44Z</time>
      </trkpt>
      <trkpt lat="45.73383" lon="4.62269">
        <ele>662</ele>
        <time>2011-10-01T08:19:48Z</time>
      </trkpt>
      <trkpt lat="45.73381" lon="4.62263">
        <ele>663</ele>
        <time>2011-10-01T08:19:49Z</time>
      </trkpt>
      <trkpt lat="45.73377" lon="4.62259">
        <ele>662</ele>
        <time>2011-10-01T08:19:50Z</time>
      </trkpt>
      <trkpt lat="45.73364" lon="4.62249">
        <ele>659</ele>
        <time>2011-10-01T08:19:53Z</time>
      </trkpt>
      <trkpt lat="45.73362" lon="4.6224">
        <ele>658</ele>
        <time>2011-10-01T08:19:55Z</time>
      </trkpt>
      <trkpt lat="45.73367" lon="4.62226">
        <ele>658</ele>
        <time>2011-10-01T08:20:00Z</time>
      </trkpt>
      <trkpt lat="45.73368" lon="4.62224">
        <ele>658</ele>
        <time>2011-10-01T08:20:01Z</time>
      </trkpt>
      <trkpt lat="45.7337" lon="4.62212">
        <ele>659</ele>
        <time>2011-10-01T08:20:05Z</time>
      </trkpt>
      <trkpt lat="45.73376" lon="4.62195">
        <ele>658</ele>
        <time>2011-10-01T08:20:12Z</time>
      </trkpt>
      <trkpt lat="45.73381" lon="4.62178">
        <ele>659</ele>
        <time>2011-10-01T08:20:17Z</time>
      </trkpt>
      <trkpt lat="45.73389" lon="4.62149">
        <ele>659</ele>
        <time>2011-10-01T08:20:26Z</time>
      </trkpt>
      <trkpt lat="45.73395" lon="4.6212">
        <ele>662</ele>
        <time>2011-10-01T08:20:36Z</time>
      </trkpt>
      <trkpt lat="45.73399" lon="4.62092">
        <ele>663</ele>
        <time>2011-10-01T08:20:46Z</time>
      </trkpt>
      <trkpt lat="45.73399" lon="4.62085">
        <ele>664</ele>
        <time>2011-10-01T08:20:48Z</time>
      </trkpt>
      <trkpt lat="45.73398" lon="4.62071">
        <ele>664</ele>
        <time>2011-10-01T08:20:53Z</time>
      </trkpt>
      <trkpt lat="45.73398" lon="4.6206">
        <ele>665</ele>
        <time>2011-10-01T08:20:57Z</time>
      </trkpt>
      <trkpt lat="45.73399" lon="4.62033">
        <ele>666</ele>
        <time>2011-10-01T08:21:06Z</time>
      </trkpt>
      <trkpt lat="45.734" lon="4.62016">
        <ele>667</ele>
        <time>2011-10-01T08:21:12Z</time>
      </trkpt>
      <trkpt lat="45.734" lon="4.61986">
        <ele>667</ele>
        <time>2011-10-01T08:21:22Z</time>
      </trkpt>
      <trkpt lat="45.73399" lon="4.61972">
        <ele>669</ele>
        <time>2011-10-01T08:21:27Z</time>
      </trkpt>
      <trkpt lat="45.73397" lon="4.6196">
        <ele>669</ele>
        <time>2011-10-01T08:21:32Z</time>
      </trkpt>
      <trkpt lat="45.73386" lon="4.61939">
        <ele>668</ele>
        <time>2011-10-01T08:21:39Z</time>
      </trkpt>
      <trkpt lat="45.73383" lon="4.61934">
        <ele>668</ele>
        <time>2011-10-01T08:21:40Z</time>
      </trkpt>
      <trkpt lat="45.73364" lon="4.61913">
        <ele>667</ele>
        <time>2011-10-01T08:21:46Z</time>
      </trkpt>
      <trkpt lat="45.7335" lon="4.61893">
        <ele>666</ele>
        <time>2011-10-01T08:21:52Z</time>
      </trkpt>
      <trkpt lat="45.73332" lon="4.61858">
        <ele>666</ele>
        <time>2011-10-01T08:21:59Z</time>
      </trkpt>
      <trkpt lat="45.73322" lon="4.61832">
        <ele>665</ele>
        <time>2011-10-01T08:22:05Z</time>
      </trkpt>
      <trkpt lat="45.73317" lon="4.61807">
        <ele>666</ele>
        <time>2011-10-01T08:22:12Z</time>
      </trkpt>
      <trkpt lat="45.73314" lon="4.61795">
        <ele>665</ele>
        <time>2011-10-01T08:22:15Z</time>
      </trkpt>
      <trkpt lat="45.73314" lon="4.61791">
        <ele>666</ele>
        <time>2011-10-01T08:22:16Z</time>
      </trkpt>
      <trkpt lat="45.73313" lon="4.61787">
        <ele>665</ele>
        <time>2011-10-01T08:22:17Z</time>
      </trkpt>
      <trkpt lat="45.73312" lon="4.61783">
        <ele>665</ele>
        <time>2011-10-01T08:22:18Z</time>
      </trkpt>
      <trkpt lat="45.73311" lon="4.61778">
        <ele>666</ele>
        <time>2011-10-01T08:22:19Z</time>
      </trkpt>
      <trkpt lat="45.7331" lon="4.61774">
        <ele>665</ele>
        <time>2011-10-01T08:22:20Z</time>
      </trkpt>
      <trkpt lat="45.73309" lon="4.6177">
        <ele>665</ele>
        <time>2011-10-01T08:22:21Z</time>
      </trkpt>
      <trkpt lat="45.73304" lon="4.61747">
        <ele>663</ele>
        <time>2011-10-01T08:22:28Z</time>
      </trkpt>
      <trkpt lat="45.73301" lon="4.61734">
        <ele>662</ele>
        <time>2011-10-01T08:22:33Z</time>
      </trkpt>
      <trkpt lat="45.73304" lon="4.6171">
        <ele>662</ele>
        <time>2011-10-01T08:22:39Z</time>
      </trkpt>
      <trkpt lat="45.73313" lon="4.61676">
        <ele>663</ele>
        <time>2011-10-01T08:22:46Z</time>
      </trkpt>
      <trkpt lat="45.73323" lon="4.61651">
        <ele>663</ele>
        <time>2011-10-01T08:22:52Z</time>
      </trkpt>
      <trkpt lat="45.73331" lon="4.61625">
        <ele>664</ele>
        <time>2011-10-01T08:22:57Z</time>
      </trkpt>
      <trkpt lat="45.73337" lon="4.6161">
        <ele>665</ele>
        <time>2011-10-01T08:23:02Z</time>
      </trkpt>
      <trkpt lat="45.73338" lon="4.61608">
        <ele>665</ele>
        <time>2011-10-01T08:23:03Z</time>
      </trkpt>
      <trkpt lat="45.7334" lon="4.61605">
        <ele>665</ele>
        <time>2011-10-01T08:23:04Z</time>
      </trkpt>
      <trkpt lat="45.73341" lon="4.61601">
        <ele>665</ele>
        <time>2011-10-01T08:23:05Z</time>
      </trkpt>
      <trkpt lat="45.73343" lon="4.61598">
        <ele>665</ele>
        <time>2011-10-01T08:23:06Z</time>
      </trkpt>
      <trkpt lat="45.73344" lon="4.61596">
        <ele>665</ele>
        <time>2011-10-01T08:23:07Z</time>
      </trkpt>
      <trkpt lat="45.73353" lon="4.61575">
        <ele>666</ele>
        <time>2011-10-01T08:23:13Z</time>
      </trkpt>
      <trkpt lat="45.73358" lon="4.61564">
        <ele>666</ele>
        <time>2011-10-01T08:23:16Z</time>
      </trkpt>
      <trkpt lat="45.73359" lon="4.61561">
        <ele>666</ele>
        <time>2011-10-01T08:23:17Z</time>
      </trkpt>
      <trkpt lat="45.73371" lon="4.61533">
        <ele>667</ele>
        <time>2011-10-01T08:23:24Z</time>
      </trkpt>
      <trkpt lat="45.7338" lon="4.61506">
        <ele>665</ele>
        <time>2011-10-01T08:23:30Z</time>
      </trkpt>
      <trkpt lat="45.73387" lon="4.61477">
        <ele>665</ele>
        <time>2011-10-01T08:23:35Z</time>
      </trkpt>
      <trkpt lat="45.73391" lon="4.61465">
        <ele>666</ele>
        <time>2011-10-01T08:23:37Z</time>
      </trkpt>
      <trkpt lat="45.73393" lon="4.61459">
        <ele>665</ele>
        <time>2011-10-01T08:23:38Z</time>
      </trkpt>
      <trkpt lat="45.73401" lon="4.6143">
        <ele>666</ele>
        <time>2011-10-01T08:23:44Z</time>
      </trkpt>
      <trkpt lat="45.73402" lon="4.61419">
        <ele>665</ele>
        <time>2011-10-01T08:23:47Z</time>
      </trkpt>
      <trkpt lat="45.734" lon="4.61415">
        <ele>665</ele>
        <time>2011-10-01T08:23:49Z</time>
      </trkpt>
      <trkpt lat="45.73398" lon="4.61413">
        <ele>664</ele>
        <time>2011-10-01T08:23:50Z</time>
      </trkpt>
      <trkpt lat="45.73394" lon="4.61413">
        <ele>665</ele>
        <time>2011-10-01T08:23:52Z</time>
      </trkpt>
      <trkpt lat="45.73371" lon="4.61407">
        <ele>663</ele>
        <time>2011-10-01T08:23:58Z</time>
      </trkpt>
      <trkpt lat="45.73357" lon="4.61403">
        <ele>664</ele>
        <time>2011-10-01T08:24:01Z</time>
      </trkpt>
      <trkpt lat="45.73352" lon="4.61402">
        <ele>664</ele>
        <time>2011-10-01T08:24:02Z</time>
      </trkpt>
      <trkpt lat="45.73347" lon="4.61402">
        <ele>663</ele>
        <time>2011-10-01T08:24:03Z</time>
      </trkpt>
      <trkpt lat="45.73323" lon="4.614">
        <ele>664</ele>
        <time>2011-10-01T08:24:08Z</time>
      </trkpt>
      <trkpt lat="45.73316" lon="4.61399">
        <ele>664</ele>
        <time>2011-10-01T08:24:10Z</time>
      </trkpt>
      <trkpt lat="45.73313" lon="4.61398">
        <ele>665</ele>
        <time>2011-10-01T08:24:11Z</time>
      </trkpt>
      <trkpt lat="45.7331" lon="4.61397">
        <ele>665</ele>
        <time>2011-10-01T08:24:12Z</time>
      </trkpt>
      <trkpt lat="45.73308" lon="4.61396">
        <ele>665</ele>
        <time>2011-10-01T08:24:13Z</time>
      </trkpt>
      <trkpt lat="45.73307" lon="4.61395">
        <ele>666</ele>
        <time>2011-10-01T08:24:14Z</time>
      </trkpt>
      <trkpt lat="45.73289" lon="4.61384">
        <ele>669</ele>
        <time>2011-10-01T08:24:22Z</time>
      </trkpt>
      <trkpt lat="45.73277" lon="4.61373">
        <ele>670</ele>
        <time>2011-10-01T08:24:29Z</time>
      </trkpt>
      <trkpt lat="45.7327" lon="4.61366">
        <ele>670</ele>
        <time>2011-10-01T08:24:34Z</time>
      </trkpt>
      <trkpt lat="45.73269" lon="4.61364">
        <ele>670</ele>
        <time>2011-10-01T08:24:35Z</time>
      </trkpt>
      <trkpt lat="45.73267" lon="4.61362">
        <ele>669</ele>
        <time>2011-10-01T08:24:36Z</time>
      </trkpt>
      <trkpt lat="45.73264" lon="4.61357">
        <ele>669</ele>
        <time>2011-10-01T08:24:39Z</time>
      </trkpt>
      <trkpt lat="45.73263" lon="4.61355">
        <ele>669</ele>
        <time>2011-10-01T08:24:40Z</time>
      </trkpt>
      <trkpt lat="45.73253" lon="4.61339">
        <ele>667</ele>
        <time>2011-10-01T08:24:45Z</time>
      </trkpt>
      <trkpt lat="45.73251" lon="4.61334">
        <ele>667</ele>
        <time>2011-10-01T08:24:46Z</time>
      </trkpt>
      <trkpt lat="45.73243" lon="4.61315">
        <ele>668</ele>
        <time>2011-10-01T08:24:51Z</time>
      </trkpt>
      <trkpt lat="45.73235" lon="4.61287">
        <ele>669</ele>
        <time>2011-10-01T08:24:57Z</time>
      </trkpt>
      <trkpt lat="45.73235" lon="4.61259">
        <ele>668</ele>
        <time>2011-10-01T08:25:03Z</time>
      </trkpt>
      <trkpt lat="45.73236" lon="4.61237">
        <ele>669</ele>
        <time>2011-10-01T08:25:08Z</time>
      </trkpt>
      <trkpt lat="45.73236" lon="4.61204">
        <ele>669</ele>
        <time>2011-10-01T08:25:15Z</time>
      </trkpt>
      <trkpt lat="45.73232" lon="4.61167">
        <ele>670</ele>
        <time>2011-10-01T08:25:22Z</time>
      </trkpt>
      <trkpt lat="45.73225" lon="4.61139">
        <ele>669</ele>
        <time>2011-10-01T08:25:27Z</time>
      </trkpt>
      <trkpt lat="45.73218" lon="4.61117">
        <ele>669</ele>
        <time>2011-10-01T08:25:32Z</time>
      </trkpt>
      <trkpt lat="45.73207" lon="4.61097">
        <ele>670</ele>
        <time>2011-10-01T08:25:38Z</time>
      </trkpt>
      <trkpt lat="45.73199" lon="4.61085">
        <ele>670</ele>
        <time>2011-10-01T08:25:42Z</time>
      </trkpt>
      <trkpt lat="45.73196" lon="4.61084">
        <ele>670</ele>
        <time>2011-10-01T08:25:43Z</time>
      </trkpt>
      <trkpt lat="45.73191" lon="4.61082">
        <ele>669</ele>
        <time>2011-10-01T08:25:44Z</time>
      </trkpt>
      <trkpt lat="45.73186" lon="4.6108">
        <ele>668</ele>
        <time>2011-10-01T08:25:45Z</time>
      </trkpt>
      <trkpt lat="45.73181" lon="4.61081">
        <ele>668</ele>
        <time>2011-10-01T08:25:46Z</time>
      </trkpt>
      <trkpt lat="45.73178" lon="4.61085">
        <ele>668</ele>
        <time>2011-10-01T08:25:47Z</time>
      </trkpt>
      <trkpt lat="45.73176" lon="4.6109">
        <ele>667</ele>
        <time>2011-10-01T08:25:48Z</time>
      </trkpt>
      <trkpt lat="45.73173" lon="4.61095">
        <ele>667</ele>
        <time>2011-10-01T08:25:49Z</time>
      </trkpt>
      <trkpt lat="45.73159" lon="4.6111">
        <ele>668</ele>
        <time>2011-10-01T08:25:54Z</time>
      </trkpt>
      <trkpt lat="45.7314" lon="4.61125">
        <ele>667</ele>
        <time>2011-10-01T08:26:01Z</time>
      </trkpt>
      <trkpt lat="45.73124" lon="4.61136">
        <ele>668</ele>
        <time>2011-10-01T08:26:07Z</time>
      </trkpt>
      <trkpt lat="45.73121" lon="4.61137">
        <ele>668</ele>
        <time>2011-10-01T08:26:08Z</time>
      </trkpt>
      <trkpt lat="45.73119" lon="4.61139">
        <ele>667</ele>
        <time>2011-10-01T08:26:09Z</time>
      </trkpt>
      <trkpt lat="45.73117" lon="4.6114">
        <ele>669</ele>
        <time>2011-10-01T08:26:10Z</time>
      </trkpt>
      <trkpt lat="45.73114" lon="4.61142">
        <ele>669</ele>
        <time>2011-10-01T08:26:11Z</time>
      </trkpt>
      <trkpt lat="45.73111" lon="4.61143">
        <ele>669</ele>
        <time>2011-10-01T08:26:12Z</time>
      </trkpt>
      <trkpt lat="45.73108" lon="4.61144">
        <ele>668</ele>
        <time>2011-10-01T08:26:13Z</time>
      </trkpt>
      <trkpt lat="45.73086" lon="4.61156">
        <ele>668</ele>
        <time>2011-10-01T08:26:19Z</time>
      </trkpt>
      <trkpt lat="45.73067" lon="4.61175">
        <ele>667</ele>
        <time>2011-10-01T08:26:25Z</time>
      </trkpt>
      <trkpt lat="45.73056" lon="4.61188">
        <ele>667</ele>
        <time>2011-10-01T08:26:28Z</time>
      </trkpt>
      <trkpt lat="45.73052" lon="4.61193">
        <ele>667</ele>
        <time>2011-10-01T08:26:29Z</time>
      </trkpt>
      <trkpt lat="45.73039" lon="4.61211">
        <ele>666</ele>
        <time>2011-10-01T08:26:33Z</time>
      </trkpt>
      <trkpt lat="45.73027" lon="4.61225">
        <ele>665</ele>
        <time>2011-10-01T08:26:36Z</time>
      </trkpt>
      <trkpt lat="45.73023" lon="4.61229">
        <ele>665</ele>
        <time>2011-10-01T08:26:37Z</time>
      </trkpt>
      <trkpt lat="45.73019" lon="4.61234">
        <ele>665</ele>
        <time>2011-10-01T08:26:38Z</time>
      </trkpt>
      <trkpt lat="45.7301" lon="4.61241">
        <ele>665</ele>
        <time>2011-10-01T08:26:40Z</time>
      </trkpt>
      <trkpt lat="45.73006" lon="4.61243">
        <ele>665</ele>
        <time>2011-10-01T08:26:41Z</time>
      </trkpt>
      <trkpt lat="45.73003" lon="4.61245">
        <ele>666</ele>
        <time>2011-10-01T08:26:42Z</time>
      </trkpt>
      <trkpt lat="45.73" lon="4.61245">
        <ele>665</ele>
        <time>2011-10-01T08:26:43Z</time>
      </trkpt>
      <trkpt lat="45.72997" lon="4.61245">
        <ele>666</ele>
        <time>2011-10-01T08:26:44Z</time>
      </trkpt>
      <trkpt lat="45.72994" lon="4.61245">
        <ele>666</ele>
        <time>2011-10-01T08:26:45Z</time>
      </trkpt>
      <trkpt lat="45.72991" lon="4.61245">
        <ele>666</ele>
        <time>2011-10-01T08:26:46Z</time>
      </trkpt>
      <trkpt lat="45.72989" lon="4.61245">
        <ele>666</ele>
        <time>2011-10-01T08:26:47Z</time>
      </trkpt>
      <trkpt lat="45.72978" lon="4.61244">
        <ele>669</ele>
        <time>2011-10-01T08:26:53Z</time>
      </trkpt>
      <trkpt lat="45.72963" lon="4.61243">
        <ele>669</ele>
        <time>2011-10-01T08:26:59Z</time>
      </trkpt>
      <trkpt lat="45.72947" lon="4.61242">
        <ele>671</ele>
        <time>2011-10-01T08:27:06Z</time>
      </trkpt>
      <trkpt lat="45.72934" lon="4.61238">
        <ele>671</ele>
        <time>2011-10-01T08:27:12Z</time>
      </trkpt>
      <trkpt lat="45.72932" lon="4.61236">
        <ele>671</ele>
        <time>2011-10-01T08:27:13Z</time>
      </trkpt>
      <trkpt lat="45.72915" lon="4.61226">
        <ele>671</ele>
        <time>2011-10-01T08:27:19Z</time>
      </trkpt>
      <trkpt lat="45.72899" lon="4.61217">
        <ele>672</ele>
        <time>2011-10-01T08:27:25Z</time>
      </trkpt>
      <trkpt lat="45.72887" lon="4.61207">
        <ele>672</ele>
        <time>2011-10-01T08:27:30Z</time>
      </trkpt>
      <trkpt lat="45.72884" lon="4.61206">
        <ele>672</ele>
        <time>2011-10-01T08:27:31Z</time>
      </trkpt>
      <trkpt lat="45.72882" lon="4.61205">
        <ele>672</ele>
        <time>2011-10-01T08:27:32Z</time>
      </trkpt>
      <trkpt lat="45.7288" lon="4.61203">
        <ele>672</ele>
        <time>2011-10-01T08:27:33Z</time>
      </trkpt>
      <trkpt lat="45.72877" lon="4.61201">
        <ele>672</ele>
        <time>2011-10-01T08:27:34Z</time>
      </trkpt>
      <trkpt lat="45.72874" lon="4.61199">
        <ele>673</ele>
        <time>2011-10-01T08:27:35Z</time>
      </trkpt>
      <trkpt lat="45.72856" lon="4.61186">
        <ele>673</ele>
        <time>2011-10-01T08:27:41Z</time>
      </trkpt>
      <trkpt lat="45.7283" lon="4.61174">
        <ele>672</ele>
        <time>2011-10-01T08:27:48Z</time>
      </trkpt>
      <trkpt lat="45.72798" lon="4.61167">
        <ele>670</ele>
        <time>2011-10-01T08:27:54Z</time>
      </trkpt>
      <trkpt lat="45.72792" lon="4.61169">
        <ele>669</ele>
        <time>2011-10-01T08:27:55Z</time>
      </trkpt>
      <trkpt lat="45.72788" lon="4.61171">
        <ele>670</ele>
        <time>2011-10-01T08:27:56Z</time>
      </trkpt>
      <trkpt lat="45.72784" lon="4.61172">
        <ele>671</ele>
        <time>2011-10-01T08:27:57Z</time>
      </trkpt>
      <trkpt lat="45.72781" lon="4.61173">
        <ele>670</ele>
        <time>2011-10-01T08:27:58Z</time>
      </trkpt>
      <trkpt lat="45.72777" lon="4.61174">
        <ele>671</ele>
        <time>2011-10-01T08:27:59Z</time>
      </trkpt>
      <trkpt lat="45.72774" lon="4.61176">
        <ele>671</ele>
        <time>2011-10-01T08:28:00Z</time>
      </trkpt>
      <trkpt lat="45.72755" lon="4.61185">
        <ele>671</ele>
        <time>2011-10-01T08:28:06Z</time>
      </trkpt>
      <trkpt lat="45.72746" lon="4.61191">
        <ele>673</ele>
        <time>2011-10-01T08:28:11Z</time>
      </trkpt>
      <trkpt lat="45.72744" lon="4.61193">
        <ele>673</ele>
        <time>2011-10-01T08:28:12Z</time>
      </trkpt>
      <trkpt lat="45.72727" lon="4.61204">
        <ele>672</ele>
        <time>2011-10-01T08:28:18Z</time>
      </trkpt>
      <trkpt lat="45.72717" lon="4.61209">
        <ele>672</ele>
        <time>2011-10-01T08:28:21Z</time>
      </trkpt>
      <trkpt lat="45.72715" lon="4.61211">
        <ele>673</ele>
        <time>2011-10-01T08:28:22Z</time>
      </trkpt>
      <trkpt lat="45.72711" lon="4.61213">
        <ele>672</ele>
        <time>2011-10-01T08:28:23Z</time>
      </trkpt>
      <trkpt lat="45.72708" lon="4.61213">
        <ele>672</ele>
        <time>2011-10-01T08:28:24Z</time>
      </trkpt>
      <trkpt lat="45.72704" lon="4.61214">
        <ele>672</ele>
        <time>2011-10-01T08:28:25Z</time>
      </trkpt>
      <trkpt lat="45.727" lon="4.61215">
        <ele>672</ele>
        <time>2011-10-01T08:28:26Z</time>
      </trkpt>
      <trkpt lat="45.72695" lon="4.61215">
        <ele>672</ele>
        <time>2011-10-01T08:28:27Z</time>
      </trkpt>
      <trkpt lat="45.72691" lon="4.61217">
        <ele>672</ele>
        <time>2011-10-01T08:28:28Z</time>
      </trkpt>
      <trkpt lat="45.7268" lon="4.6122">
        <ele>671</ele>
        <time>2011-10-01T08:28:31Z</time>
      </trkpt>
      <trkpt lat="45.72675" lon="4.61222">
        <ele>671</ele>
        <time>2011-10-01T08:28:32Z</time>
      </trkpt>
      <trkpt lat="45.7267" lon="4.61223">
        <ele>670</ele>
        <time>2011-10-01T08:28:33Z</time>
      </trkpt>
      <trkpt lat="45.72664" lon="4.61224">
        <ele>670</ele>
        <time>2011-10-01T08:28:34Z</time>
      </trkpt>
      <trkpt lat="45.72659" lon="4.61223">
        <ele>670</ele>
        <time>2011-10-01T08:28:35Z</time>
      </trkpt>
      <trkpt lat="45.72653" lon="4.61221">
        <ele>669</ele>
        <time>2011-10-01T08:28:36Z</time>
      </trkpt>
      <trkpt lat="45.72648" lon="4.6122">
        <ele>669</ele>
        <time>2011-10-01T08:28:37Z</time>
      </trkpt>
      <trkpt lat="45.72622" lon="4.61209">
        <ele>670</ele>
        <time>2011-10-01T08:28:43Z</time>
      </trkpt>
      <trkpt lat="45.72607" lon="4.61208">
        <ele>672</ele>
        <time>2011-10-01T08:28:48Z</time>
      </trkpt>
      <trkpt lat="45.72588" lon="4.61214">
        <ele>672</ele>
        <time>2011-10-01T08:28:54Z</time>
      </trkpt>
      <trkpt lat="45.72573" lon="4.6122">
        <ele>674</ele>
        <time>2011-10-01T08:29:00Z</time>
      </trkpt>
      <trkpt lat="45.72571" lon="4.61221">
        <ele>673</ele>
        <time>2011-10-01T08:29:01Z</time>
      </trkpt>
      <trkpt lat="45.72554" lon="4.61233">
        <ele>674</ele>
        <time>2011-10-01T08:29:08Z</time>
      </trkpt>
      <trkpt lat="45.72542" lon="4.61249">
        <ele>673</ele>
        <time>2011-10-01T08:29:13Z</time>
      </trkpt>
      <trkpt lat="45.72535" lon="4.61257">
        <ele>673</ele>
        <time>2011-10-01T08:29:15Z</time>
      </trkpt>
      <trkpt lat="45.72531" lon="4.61261">
        <ele>672</ele>
        <time>2011-10-01T08:29:16Z</time>
      </trkpt>
      <trkpt lat="45.72528" lon="4.61264">
        <ele>673</ele>
        <time>2011-10-01T08:29:17Z</time>
      </trkpt>
      <trkpt lat="45.72508" lon="4.61283">
        <ele>673</ele>
        <time>2011-10-01T08:29:23Z</time>
      </trkpt>
      <trkpt lat="45.72476" lon="4.61299">
        <ele>673</ele>
        <time>2011-10-01T08:29:31Z</time>
      </trkpt>
      <trkpt lat="45.72451" lon="4.61308">
        <ele>674</ele>
        <time>2011-10-01T08:29:38Z</time>
      </trkpt>
      <trkpt lat="45.72439" lon="4.6131">
        <ele>674</ele>
        <time>2011-10-01T08:29:44Z</time>
      </trkpt>
      <trkpt lat="45.72439" lon="4.61309">
        <ele>674</ele>
        <time>2011-10-01T08:29:45Z</time>
      </trkpt>
      <trkpt lat="45.72434" lon="4.61301">
        <ele>674</ele>
        <time>2011-10-01T08:29:52Z</time>
      </trkpt>
      <trkpt lat="45.72432" lon="4.61291">
        <ele>675</ele>
        <time>2011-10-01T08:29:57Z</time>
      </trkpt>
      <trkpt lat="45.72432" lon="4.6129">
        <ele>675</ele>
        <time>2011-10-01T08:29:58Z</time>
      </trkpt>
      <trkpt lat="45.72431" lon="4.61288">
        <ele>675</ele>
        <time>2011-10-01T08:30:03Z</time>
      </trkpt>
      <trkpt lat="45.72431" lon="4.61288">
        <ele>676</ele>
        <time>2011-10-01T08:30:16Z</time>
      </trkpt>
      <trkpt lat="45.72431" lon="4.61288">
        <ele>676</ele>
        <time>2011-10-01T08:30:28Z</time>
      </trkpt>
      <trkpt lat="45.72431" lon="4.61288">
        <ele>676</ele>
        <time>2011-10-01T08:30:37Z</time>
      </trkpt>
      <trkpt lat="45.72431" lon="4.61289">
        <ele>676</ele>
        <time>2011-10-01T08:30:43Z</time>
      </trkpt>
      <trkpt lat="45.72431" lon="4.61289">
        <ele>675</ele>
        <time>2011-10-01T08:30:52Z</time>
      </trkpt>
      <trkpt lat="45.72431" lon="4.61289">
        <ele>675</ele>
        <time>2011-10-01T08:31:11Z</time>
      </trkpt>
      <trkpt lat="45.72431" lon="4.61289">
        <ele>675</ele>
        <time>2011-10-01T08:31:33Z</time>
      </trkpt>
      <trkpt lat="45.72431" lon="4.61289">
        <ele>676</ele>
        <time>2011-10-01T08:31:54Z</time>
      </trkpt>
      <trkpt lat="45.72431" lon="4.61289">
        <ele>675</ele>
        <time>2011-10-01T08:32:15Z</time>
      </trkpt>
      <trkpt lat="45.72431" lon="4.61289">
        <ele>675</ele>
        <time>2011-10-01T08:32:35Z</time>
      </trkpt>
      <trkpt lat="45.72431" lon="4.61289">
        <ele>674</ele>
        <time>2011-10-01T08:32:57Z</time>
      </trkpt>
      <trkpt lat="45.72431" lon="4.61289">
        <ele>676</ele>
        <time>2011-10-01T08:33:16Z</time>
      </trkpt>
      <trkpt lat="45.72431" lon="4.61289">
        <ele>675</ele>
        <time>2011-10-01T08:33:38Z</time>
      </trkpt>
      <trkpt lat="45.72431" lon="4.61289">
        <ele>675</ele>
        <time>2011-10-01T08:34:01Z</time>
      </trkpt>
      <trkpt lat="45.72431" lon="4.61289">
        <ele>676</ele>
        <time>2011-10-01T08:34:22Z</time>
      </trkpt>
      <trkpt lat="45.72431" lon="4.61289">
        <ele>676</ele>
        <time>2011-10-01T08:34:44Z</time>
      </trkpt>
      <trkpt lat="45.72431" lon="4.61289">
        <ele>675</ele>
        <time>2011-10-01T08:35:06Z</time>
      </trkpt>
      <trkpt lat="45.72431" lon="4.61289">
        <ele>675</ele>
        <time>2011-10-01T08:35:24Z</time>
      </trkpt>
      <trkpt lat="45.72431" lon="4.61289">
        <ele>675</ele>
        <time>2011-10-01T08:35:45Z</time>
      </trkpt>
      <trkpt lat="45.72431" lon="4.61289">
        <ele>675</ele>
        <time>2011-10-01T08:36:11Z</time>
      </trkpt>
      <trkpt lat="45.72431" lon="4.61289">
        <ele>675</ele>
        <time>2011-10-01T08:36:33Z</time>
      </trkpt>
      <trkpt lat="45.72432" lon="4.61289">
        <ele>675</ele>
        <time>2011-10-01T08:36:56Z</time>
      </trkpt>
      <trkpt lat="45.72432" lon="4.61289">
        <ele>675</ele>
        <time>2011-10-01T08:37:17Z</time>
      </trkpt>
      <trkpt lat="45.72431" lon="4.61289">
        <ele>675</ele>
        <time>2011-10-01T08:37:41Z</time>
      </trkpt>
      <trkpt lat="45.72431" lon="4.61289">
        <ele>675</ele>
        <time>2011-10-01T08:38:04Z</time>
      </trkpt>
      <trkpt lat="45.72431" lon="4.61289">
        <ele>676</ele>
        <time>2011-10-01T08:38:24Z</time>
      </trkpt>
      <trkpt lat="45.72431" lon="4.61288">
        <ele>676</ele>
        <time>2011-10-01T08:38:46Z</time>
      </trkpt>
      <trkpt lat="45.72431" lon="4.61288">
        <ele>675</ele>
        <time>2011-10-01T08:39:09Z</time>
      </trkpt>
      <trkpt lat="45.72431" lon="4.61288">
        <ele>675</ele>
        <time>2011-10-01T08:39:31Z</time>
      </trkpt>
      <trkpt lat="45.72431" lon="4.61288">
        <ele>675</ele>
        <time>2011-10-01T08:39:51Z</time>
      </trkpt>
      <trkpt lat="45.72431" lon="4.61288">
        <ele>676</ele>
        <time>2011-10-01T08:40:00Z</time>
      </trkpt>
      <trkpt lat="45.72431" lon="4.61288">
        <ele>675</ele>
        <time>2011-10-01T08:40:21Z</time>
      </trkpt>
      <trkpt lat="45.72431" lon="4.61288">
        <ele>675</ele>
        <time>2011-10-01T08:40:44Z</time>
      </trkpt>
      <trkpt lat="45.72431" lon="4.61288">
        <ele>674</ele>
        <time>2011-10-01T08:41:04Z</time>
      </trkpt>
      <trkpt lat="45.7243" lon="4.61287">
        <ele>675</ele>
        <time>2011-10-01T08:41:29Z</time>
      </trkpt>
      <trkpt lat="45.7243" lon="4.61287">
        <ele>675</ele>
        <time>2011-10-01T08:41:50Z</time>
      </trkpt>
      <trkpt lat="45.7243" lon="4.61287">
        <ele>675</ele>
        <time>2011-10-01T08:42:06Z</time>
      </trkpt>
      <trkpt lat="45.7243" lon="4.61287">
        <ele>675</ele>
        <time>2011-10-01T08:42:25Z</time>
      </trkpt>
      <trkpt lat="45.7243" lon="4.61287">
        <ele>676</ele>
        <time>2011-10-01T08:42:46Z</time>
      </trkpt>
      <trkpt lat="45.7243" lon="4.61287">
        <ele>675</ele>
        <time>2011-10-01T08:43:07Z</time>
      </trkpt>
      <trkpt lat="45.7243" lon="4.61287">
        <ele>675</ele>
        <time>2011-10-01T08:43:29Z</time>
      </trkpt>
      <trkpt lat="45.7243" lon="4.61287">
        <ele>675</ele>
        <time>2011-10-01T08:43:49Z</time>
      </trkpt>
      <trkpt lat="45.7243" lon="4.61288">
        <ele>675</ele>
        <time>2011-10-01T08:44:09Z</time>
      </trkpt>
      <trkpt lat="45.7243" lon="4.61288">
        <ele>676</ele>
        <time>2011-10-01T08:44:33Z</time>
      </trkpt>
      <trkpt lat="45.7243" lon="4.61288">
        <ele>675</ele>
        <time>2011-10-01T08:44:56Z</time>
      </trkpt>
      <trkpt lat="45.7243" lon="4.61288">
        <ele>676</ele>
        <time>2011-10-01T08:45:21Z</time>
      </trkpt>
      <trkpt lat="45.72429" lon="4.61288">
        <ele>675</ele>
        <time>2011-10-01T08:45:45Z</time>
      </trkpt>
      <trkpt lat="45.72429" lon="4.61287">
        <ele>675</ele>
        <time>2011-10-01T08:46:09Z</time>
      </trkpt>
      <trkpt lat="45.72429" lon="4.61287">
        <ele>675</ele>
        <time>2011-10-01T08:46:32Z</time>
      </trkpt>
      <trkpt lat="45.72429" lon="4.61287">
        <ele>675</ele>
        <time>2011-10-01T08:46:58Z</time>
      </trkpt>
      <trkpt lat="45.72429" lon="4.61287">
        <ele>675</ele>
        <time>2011-10-01T08:47:23Z</time>
      </trkpt>
      <trkpt lat="45.7243" lon="4.61287">
        <ele>676</ele>
        <time>2011-10-01T08:47:45Z</time>
      </trkpt>
      <trkpt lat="45.7243" lon="4.61287">
        <ele>676</ele>
        <time>2011-10-01T08:48:07Z</time>
      </trkpt>
      <trkpt lat="45.7243" lon="4.61287">
        <ele>676</ele>
        <time>2011-10-01T08:48:29Z</time>
      </trkpt>
      <trkpt lat="45.72429" lon="4.61288">
        <ele>676</ele>
        <time>2011-10-01T08:48:51Z</time>
      </trkpt>
      <trkpt lat="45.72429" lon="4.61288">
        <ele>676</ele>
        <time>2011-10-01T08:49:15Z</time>
      </trkpt>
      <trkpt lat="45.72429" lon="4.61288">
        <ele>676</ele>
        <time>2011-10-01T08:49:37Z</time>
      </trkpt>
      <trkpt lat="45.72429" lon="4.61288">
        <ele>676</ele>
        <time>2011-10-01T08:49:58Z</time>
      </trkpt>
      <trkpt lat="45.72431" lon="4.61287">
        <ele>676</ele>
        <time>2011-10-01T08:50:04Z</time>
      </trkpt>
      <trkpt lat="45.72432" lon="4.61288">
        <ele>676</ele>
        <time>2011-10-01T08:50:18Z</time>
      </trkpt>
      <trkpt lat="45.72432" lon="4.61288">
        <ele>675</ele>
        <time>2011-10-01T08:50:28Z</time>
      </trkpt>
      <trkpt lat="45.72432" lon="4.61288">
        <ele>676</ele>
        <time>2011-10-01T08:50:40Z</time>
      </trkpt>
      <trkpt lat="45.72432" lon="4.61288">
        <ele>676</ele>
        <time>2011-10-01T08:50:52Z</time>
      </trkpt>
      <trkpt lat="45.72432" lon="4.61288">
        <ele>676</ele>
        <time>2011-10-01T08:51:02Z</time>
      </trkpt>
      <trkpt lat="45.72432" lon="4.61288">
        <ele>676</ele>
        <time>2011-10-01T08:51:09Z</time>
      </trkpt>
      <trkpt lat="45.72432" lon="4.61288">
        <ele>676</ele>
        <time>2011-10-01T08:51:21Z</time>
      </trkpt>
      <trkpt lat="45.72432" lon="4.61288">
        <ele>677</ele>
        <time>2011-10-01T08:51:37Z</time>
      </trkpt>
      <trkpt lat="45.72432" lon="4.61288">
        <ele>676</ele>
        <time>2011-10-01T08:51:55Z</time>
      </trkpt>
      <trkpt lat="45.72432" lon="4.61288">
        <ele>676</ele>
        <time>2011-10-01T08:52:12Z</time>
      </trkpt>
      <trkpt lat="45.72433" lon="4.61289">
        <ele>676</ele>
        <time>2011-10-01T08:52:25Z</time>
      </trkpt>
      <trkpt lat="45.72433" lon="4.61291">
        <ele>676</ele>
        <time>2011-10-01T08:52:26Z</time>
      </trkpt>
      <trkpt lat="45.72433" lon="4.61294">
        <ele>675</ele>
        <time>2011-10-01T08:52:27Z</time>
      </trkpt>
      <trkpt lat="45.72433" lon="4.61298">
        <ele>674</ele>
        <time>2011-10-01T08:52:29Z</time>
      </trkpt>
      <trkpt lat="45.72434" lon="4.61305">
        <ele>674</ele>
        <time>2011-10-01T08:52:33Z</time>
      </trkpt>
      <trkpt lat="45.72436" lon="4.61313">
        <ele>673</ele>
        <time>2011-10-01T08:52:39Z</time>
      </trkpt>
      <trkpt lat="45.72436" lon="4.61315">
        <ele>673</ele>
        <time>2011-10-01T08:52:40Z</time>
      </trkpt>
      <trkpt lat="45.72436" lon="4.61317">
        <ele>673</ele>
        <time>2011-10-01T08:52:41Z</time>
      </trkpt>
      <trkpt lat="45.72437" lon="4.61319">
        <ele>673</ele>
        <time>2011-10-01T08:52:42Z</time>
      </trkpt>
      <trkpt lat="45.72438" lon="4.61323">
        <ele>672</ele>
        <time>2011-10-01T08:52:43Z</time>
      </trkpt>
      <trkpt lat="45.7244" lon="4.61328">
        <ele>672</ele>
        <time>2011-10-01T08:52:44Z</time>
      </trkpt>
      <trkpt lat="45.72444" lon="4.61342">
        <ele>670</ele>
        <time>2011-10-01T08:52:46Z</time>
      </trkpt>
      <trkpt lat="45.7245" lon="4.61381">
        <ele>667</ele>
        <time>2011-10-01T08:52:50Z</time>
      </trkpt>
      <trkpt lat="45.72453" lon="4.61402">
        <ele>665</ele>
        <time>2011-10-01T08:52:52Z</time>
      </trkpt>
      <trkpt lat="45.72454" lon="4.61412">
        <ele>664</ele>
        <time>2011-10-01T08:52:53Z</time>
      </trkpt>
      <trkpt lat="45.72457" lon="4.6142">
        <ele>663</ele>
        <time>2011-10-01T08:52:54Z</time>
      </trkpt>
      <trkpt lat="45.72469" lon="4.61447">
        <ele>660</ele>
        <time>2011-10-01T08:52:57Z</time>
      </trkpt>
      <trkpt lat="45.72483" lon="4.61474">
        <ele>657</ele>
        <time>2011-10-01T08:53:00Z</time>
      </trkpt>
      <trkpt lat="45.72488" lon="4.61482">
        <ele>656</ele>
        <time>2011-10-01T08:53:01Z</time>
      </trkpt>
      <trkpt lat="45.72492" lon="4.61491">
        <ele>654</ele>
        <time>2011-10-01T08:53:02Z</time>
      </trkpt>
      <trkpt lat="45.725" lon="4.61508">
        <ele>652</ele>
        <time>2011-10-01T08:53:04Z</time>
      </trkpt>
      <trkpt lat="45.72504" lon="4.61516">
        <ele>651</ele>
        <time>2011-10-01T08:53:05Z</time>
      </trkpt>
      <trkpt lat="45.72508" lon="4.61524">
        <ele>650</ele>
        <time>2011-10-01T08:53:06Z</time>
      </trkpt>
      <trkpt lat="45.72526" lon="4.61564">
        <ele>646</ele>
        <time>2011-10-01T08:53:10Z</time>
      </trkpt>
      <trkpt lat="45.72537" lon="4.61595">
        <ele>643</ele>
        <time>2011-10-01T08:53:13Z</time>
      </trkpt>
      <trkpt lat="45.7254" lon="4.61606">
        <ele>644</ele>
        <time>2011-10-01T08:53:14Z</time>
      </trkpt>
      <trkpt lat="45.72542" lon="4.61617">
        <ele>642</ele>
        <time>2011-10-01T08:53:15Z</time>
      </trkpt>
      <trkpt lat="45.72544" lon="4.61629">
        <ele>641</ele>
        <time>2011-10-01T08:53:16Z</time>
      </trkpt>
      <trkpt lat="45.72544" lon="4.61641">
        <ele>640</ele>
        <time>2011-10-01T08:53:17Z</time>
      </trkpt>
      <trkpt lat="45.72544" lon="4.61654">
        <ele>640</ele>
        <time>2011-10-01T08:53:18Z</time>
      </trkpt>
      <trkpt lat="45.72545" lon="4.61666">
        <ele>639</ele>
        <time>2011-10-01T08:53:19Z</time>
      </trkpt>
      <trkpt lat="45.72545" lon="4.6169">
        <ele>637</ele>
        <time>2011-10-01T08:53:21Z</time>
      </trkpt>
      <trkpt lat="45.72546" lon="4.617">
        <ele>636</ele>
        <time>2011-10-01T08:53:22Z</time>
      </trkpt>
      <trkpt lat="45.72547" lon="4.61709">
        <ele>636</ele>
        <time>2011-10-01T08:53:23Z</time>
      </trkpt>
      <trkpt lat="45.72547" lon="4.61718">
        <ele>635</ele>
        <time>2011-10-01T08:53:24Z</time>
      </trkpt>
      <trkpt lat="45.72548" lon="4.61728">
        <ele>635</ele>
        <time>2011-10-01T08:53:25Z</time>
      </trkpt>
      <trkpt lat="45.72552" lon="4.61776">
        <ele>631</ele>
        <time>2011-10-01T08:53:29Z</time>
      </trkpt>
      <trkpt lat="45.72552" lon="4.61787">
        <ele>629</ele>
        <time>2011-10-01T08:53:30Z</time>
      </trkpt>
      <trkpt lat="45.7255" lon="4.61797">
        <ele>628</ele>
        <time>2011-10-01T08:53:31Z</time>
      </trkpt>
      <trkpt lat="45.72549" lon="4.61807">
        <ele>628</ele>
        <time>2011-10-01T08:53:32Z</time>
      </trkpt>
      <trkpt lat="45.72546" lon="4.61815">
        <ele>627</ele>
        <time>2011-10-01T08:53:33Z</time>
      </trkpt>
      <trkpt lat="45.72541" lon="4.61829">
        <ele>625</ele>
        <time>2011-10-01T08:53:35Z</time>
      </trkpt>
      <trkpt lat="45.72538" lon="4.61837">
        <ele>624</ele>
        <time>2011-10-01T08:53:36Z</time>
      </trkpt>
      <trkpt lat="45.72536" lon="4.61846">
        <ele>624</ele>
        <time>2011-10-01T08:53:37Z</time>
      </trkpt>
      <trkpt lat="45.72534" lon="4.61855">
        <ele>623</ele>
        <time>2011-10-01T08:53:38Z</time>
      </trkpt>
      <trkpt lat="45.72532" lon="4.61862">
        <ele>620</ele>
        <time>2011-10-01T08:53:39Z</time>
      </trkpt>
      <trkpt lat="45.72531" lon="4.61868">
        <ele>619</ele>
        <time>2011-10-01T08:53:40Z</time>
      </trkpt>
      <trkpt lat="45.7253" lon="4.61874">
        <ele>618</ele>
        <time>2011-10-01T08:53:41Z</time>
      </trkpt>
      <trkpt lat="45.72531" lon="4.61879">
        <ele>617</ele>
        <time>2011-10-01T08:53:42Z</time>
      </trkpt>
      <trkpt lat="45.72534" lon="4.61891">
        <ele>615</ele>
        <time>2011-10-01T08:53:45Z</time>
      </trkpt>
      <trkpt lat="45.72537" lon="4.61896">
        <ele>614</ele>
        <time>2011-10-01T08:53:46Z</time>
      </trkpt>
      <trkpt lat="45.7254" lon="4.619">
        <ele>614</ele>
        <time>2011-10-01T08:53:47Z</time>
      </trkpt>
      <trkpt lat="45.72544" lon="4.61905">
        <ele>613</ele>
        <time>2011-10-01T08:53:48Z</time>
      </trkpt>
      <trkpt lat="45.72549" lon="4.61909">
        <ele>612</ele>
        <time>2011-10-01T08:53:49Z</time>
      </trkpt>
      <trkpt lat="45.72555" lon="4.61914">
        <ele>611</ele>
        <time>2011-10-01T08:53:50Z</time>
      </trkpt>
      <trkpt lat="45.72566" lon="4.61921">
        <ele>610</ele>
        <time>2011-10-01T08:53:52Z</time>
      </trkpt>
      <trkpt lat="45.72573" lon="4.61925">
        <ele>610</ele>
        <time>2011-10-01T08:53:53Z</time>
      </trkpt>
      <trkpt lat="45.7258" lon="4.61929">
        <ele>609</ele>
        <time>2011-10-01T08:53:54Z</time>
      </trkpt>
      <trkpt lat="45.72587" lon="4.61932">
        <ele>608</ele>
        <time>2011-10-01T08:53:55Z</time>
      </trkpt>
      <trkpt lat="45.72595" lon="4.61934">
        <ele>607</ele>
        <time>2011-10-01T08:53:56Z</time>
      </trkpt>
      <trkpt lat="45.72602" lon="4.61936">
        <ele>607</ele>
        <time>2011-10-01T08:53:57Z</time>
      </trkpt>
      <trkpt lat="45.72609" lon="4.6194">
        <ele>606</ele>
        <time>2011-10-01T08:53:58Z</time>
      </trkpt>
      <trkpt lat="45.72615" lon="4.61946">
        <ele>607</ele>
        <time>2011-10-01T08:53:59Z</time>
      </trkpt>
      <trkpt lat="45.72622" lon="4.61952">
        <ele>605</ele>
        <time>2011-10-01T08:54:00Z</time>
      </trkpt>
      <trkpt lat="45.72627" lon="4.61958">
        <ele>605</ele>
        <time>2011-10-01T08:54:01Z</time>
      </trkpt>
      <trkpt lat="45.72633" lon="4.61964">
        <ele>604</ele>
        <time>2011-10-01T08:54:02Z</time>
      </trkpt>
      <trkpt lat="45.7264" lon="4.61971">
        <ele>604</ele>
        <time>2011-10-01T08:54:03Z</time>
      </trkpt>
      <trkpt lat="45.72655" lon="4.61988">
        <ele>600</ele>
        <time>2011-10-01T08:54:05Z</time>
      </trkpt>
      <trkpt lat="45.72673" lon="4.62013">
        <ele>597</ele>
        <time>2011-10-01T08:54:08Z</time>
      </trkpt>
      <trkpt lat="45.72695" lon="4.62041">
        <ele>592</ele>
        <time>2011-10-01T08:54:12Z</time>
      </trkpt>
      <trkpt lat="45.72702" lon="4.62048">
        <ele>591</ele>
        <time>2011-10-01T08:54:13Z</time>
      </trkpt>
      <trkpt lat="45.72716" lon="4.62058">
        <ele>590</ele>
        <time>2011-10-01T08:54:15Z</time>
      </trkpt>
      <trkpt lat="45.72723" lon="4.62062">
        <ele>588</ele>
        <time>2011-10-01T08:54:16Z</time>
      </trkpt>
      <trkpt lat="45.72729" lon="4.62064">
        <ele>587</ele>
        <time>2011-10-01T08:54:17Z</time>
      </trkpt>
      <trkpt lat="45.72735" lon="4.62068">
        <ele>587</ele>
        <time>2011-10-01T08:54:18Z</time>
      </trkpt>
      <trkpt lat="45.72739" lon="4.62072">
        <ele>586</ele>
        <time>2011-10-01T08:54:19Z</time>
      </trkpt>
      <trkpt lat="45.72742" lon="4.62077">
        <ele>585</ele>
        <time>2011-10-01T08:54:20Z</time>
      </trkpt>
      <trkpt lat="45.72743" lon="4.6208">
        <ele>584</ele>
        <time>2011-10-01T08:54:21Z</time>
      </trkpt>
      <trkpt lat="45.72743" lon="4.62084">
        <ele>583</ele>
        <time>2011-10-01T08:54:22Z</time>
      </trkpt>
      <trkpt lat="45.72742" lon="4.62088">
        <ele>583</ele>
        <time>2011-10-01T08:54:23Z</time>
      </trkpt>
      <trkpt lat="45.72739" lon="4.6209">
        <ele>583</ele>
        <time>2011-10-01T08:54:24Z</time>
      </trkpt>
      <trkpt lat="45.72736" lon="4.62092">
        <ele>582</ele>
        <time>2011-10-01T08:54:25Z</time>
      </trkpt>
      <trkpt lat="45.72717" lon="4.62102">
        <ele>579</ele>
        <time>2011-10-01T08:54:29Z</time>
      </trkpt>
      <trkpt lat="45.72712" lon="4.62106">
        <ele>578</ele>
        <time>2011-10-01T08:54:30Z</time>
      </trkpt>
      <trkpt lat="45.72695" lon="4.62119">
        <ele>575</ele>
        <time>2011-10-01T08:54:33Z</time>
      </trkpt>
      <trkpt lat="45.72683" lon="4.62126">
        <ele>573</ele>
        <time>2011-10-01T08:54:35Z</time>
      </trkpt>
      <trkpt lat="45.72675" lon="4.62128">
        <ele>572</ele>
        <time>2011-10-01T08:54:36Z</time>
      </trkpt>
      <trkpt lat="45.72668" lon="4.62129">
        <ele>570</ele>
        <time>2011-10-01T08:54:37Z</time>
      </trkpt>
      <trkpt lat="45.72661" lon="4.62128">
        <ele>569</ele>
        <time>2011-10-01T08:54:38Z</time>
      </trkpt>
      <trkpt lat="45.72654" lon="4.62126">
        <ele>568</ele>
        <time>2011-10-01T08:54:39Z</time>
      </trkpt>
      <trkpt lat="45.72648" lon="4.62123">
        <ele>566</ele>
        <time>2011-10-01T08:54:40Z</time>
      </trkpt>
      <trkpt lat="45.72642" lon="4.62119">
        <ele>565</ele>
        <time>2011-10-01T08:54:41Z</time>
      </trkpt>
      <trkpt lat="45.72637" lon="4.62114">
        <ele>564</ele>
        <time>2011-10-01T08:54:42Z</time>
      </trkpt>
      <trkpt lat="45.72631" lon="4.62108">
        <ele>563</ele>
        <time>2011-10-01T08:54:43Z</time>
      </trkpt>
      <trkpt lat="45.72624" lon="4.62102">
        <ele>562</ele>
        <time>2011-10-01T08:54:44Z</time>
      </trkpt>
      <trkpt lat="45.72616" lon="4.62097">
        <ele>561</ele>
        <time>2011-10-01T08:54:45Z</time>
      </trkpt>
      <trkpt lat="45.72607" lon="4.62093">
        <ele>560</ele>
        <time>2011-10-01T08:54:46Z</time>
      </trkpt>
      <trkpt lat="45.72598" lon="4.62091">
        <ele>558</ele>
        <time>2011-10-01T08:54:47Z</time>
      </trkpt>
      <trkpt lat="45.7259" lon="4.6209">
        <ele>556</ele>
        <time>2011-10-01T08:54:48Z</time>
      </trkpt>
      <trkpt lat="45.72583" lon="4.62089">
        <ele>554</ele>
        <time>2011-10-01T08:54:49Z</time>
      </trkpt>
      <trkpt lat="45.72572" lon="4.62092">
        <ele>553</ele>
        <time>2011-10-01T08:54:51Z</time>
      </trkpt>
      <trkpt lat="45.72567" lon="4.62095">
        <ele>553</ele>
        <time>2011-10-01T08:54:52Z</time>
      </trkpt>
      <trkpt lat="45.72563" lon="4.621">
        <ele>552</ele>
        <time>2011-10-01T08:54:53Z</time>
      </trkpt>
      <trkpt lat="45.72559" lon="4.62108">
        <ele>552</ele>
        <time>2011-10-01T08:54:54Z</time>
      </trkpt>
      <trkpt lat="45.72556" lon="4.62116">
        <ele>551</ele>
        <time>2011-10-01T08:54:55Z</time>
      </trkpt>
      <trkpt lat="45.72554" lon="4.62125">
        <ele>550</ele>
        <time>2011-10-01T08:54:56Z</time>
      </trkpt>
      <trkpt lat="45.72552" lon="4.62135">
        <ele>550</ele>
        <time>2011-10-01T08:54:57Z</time>
      </trkpt>
      <trkpt lat="45.7255" lon="4.62166">
        <ele>547</ele>
        <time>2011-10-01T08:55:00Z</time>
      </trkpt>
      <trkpt lat="45.72548" lon="4.62177">
        <ele>547</ele>
        <time>2011-10-01T08:55:01Z</time>
      </trkpt>
      <trkpt lat="45.72545" lon="4.62188">
        <ele>545</ele>
        <time>2011-10-01T08:55:02Z</time>
      </trkpt>
      <trkpt lat="45.72542" lon="4.62199">
        <ele>543</ele>
        <time>2011-10-01T08:55:03Z</time>
      </trkpt>
      <trkpt lat="45.72538" lon="4.62209">
        <ele>543</ele>
        <time>2011-10-01T08:55:04Z</time>
      </trkpt>
      <trkpt lat="45.72534" lon="4.62218">
        <ele>542</ele>
        <time>2011-10-01T08:55:05Z</time>
      </trkpt>
      <trkpt lat="45.72529" lon="4.62228">
        <ele>541</ele>
        <time>2011-10-01T08:55:06Z</time>
      </trkpt>
      <trkpt lat="45.72523" lon="4.62237">
        <ele>541</ele>
        <time>2011-10-01T08:55:07Z</time>
      </trkpt>
      <trkpt lat="45.72517" lon="4.62245">
        <ele>540</ele>
        <time>2011-10-01T08:55:08Z</time>
      </trkpt>
      <trkpt lat="45.72511" lon="4.62254">
        <ele>539</ele>
        <time>2011-10-01T08:55:09Z</time>
      </trkpt>
      <trkpt lat="45.72494" lon="4.62282">
        <ele>537</ele>
        <time>2011-10-01T08:55:12Z</time>
      </trkpt>
      <trkpt lat="45.7249" lon="4.62289">
        <ele>537</ele>
        <time>2011-10-01T08:55:13Z</time>
      </trkpt>
      <trkpt lat="45.72483" lon="4.623">
        <ele>536</ele>
        <time>2011-10-01T08:55:16Z</time>
      </trkpt>
      <trkpt lat="45.72473" lon="4.62316">
        <ele>533</ele>
        <time>2011-10-01T08:55:23Z</time>
      </trkpt>
      <trkpt lat="45.72472" lon="4.62317">
        <ele>533</ele>
        <time>2011-10-01T08:55:29Z</time>
      </trkpt>
      <trkpt lat="45.72472" lon="4.62317">
        <ele>533</ele>
        <time>2011-10-01T08:55:38Z</time>
      </trkpt>
      <trkpt lat="45.72472" lon="4.62317">
        <ele>533</ele>
        <time>2011-10-01T08:55:53Z</time>
      </trkpt>
      <trkpt lat="45.72471" lon="4.62317">
        <ele>533</ele>
        <time>2011-10-01T08:55:55Z</time>
      </trkpt>
      <trkpt lat="45.72469" lon="4.62318">
        <ele>532</ele>
        <time>2011-10-01T08:55:56Z</time>
      </trkpt>
      <trkpt lat="45.72467" lon="4.6232">
        <ele>533</ele>
        <time>2011-10-01T08:55:57Z</time>
      </trkpt>
      <trkpt lat="45.72465" lon="4.62324">
        <ele>532</ele>
        <time>2011-10-01T08:55:58Z</time>
      </trkpt>
      <trkpt lat="45.72464" lon="4.62329">
        <ele>531</ele>
        <time>2011-10-01T08:55:59Z</time>
      </trkpt>
      <trkpt lat="45.72464" lon="4.62334">
        <ele>531</ele>
        <time>2011-10-01T08:56:00Z</time>
      </trkpt>
      <trkpt lat="45.72464" lon="4.6234">
        <ele>530</ele>
        <time>2011-10-01T08:56:01Z</time>
      </trkpt>
      <trkpt lat="45.72465" lon="4.62346">
        <ele>530</ele>
        <time>2011-10-01T08:56:02Z</time>
      </trkpt>
      <trkpt lat="45.72466" lon="4.62352">
        <ele>529</ele>
        <time>2011-10-01T08:56:03Z</time>
      </trkpt>
      <trkpt lat="45.72466" lon="4.62359">
        <ele>529</ele>
        <time>2011-10-01T08:56:04Z</time>
      </trkpt>
      <trkpt lat="45.72466" lon="4.62366">
        <ele>528</ele>
        <time>2011-10-01T08:56:05Z</time>
      </trkpt>
      <trkpt lat="45.72466" lon="4.62372">
        <ele>528</ele>
        <time>2011-10-01T08:56:06Z</time>
      </trkpt>
      <trkpt lat="45.72465" lon="4.62378">
        <ele>528</ele>
        <time>2011-10-01T08:56:07Z</time>
      </trkpt>
      <trkpt lat="45.72465" lon="4.62384">
        <ele>527</ele>
        <time>2011-10-01T08:56:08Z</time>
      </trkpt>
      <trkpt lat="45.72464" lon="4.62391">
        <ele>527</ele>
        <time>2011-10-01T08:56:09Z</time>
      </trkpt>
      <trkpt lat="45.72456" lon="4.62433">
        <ele>524</ele>
        <time>2011-10-01T08:56:16Z</time>
      </trkpt>
      <trkpt lat="45.72448" lon="4.62464">
        <ele>522</ele>
        <time>2011-10-01T08:56:22Z</time>
      </trkpt>
      <trkpt lat="45.72444" lon="4.6248">
        <ele>519</ele>
        <time>2011-10-01T08:56:26Z</time>
      </trkpt>
      <trkpt lat="45.72442" lon="4.62487">
        <ele>517</ele>
        <time>2011-10-01T08:56:29Z</time>
      </trkpt>
      <trkpt lat="45.72441" lon="4.62496">
        <ele>519</ele>
        <time>2011-10-01T08:56:31Z</time>
      </trkpt>
      <trkpt lat="45.72441" lon="4.625">
        <ele>518</ele>
        <time>2011-10-01T08:56:32Z</time>
      </trkpt>
      <trkpt lat="45.72435" lon="4.62529">
        <ele>517</ele>
        <time>2011-10-01T08:56:37Z</time>
      </trkpt>
      <trkpt lat="45.72429" lon="4.62556">
        <ele>513</ele>
        <time>2011-10-01T08:56:41Z</time>
      </trkpt>
      <trkpt lat="45.72424" lon="4.62586">
        <ele>510</ele>
        <time>2011-10-01T08:56:45Z</time>
      </trkpt>
      <trkpt lat="45.72423" lon="4.62592">
        <ele>508</ele>
        <time>2011-10-01T08:56:46Z</time>
      </trkpt>
      <trkpt lat="45.72421" lon="4.62598">
        <ele>506</ele>
        <time>2011-10-01T08:56:47Z</time>
      </trkpt>
      <trkpt lat="45.7242" lon="4.62605">
        <ele>506</ele>
        <time>2011-10-01T08:56:48Z</time>
      </trkpt>
      <trkpt lat="45.7242" lon="4.62613">
        <ele>506</ele>
        <time>2011-10-01T08:56:49Z</time>
      </trkpt>
      <trkpt lat="45.72421" lon="4.62621">
        <ele>505</ele>
        <time>2011-10-01T08:56:50Z</time>
      </trkpt>
      <trkpt lat="45.72423" lon="4.62629">
        <ele>504</ele>
        <time>2011-10-01T08:56:51Z</time>
      </trkpt>
      <trkpt lat="45.72426" lon="4.62637">
        <ele>503</ele>
        <time>2011-10-01T08:56:52Z</time>
      </trkpt>
      <trkpt lat="45.72428" lon="4.62642">
        <ele>502</ele>
        <time>2011-10-01T08:56:53Z</time>
      </trkpt>
      <trkpt lat="45.7243" lon="4.62646">
        <ele>502</ele>
        <time>2011-10-01T08:56:54Z</time>
      </trkpt>
      <trkpt lat="45.72432" lon="4.6265">
        <ele>501</ele>
        <time>2011-10-01T08:56:55Z</time>
      </trkpt>
      <trkpt lat="45.7244" lon="4.6266">
        <ele>500</ele>
        <time>2011-10-01T08:56:58Z</time>
      </trkpt>
      <trkpt lat="45.72444" lon="4.62665">
        <ele>500</ele>
        <time>2011-10-01T08:56:59Z</time>
      </trkpt>
      <trkpt lat="45.72453" lon="4.62676">
        <ele>499</ele>
        <time>2011-10-01T08:57:01Z</time>
      </trkpt>
      <trkpt lat="45.72459" lon="4.62681">
        <ele>497</ele>
        <time>2011-10-01T08:57:02Z</time>
      </trkpt>
      <trkpt lat="45.72465" lon="4.62685">
        <ele>496</ele>
        <time>2011-10-01T08:57:03Z</time>
      </trkpt>
      <trkpt lat="45.7247" lon="4.62687">
        <ele>494</ele>
        <time>2011-10-01T08:57:04Z</time>
      </trkpt>
      <trkpt lat="45.72475" lon="4.62688">
        <ele>493</ele>
        <time>2011-10-01T08:57:05Z</time>
      </trkpt>
      <trkpt lat="45.7248" lon="4.62688">
        <ele>492</ele>
        <time>2011-10-01T08:57:06Z</time>
      </trkpt>
      <trkpt lat="45.72496" lon="4.62689">
        <ele>488</ele>
        <time>2011-10-01T08:57:09Z</time>
      </trkpt>
      <trkpt lat="45.72502" lon="4.62689">
        <ele>487</ele>
        <time>2011-10-01T08:57:10Z</time>
      </trkpt>
      <trkpt lat="45.72515" lon="4.62686">
        <ele>484</ele>
        <time>2011-10-01T08:57:12Z</time>
      </trkpt>
      <trkpt lat="45.72528" lon="4.62682">
        <ele>480</ele>
        <time>2011-10-01T08:57:14Z</time>
      </trkpt>
      <trkpt lat="45.72546" lon="4.62676">
        <ele>477</ele>
        <time>2011-10-01T08:57:17Z</time>
      </trkpt>
      <trkpt lat="45.72565" lon="4.62673">
        <ele>474</ele>
        <time>2011-10-01T08:57:20Z</time>
      </trkpt>
      <trkpt lat="45.72581" lon="4.6267">
        <ele>471</ele>
        <time>2011-10-01T08:57:23Z</time>
      </trkpt>
      <trkpt lat="45.72586" lon="4.62671">
        <ele>471</ele>
        <time>2011-10-01T08:57:24Z</time>
      </trkpt>
      <trkpt lat="45.72591" lon="4.62671">
        <ele>470</ele>
        <time>2011-10-01T08:57:25Z</time>
      </trkpt>
      <trkpt lat="45.72595" lon="4.62672">
        <ele>469</ele>
        <time>2011-10-01T08:57:26Z</time>
      </trkpt>
      <trkpt lat="45.72598" lon="4.62674">
        <ele>469</ele>
        <time>2011-10-01T08:57:27Z</time>
      </trkpt>
      <trkpt lat="45.72607" lon="4.62678">
        <ele>467</ele>
        <time>2011-10-01T08:57:30Z</time>
      </trkpt>
      <trkpt lat="45.7261" lon="4.6268">
        <ele>467</ele>
        <time>2011-10-01T08:57:31Z</time>
      </trkpt>
      <trkpt lat="45.72612" lon="4.62684">
        <ele>467</ele>
        <time>2011-10-01T08:57:32Z</time>
      </trkpt>
      <trkpt lat="45.72625" lon="4.62705">
        <ele>466</ele>
        <time>2011-10-01T08:57:39Z</time>
      </trkpt>
      <trkpt lat="45.72646" lon="4.62714">
        <ele>464</ele>
        <time>2011-10-01T08:57:46Z</time>
      </trkpt>
      <trkpt lat="45.72656" lon="4.62718">
        <ele>464</ele>
        <time>2011-10-01T08:57:48Z</time>
      </trkpt>
      <trkpt lat="45.7266" lon="4.62721">
        <ele>464</ele>
        <time>2011-10-01T08:57:49Z</time>
      </trkpt>
      <trkpt lat="45.72663" lon="4.62725">
        <ele>464</ele>
        <time>2011-10-01T08:57:50Z</time>
      </trkpt>
      <trkpt lat="45.72666" lon="4.6273">
        <ele>464</ele>
        <time>2011-10-01T08:57:51Z</time>
      </trkpt>
      <trkpt lat="45.72667" lon="4.62734">
        <ele>464</ele>
        <time>2011-10-01T08:57:52Z</time>
      </trkpt>
      <trkpt lat="45.72668" lon="4.62737">
        <ele>465</ele>
        <time>2011-10-01T08:57:53Z</time>
      </trkpt>
      <trkpt lat="45.72668" lon="4.6274">
        <ele>465</ele>
        <time>2011-10-01T08:57:54Z</time>
      </trkpt>
      <trkpt lat="45.72668" lon="4.62743">
        <ele>465</ele>
        <time>2011-10-01T08:57:55Z</time>
      </trkpt>
      <trkpt lat="45.72668" lon="4.62746">
        <ele>465</ele>
        <time>2011-10-01T08:57:56Z</time>
      </trkpt>
      <trkpt lat="45.72668" lon="4.62749">
        <ele>465</ele>
        <time>2011-10-01T08:57:57Z</time>
      </trkpt>
      <trkpt lat="45.72667" lon="4.62751">
        <ele>466</ele>
        <time>2011-10-01T08:57:58Z</time>
      </trkpt>
      <trkpt lat="45.72667" lon="4.62754">
        <ele>466</ele>
        <time>2011-10-01T08:57:59Z</time>
      </trkpt>
      <trkpt lat="45.72666" lon="4.62756">
        <ele>466</ele>
        <time>2011-10-01T08:58:00Z</time>
      </trkpt>
      <trkpt lat="45.72665" lon="4.62757">
        <ele>466</ele>
        <time>2011-10-01T08:58:01Z</time>
      </trkpt>
      <trkpt lat="45.72664" lon="4.62759">
        <ele>466</ele>
        <time>2011-10-01T08:58:02Z</time>
      </trkpt>
      <trkpt lat="45.72663" lon="4.62762">
        <ele>467</ele>
        <time>2011-10-01T08:58:03Z</time>
      </trkpt>
      <trkpt lat="45.72656" lon="4.62773">
        <ele>469</ele>
        <time>2011-10-01T08:58:08Z</time>
      </trkpt>
      <trkpt lat="45.72655" lon="4.62774">
        <ele>468</ele>
        <time>2011-10-01T08:58:09Z</time>
      </trkpt>
      <trkpt lat="45.72653" lon="4.62776">
        <ele>469</ele>
        <time>2011-10-01T08:58:10Z</time>
      </trkpt>
      <trkpt lat="45.72652" lon="4.62778">
        <ele>468</ele>
        <time>2011-10-01T08:58:11Z</time>
      </trkpt>
      <trkpt lat="45.72651" lon="4.62779">
        <ele>469</ele>
        <time>2011-10-01T08:58:12Z</time>
      </trkpt>
      <trkpt lat="45.72649" lon="4.62781">
        <ele>469</ele>
        <time>2011-10-01T08:58:13Z</time>
      </trkpt>
      <trkpt lat="45.72647" lon="4.62783">
        <ele>469</ele>
        <time>2011-10-01T08:58:14Z</time>
      </trkpt>
      <trkpt lat="45.72644" lon="4.62784">
        <ele>469</ele>
        <time>2011-10-01T08:58:15Z</time>
      </trkpt>
      <trkpt lat="45.72642" lon="4.62786">
        <ele>467</ele>
        <time>2011-10-01T08:58:16Z</time>
      </trkpt>
      <trkpt lat="45.7264" lon="4.62787">
        <ele>470</ele>
        <time>2011-10-01T08:58:17Z</time>
      </trkpt>
      <trkpt lat="45.72626" lon="4.62799">
        <ele>472</ele>
        <time>2011-10-01T08:58:24Z</time>
      </trkpt>
      <trkpt lat="45.72612" lon="4.62816">
        <ele>470</ele>
        <time>2011-10-01T08:58:31Z</time>
      </trkpt>
      <trkpt lat="45.72596" lon="4.62841">
        <ele>469</ele>
        <time>2011-10-01T08:58:38Z</time>
      </trkpt>
      <trkpt lat="45.72581" lon="4.6287">
        <ele>469</ele>
        <time>2011-10-01T08:58:45Z</time>
      </trkpt>
      <trkpt lat="45.72562" lon="4.62909">
        <ele>470</ele>
        <time>2011-10-01T08:58:54Z</time>
      </trkpt>
      <trkpt lat="45.72545" lon="4.62944">
        <ele>471</ele>
        <time>2011-10-01T08:59:03Z</time>
      </trkpt>
      <trkpt lat="45.72528" lon="4.62968">
        <ele>472</ele>
        <time>2011-10-01T08:59:11Z</time>
      </trkpt>
      <trkpt lat="45.72508" lon="4.62998">
        <ele>474</ele>
        <time>2011-10-01T08:59:21Z</time>
      </trkpt>
      <trkpt lat="45.72492" lon="4.63034">
        <ele>474</ele>
        <time>2011-10-01T08:59:31Z</time>
      </trkpt>
      <trkpt lat="45.72482" lon="4.63071">
        <ele>474</ele>
        <time>2011-10-01T08:59:40Z</time>
      </trkpt>
      <trkpt lat="45.72476" lon="4.631">
        <ele>475</ele>
        <time>2011-10-01T08:59:47Z</time>
      </trkpt>
      <trkpt lat="45.72468" lon="4.63128">
        <ele>476</ele>
        <time>2011-10-01T08:59:54Z</time>
      </trkpt>
      <trkpt lat="45.72449" lon="4.63151">
        <ele>476</ele>
        <time>2011-10-01T09:00:02Z</time>
      </trkpt>
      <trkpt lat="45.72438" lon="4.63166">
        <ele>477</ele>
        <time>2011-10-01T09:00:08Z</time>
      </trkpt>
      <trkpt lat="45.7243" lon="4.63184">
        <ele>479</ele>
        <time>2011-10-01T09:00:17Z</time>
      </trkpt>
      <trkpt lat="45.72424" lon="4.63202">
        <ele>481</ele>
        <time>2011-10-01T09:00:25Z</time>
      </trkpt>
      <trkpt lat="45.72418" lon="4.63223">
        <ele>482</ele>
        <time>2011-10-01T09:00:35Z</time>
      </trkpt>
      <trkpt lat="45.72412" lon="4.63237">
        <ele>483</ele>
        <time>2011-10-01T09:00:42Z</time>
      </trkpt>
      <trkpt lat="45.7241" lon="4.6324">
        <ele>483</ele>
        <time>2011-10-01T09:00:48Z</time>
      </trkpt>
      <trkpt lat="45.72407" lon="4.63245">
        <ele>483</ele>
        <time>2011-10-01T09:00:55Z</time>
      </trkpt>
      <trkpt lat="45.72392" lon="4.63266">
        <ele>483</ele>
        <time>2011-10-01T09:01:02Z</time>
      </trkpt>
      <trkpt lat="45.72376" lon="4.63283">
        <ele>483</ele>
        <time>2011-10-01T09:01:09Z</time>
      </trkpt>
      <trkpt lat="45.72359" lon="4.63301">
        <ele>483</ele>
        <time>2011-10-01T09:01:16Z</time>
      </trkpt>
      <trkpt lat="45.72338" lon="4.63322">
        <ele>483</ele>
        <time>2011-10-01T09:01:24Z</time>
      </trkpt>
      <trkpt lat="45.72329" lon="4.63339">
        <ele>483</ele>
        <time>2011-10-01T09:01:30Z</time>
      </trkpt>
      <trkpt lat="45.7233" lon="4.63342">
        <ele>482</ele>
        <time>2011-10-01T09:01:31Z</time>
      </trkpt>
      <trkpt lat="45.72331" lon="4.63344">
        <ele>483</ele>
        <time>2011-10-01T09:01:32Z</time>
      </trkpt>
      <trkpt lat="45.72333" lon="4.63345">
        <ele>483</ele>
        <time>2011-10-01T09:01:33Z</time>
      </trkpt>
      <trkpt lat="45.72335" lon="4.63347">
        <ele>483</ele>
        <time>2011-10-01T09:01:34Z</time>
      </trkpt>
      <trkpt lat="45.72336" lon="4.63348">
        <ele>484</ele>
        <time>2011-10-01T09:01:35Z</time>
      </trkpt>
      <trkpt lat="45.72338" lon="4.63349">
        <ele>484</ele>
        <time>2011-10-01T09:01:36Z</time>
      </trkpt>
      <trkpt lat="45.7234" lon="4.63349">
        <ele>485</ele>
        <time>2011-10-01T09:01:37Z</time>
      </trkpt>
      <trkpt lat="45.72348" lon="4.63357">
        <ele>487</ele>
        <time>2011-10-01T09:01:44Z</time>
      </trkpt>
      <trkpt lat="45.72354" lon="4.63365">
        <ele>488</ele>
        <time>2011-10-01T09:01:50Z</time>
      </trkpt>
      <trkpt lat="45.72355" lon="4.63366">
        <ele>488</ele>
        <time>2011-10-01T09:01:51Z</time>
      </trkpt>
      <trkpt lat="45.72356" lon="4.63366">
        <ele>488</ele>
        <time>2011-10-01T09:01:52Z</time>
      </trkpt>
      <trkpt lat="45.72357" lon="4.63365">
        <ele>488</ele>
        <time>2011-10-01T09:01:53Z</time>
      </trkpt>
      <trkpt lat="45.72358" lon="4.63363">
        <ele>488</ele>
        <time>2011-10-01T09:01:54Z</time>
      </trkpt>
      <trkpt lat="45.7236" lon="4.63362">
        <ele>488</ele>
        <time>2011-10-01T09:01:55Z</time>
      </trkpt>
      <trkpt lat="45.72371" lon="4.63358">
        <ele>489</ele>
        <time>2011-10-01T09:02:03Z</time>
      </trkpt>
      <trkpt lat="45.7238" lon="4.63352">
        <ele>490</ele>
        <time>2011-10-01T09:02:10Z</time>
      </trkpt>
      <trkpt lat="45.72381" lon="4.63351">
        <ele>491</ele>
        <time>2011-10-01T09:02:11Z</time>
      </trkpt>
      <trkpt lat="45.72383" lon="4.63351">
        <ele>491</ele>
        <time>2011-10-01T09:02:12Z</time>
      </trkpt>
      <trkpt lat="45.72384" lon="4.6335">
        <ele>491</ele>
        <time>2011-10-01T09:02:13Z</time>
      </trkpt>
      <trkpt lat="45.72385" lon="4.63349">
        <ele>491</ele>
        <time>2011-10-01T09:02:14Z</time>
      </trkpt>
      <trkpt lat="45.72386" lon="4.63348">
        <ele>491</ele>
        <time>2011-10-01T09:02:15Z</time>
      </trkpt>
      <trkpt lat="45.72387" lon="4.63347">
        <ele>491</ele>
        <time>2011-10-01T09:02:16Z</time>
      </trkpt>
      <trkpt lat="45.72389" lon="4.63346">
        <ele>492</ele>
        <time>2011-10-01T09:02:17Z</time>
      </trkpt>
      <trkpt lat="45.72399" lon="4.63339">
        <ele>494</ele>
        <time>2011-10-01T09:02:26Z</time>
      </trkpt>
      <trkpt lat="45.72401" lon="4.63337">
        <ele>495</ele>
        <time>2011-10-01T09:02:28Z</time>
      </trkpt>
      <trkpt lat="45.72402" lon="4.63337">
        <ele>494</ele>
        <time>2011-10-01T09:02:29Z</time>
      </trkpt>
      <trkpt lat="45.72414" lon="4.63332">
        <ele>497</ele>
        <time>2011-10-01T09:02:38Z</time>
      </trkpt>
      <trkpt lat="45.72423" lon="4.63333">
        <ele>499</ele>
        <time>2011-10-01T09:02:46Z</time>
      </trkpt>
      <trkpt lat="45.72425" lon="4.63337">
        <ele>500</ele>
        <time>2011-10-01T09:02:49Z</time>
      </trkpt>
      <trkpt lat="45.72426" lon="4.63338">
        <ele>499</ele>
        <time>2011-10-01T09:02:50Z</time>
      </trkpt>
      <trkpt lat="45.72426" lon="4.6334">
        <ele>500</ele>
        <time>2011-10-01T09:02:51Z</time>
      </trkpt>
      <trkpt lat="45.72427" lon="4.63342">
        <ele>500</ele>
        <time>2011-10-01T09:02:52Z</time>
      </trkpt>
      <trkpt lat="45.72427" lon="4.63343">
        <ele>500</ele>
        <time>2011-10-01T09:02:53Z</time>
      </trkpt>
      <trkpt lat="45.72428" lon="4.63349">
        <ele>500</ele>
        <time>2011-10-01T09:02:57Z</time>
      </trkpt>
      <trkpt lat="45.72435" lon="4.63359">
        <ele>503</ele>
        <time>2011-10-01T09:03:06Z</time>
      </trkpt>
      <trkpt lat="45.72443" lon="4.63369">
        <ele>505</ele>
        <time>2011-10-01T09:03:15Z</time>
      </trkpt>
      <trkpt lat="45.72453" lon="4.63369">
        <ele>508</ele>
        <time>2011-10-01T09:03:25Z</time>
      </trkpt>
      <trkpt lat="45.72459" lon="4.63367">
        <ele>509</ele>
        <time>2011-10-01T09:03:29Z</time>
      </trkpt>
      <trkpt lat="45.72468" lon="4.63363">
        <ele>510</ele>
        <time>2011-10-01T09:03:37Z</time>
      </trkpt>
      <trkpt lat="45.72479" lon="4.63358">
        <ele>512</ele>
        <time>2011-10-01T09:03:46Z</time>
      </trkpt>
      <trkpt lat="45.72489" lon="4.63354">
        <ele>513</ele>
        <time>2011-10-01T09:03:54Z</time>
      </trkpt>
      <trkpt lat="45.72494" lon="4.63355">
        <ele>513</ele>
        <time>2011-10-01T09:03:58Z</time>
      </trkpt>
      <trkpt lat="45.72495" lon="4.63354">
        <ele>513</ele>
        <time>2011-10-01T09:03:59Z</time>
      </trkpt>
      <trkpt lat="45.72497" lon="4.63353">
        <ele>513</ele>
        <time>2011-10-01T09:04:00Z</time>
      </trkpt>
      <trkpt lat="45.72501" lon="4.63353">
        <ele>513</ele>
        <time>2011-10-01T09:04:05Z</time>
      </trkpt>
      <trkpt lat="45.72506" lon="4.63354">
        <ele>514</ele>
        <time>2011-10-01T09:04:10Z</time>
      </trkpt>
      <trkpt lat="45.72508" lon="4.63354">
        <ele>514</ele>
        <time>2011-10-01T09:04:11Z</time>
      </trkpt>
      <trkpt lat="45.72516" lon="4.63356">
        <ele>515</ele>
        <time>2011-10-01T09:04:17Z</time>
      </trkpt>
      <trkpt lat="45.72518" lon="4.63357">
        <ele>515</ele>
        <time>2011-10-01T09:04:18Z</time>
      </trkpt>
      <trkpt lat="45.7252" lon="4.63357">
        <ele>515</ele>
        <time>2011-10-01T09:04:19Z</time>
      </trkpt>
      <trkpt lat="45.7253" lon="4.63361">
        <ele>516</ele>
        <time>2011-10-01T09:04:27Z</time>
      </trkpt>
      <trkpt lat="45.72538" lon="4.63363">
        <ele>518</ele>
        <time>2011-10-01T09:04:33Z</time>
      </trkpt>
      <trkpt lat="45.72539" lon="4.63364">
        <ele>518</ele>
        <time>2011-10-01T09:04:34Z</time>
      </trkpt>
      <trkpt lat="45.72546" lon="4.63368">
        <ele>520</ele>
        <time>2011-10-01T09:04:42Z</time>
      </trkpt>
      <trkpt lat="45.72549" lon="4.6337">
        <ele>522</ele>
        <time>2011-10-01T09:04:48Z</time>
      </trkpt>
      <trkpt lat="45.72555" lon="4.6337">
        <ele>523</ele>
        <time>2011-10-01T09:04:54Z</time>
      </trkpt>
      <trkpt lat="45.72564" lon="4.63365">
        <ele>525</ele>
        <time>2011-10-01T09:05:01Z</time>
      </trkpt>
      <trkpt lat="45.72571" lon="4.63357">
        <ele>526</ele>
        <time>2011-10-01T09:05:09Z</time>
      </trkpt>
      <trkpt lat="45.72574" lon="4.6335">
        <ele>527</ele>
        <time>2011-10-01T09:05:14Z</time>
      </trkpt>
      <trkpt lat="45.72574" lon="4.63348">
        <ele>527</ele>
        <time>2011-10-01T09:05:15Z</time>
      </trkpt>
      <trkpt lat="45.7258" lon="4.63339">
        <ele>529</ele>
        <time>2011-10-01T09:05:22Z</time>
      </trkpt>
      <trkpt lat="45.72584" lon="4.63331">
        <ele>531</ele>
        <time>2011-10-01T09:05:28Z</time>
      </trkpt>
      <trkpt lat="45.72585" lon="4.63331">
        <ele>532</ele>
        <time>2011-10-01T09:05:34Z</time>
      </trkpt>
      <trkpt lat="45.72587" lon="4.6333">
        <ele>532</ele>
        <time>2011-10-01T09:05:46Z</time>
      </trkpt>
      <trkpt lat="45.7259" lon="4.63326">
        <ele>534</ele>
        <time>2011-10-01T09:05:54Z</time>
      </trkpt>
      <trkpt lat="45.72593" lon="4.63322">
        <ele>535</ele>
        <time>2011-10-01T09:06:01Z</time>
      </trkpt>
      <trkpt lat="45.72596" lon="4.63315">
        <ele>536</ele>
        <time>2011-10-01T09:06:09Z</time>
      </trkpt>
      <trkpt lat="45.72598" lon="4.6331">
        <ele>537</ele>
        <time>2011-10-01T09:06:17Z</time>
      </trkpt>
      <trkpt lat="45.726" lon="4.63308">
        <ele>537</ele>
        <time>2011-10-01T09:06:23Z</time>
      </trkpt>
      <trkpt lat="45.72604" lon="4.63302">
        <ele>539</ele>
        <time>2011-10-01T09:06:29Z</time>
      </trkpt>
      <trkpt lat="45.72607" lon="4.63297">
        <ele>540</ele>
        <time>2011-10-01T09:06:33Z</time>
      </trkpt>
      <trkpt lat="45.72612" lon="4.63288">
        <ele>542</ele>
        <time>2011-10-01T09:06:40Z</time>
      </trkpt>
      <trkpt lat="45.72619" lon="4.63275">
        <ele>545</ele>
        <time>2011-10-01T09:06:48Z</time>
      </trkpt>
      <trkpt lat="45.72625" lon="4.63263">
        <ele>546</ele>
        <time>2011-10-01T09:06:57Z</time>
      </trkpt>
      <trkpt lat="45.72625" lon="4.63261">
        <ele>546</ele>
        <time>2011-10-01T09:06:58Z</time>
      </trkpt>
      <trkpt lat="45.72626" lon="4.6326">
        <ele>546</ele>
        <time>2011-10-01T09:06:59Z</time>
      </trkpt>
      <trkpt lat="45.72627" lon="4.63259">
        <ele>546</ele>
        <time>2011-10-01T09:07:00Z</time>
      </trkpt>
      <trkpt lat="45.72628" lon="4.63258">
        <ele>546</ele>
        <time>2011-10-01T09:07:01Z</time>
      </trkpt>
      <trkpt lat="45.72628" lon="4.63256">
        <ele>547</ele>
        <time>2011-10-01T09:07:02Z</time>
      </trkpt>
      <trkpt lat="45.72629" lon="4.63255">
        <ele>547</ele>
        <time>2011-10-01T09:07:03Z</time>
      </trkpt>
      <trkpt lat="45.7263" lon="4.63253">
        <ele>547</ele>
        <time>2011-10-01T09:07:04Z</time>
      </trkpt>
      <trkpt lat="45.72631" lon="4.63251">
        <ele>548</ele>
        <time>2011-10-01T09:07:06Z</time>
      </trkpt>
      <trkpt lat="45.72632" lon="4.6325">
        <ele>547</ele>
        <time>2011-10-01T09:07:07Z</time>
      </trkpt>
      <trkpt lat="45.72633" lon="4.63249">
        <ele>547</ele>
        <time>2011-10-01T09:07:08Z</time>
      </trkpt>
      <trkpt lat="45.72634" lon="4.63248">
        <ele>548</ele>
        <time>2011-10-01T09:07:09Z</time>
      </trkpt>
      <trkpt lat="45.72635" lon="4.63247">
        <ele>547</ele>
        <time>2011-10-01T09:07:10Z</time>
      </trkpt>
      <trkpt lat="45.72643" lon="4.63238">
        <ele>549</ele>
        <time>2011-10-01T09:07:18Z</time>
      </trkpt>
      <trkpt lat="45.72651" lon="4.63228">
        <ele>550</ele>
        <time>2011-10-01T09:07:26Z</time>
      </trkpt>
      <trkpt lat="45.72657" lon="4.63222">
        <ele>550</ele>
        <time>2011-10-01T09:07:34Z</time>
      </trkpt>
      <trkpt lat="45.72657" lon="4.63222">
        <ele>551</ele>
        <time>2011-10-01T09:07:43Z</time>
      </trkpt>
      <trkpt lat="45.72663" lon="4.63216">
        <ele>551</ele>
        <time>2011-10-01T09:07:48Z</time>
      </trkpt>
      <trkpt lat="45.72674" lon="4.632">
        <ele>552</ele>
        <time>2011-10-01T09:07:57Z</time>
      </trkpt>
      <trkpt lat="45.72677" lon="4.63197">
        <ele>551</ele>
        <time>2011-10-01T09:07:59Z</time>
      </trkpt>
      <trkpt lat="45.7269" lon="4.6319">
        <ele>554</ele>
        <time>2011-10-01T09:08:09Z</time>
      </trkpt>
      <trkpt lat="45.72699" lon="4.63185">
        <ele>555</ele>
        <time>2011-10-01T09:08:16Z</time>
      </trkpt>
      <trkpt lat="45.72701" lon="4.63183">
        <ele>555</ele>
        <time>2011-10-01T09:08:18Z</time>
      </trkpt>
      <trkpt lat="45.72702" lon="4.63182">
        <ele>555</ele>
        <time>2011-10-01T09:08:19Z</time>
      </trkpt>
      <trkpt lat="45.72704" lon="4.63182">
        <ele>555</ele>
        <time>2011-10-01T09:08:20Z</time>
      </trkpt>
      <trkpt lat="45.72708" lon="4.63181">
        <ele>556</ele>
        <time>2011-10-01T09:08:24Z</time>
      </trkpt>
      <trkpt lat="45.7272" lon="4.63177">
        <ele>558</ele>
        <time>2011-10-01T09:08:32Z</time>
      </trkpt>
      <trkpt lat="45.72732" lon="4.63174">
        <ele>559</ele>
        <time>2011-10-01T09:08:41Z</time>
      </trkpt>
      <trkpt lat="45.72736" lon="4.63172">
        <ele>559</ele>
        <time>2011-10-01T09:08:45Z</time>
      </trkpt>
      <trkpt lat="45.72737" lon="4.63171">
        <ele>559</ele>
        <time>2011-10-01T09:08:46Z</time>
      </trkpt>
      <trkpt lat="45.72738" lon="4.6317">
        <ele>559</ele>
        <time>2011-10-01T09:08:47Z</time>
      </trkpt>
      <trkpt lat="45.7274" lon="4.6317">
        <ele>559</ele>
        <time>2011-10-01T09:08:48Z</time>
      </trkpt>
      <trkpt lat="45.72742" lon="4.6317">
        <ele>559</ele>
        <time>2011-10-01T09:08:49Z</time>
      </trkpt>
      <trkpt lat="45.72743" lon="4.6317">
        <ele>559</ele>
        <time>2011-10-01T09:08:50Z</time>
      </trkpt>
      <trkpt lat="45.72745" lon="4.63169">
        <ele>559</ele>
        <time>2011-10-01T09:08:51Z</time>
      </trkpt>
      <trkpt lat="45.72758" lon="4.63165">
        <ele>559</ele>
        <time>2011-10-01T09:08:57Z</time>
      </trkpt>
      <trkpt lat="45.72768" lon="4.63162">
        <ele>558</ele>
        <time>2011-10-01T09:09:03Z</time>
      </trkpt>
      <trkpt lat="45.7278" lon="4.63165">
        <ele>559</ele>
        <time>2011-10-01T09:09:10Z</time>
      </trkpt>
      <trkpt lat="45.72792" lon="4.63161">
        <ele>559</ele>
        <time>2011-10-01T09:09:19Z</time>
      </trkpt>
      <trkpt lat="45.72805" lon="4.63157">
        <ele>559</ele>
        <time>2011-10-01T09:09:26Z</time>
      </trkpt>
      <trkpt lat="45.72827" lon="4.63141">
        <ele>557</ele>
        <time>2011-10-01T09:09:34Z</time>
      </trkpt>
      <trkpt lat="45.72834" lon="4.63133">
        <ele>557</ele>
        <time>2011-10-01T09:09:36Z</time>
      </trkpt>
      <trkpt lat="45.72844" lon="4.6312">
        <ele>557</ele>
        <time>2011-10-01T09:09:40Z</time>
      </trkpt>
      <trkpt lat="45.72849" lon="4.63111">
        <ele>557</ele>
        <time>2011-10-01T09:09:46Z</time>
      </trkpt>
      <trkpt lat="45.72853" lon="4.63103">
        <ele>558</ele>
        <time>2011-10-01T09:09:51Z</time>
      </trkpt>
      <trkpt lat="45.72853" lon="4.631">
        <ele>558</ele>
        <time>2011-10-01T09:09:52Z</time>
      </trkpt>
      <trkpt lat="45.72854" lon="4.63098">
        <ele>558</ele>
        <time>2011-10-01T09:09:53Z</time>
      </trkpt>
      <trkpt lat="45.72856" lon="4.63089">
        <ele>558</ele>
        <time>2011-10-01T09:09:58Z</time>
      </trkpt>
      <trkpt lat="45.72857" lon="4.63087">
        <ele>559</ele>
        <time>2011-10-01T09:09:59Z</time>
      </trkpt>
      <trkpt lat="45.72858" lon="4.63086">
        <ele>559</ele>
        <time>2011-10-01T09:10:00Z</time>
      </trkpt>
      <trkpt lat="45.72859" lon="4.63084">
        <ele>559</ele>
        <time>2011-10-01T09:10:01Z</time>
      </trkpt>
      <trkpt lat="45.72859" lon="4.63082">
        <ele>559</ele>
        <time>2011-10-01T09:10:02Z</time>
      </trkpt>
      <trkpt lat="45.7286" lon="4.6308">
        <ele>560</ele>
        <time>2011-10-01T09:10:03Z</time>
      </trkpt>
      <trkpt lat="45.72863" lon="4.63068">
        <ele>561</ele>
        <time>2011-10-01T09:10:09Z</time>
      </trkpt>
      <trkpt lat="45.72866" lon="4.63051">
        <ele>562</ele>
        <time>2011-10-01T09:10:18Z</time>
      </trkpt>
      <trkpt lat="45.72869" lon="4.63044">
        <ele>562</ele>
        <time>2011-10-01T09:10:22Z</time>
      </trkpt>
      <trkpt lat="45.7287" lon="4.63041">
        <ele>562</ele>
        <time>2011-10-01T09:10:24Z</time>
      </trkpt>
      <trkpt lat="45.72875" lon="4.63029">
        <ele>564</ele>
        <time>2011-10-01T09:10:32Z</time>
      </trkpt>
      <trkpt lat="45.72875" lon="4.63028">
        <ele>564</ele>
        <time>2011-10-01T09:10:39Z</time>
      </trkpt>
      <trkpt lat="45.72876" lon="4.63028">
        <ele>564</ele>
        <time>2011-10-01T09:10:50Z</time>
      </trkpt>
      <trkpt lat="45.72879" lon="4.63021">
        <ele>565</ele>
        <time>2011-10-01T09:10:58Z</time>
      </trkpt>
      <trkpt lat="45.72883" lon="4.63013">
        <ele>566</ele>
        <time>2011-10-01T09:11:06Z</time>
      </trkpt>
      <trkpt lat="45.72886" lon="4.63008">
        <ele>567</ele>
        <time>2011-10-01T09:11:12Z</time>
      </trkpt>
      <trkpt lat="45.72889" lon="4.63001">
        <ele>569</ele>
        <time>2011-10-01T09:11:22Z</time>
      </trkpt>
      <trkpt lat="45.72892" lon="4.62997">
        <ele>570</ele>
        <time>2011-10-01T09:11:29Z</time>
      </trkpt>
      <trkpt lat="45.72894" lon="4.62992">
        <ele>571</ele>
        <time>2011-10-01T09:11:36Z</time>
      </trkpt>
      <trkpt lat="45.72896" lon="4.62987">
        <ele>572</ele>
        <time>2011-10-01T09:11:43Z</time>
      </trkpt>
      <trkpt lat="45.72898" lon="4.62986">
        <ele>573</ele>
        <time>2011-10-01T09:11:50Z</time>
      </trkpt>
      <trkpt lat="45.72903" lon="4.62981">
        <ele>574</ele>
        <time>2011-10-01T09:11:57Z</time>
      </trkpt>
      <trkpt lat="45.72908" lon="4.62977">
        <ele>575</ele>
        <time>2011-10-01T09:12:05Z</time>
      </trkpt>
      <trkpt lat="45.72912" lon="4.62973">
        <ele>576</ele>
        <time>2011-10-01T09:12:12Z</time>
      </trkpt>
      <trkpt lat="45.72914" lon="4.62972">
        <ele>577</ele>
        <time>2011-10-01T09:12:20Z</time>
      </trkpt>
      <trkpt lat="45.72915" lon="4.62971">
        <ele>578</ele>
        <time>2011-10-01T09:12:28Z</time>
      </trkpt>
      <trkpt lat="45.72915" lon="4.62971">
        <ele>577</ele>
        <time>2011-10-01T09:12:35Z</time>
      </trkpt>
      <trkpt lat="45.72921" lon="4.62968">
        <ele>579</ele>
        <time>2011-10-01T09:12:41Z</time>
      </trkpt>
      <trkpt lat="45.72928" lon="4.62964">
        <ele>580</ele>
        <time>2011-10-01T09:12:47Z</time>
      </trkpt>
      <trkpt lat="45.72939" lon="4.62954">
        <ele>583</ele>
        <time>2011-10-01T09:12:55Z</time>
      </trkpt>
      <trkpt lat="45.7295" lon="4.62944">
        <ele>584</ele>
        <time>2011-10-01T09:13:04Z</time>
      </trkpt>
      <trkpt lat="45.72961" lon="4.62938">
        <ele>585</ele>
        <time>2011-10-01T09:13:11Z</time>
      </trkpt>
      <trkpt lat="45.72972" lon="4.62934">
        <ele>586</ele>
        <time>2011-10-01T09:13:17Z</time>
      </trkpt>
      <trkpt lat="45.72975" lon="4.62934">
        <ele>586</ele>
        <time>2011-10-01T09:13:19Z</time>
      </trkpt>
      <trkpt lat="45.72982" lon="4.62934">
        <ele>586</ele>
        <time>2011-10-01T09:13:24Z</time>
      </trkpt>
      <trkpt lat="45.72984" lon="4.62934">
        <ele>586</ele>
        <time>2011-10-01T09:13:25Z</time>
      </trkpt>
      <trkpt lat="45.72995" lon="4.62937">
        <ele>587</ele>
        <time>2011-10-01T09:13:32Z</time>
      </trkpt>
      <trkpt lat="45.73006" lon="4.62944">
        <ele>587</ele>
        <time>2011-10-01T09:13:40Z</time>
      </trkpt>
      <trkpt lat="45.73018" lon="4.62947">
        <ele>588</ele>
        <time>2011-10-01T09:13:47Z</time>
      </trkpt>
      <trkpt lat="45.73022" lon="4.62951">
        <ele>588</ele>
        <time>2011-10-01T09:13:50Z</time>
      </trkpt>
      <trkpt lat="45.73023" lon="4.62952">
        <ele>588</ele>
        <time>2011-10-01T09:13:51Z</time>
      </trkpt>
      <trkpt lat="45.73033" lon="4.62959">
        <ele>589</ele>
        <time>2011-10-01T09:13:57Z</time>
      </trkpt>
      <trkpt lat="45.73034" lon="4.62961">
        <ele>589</ele>
        <time>2011-10-01T09:13:58Z</time>
      </trkpt>
      <trkpt lat="45.73036" lon="4.62963">
        <ele>590</ele>
        <time>2011-10-01T09:14:00Z</time>
      </trkpt>
      <trkpt lat="45.73038" lon="4.62964">
        <ele>589</ele>
        <time>2011-10-01T09:14:01Z</time>
      </trkpt>
      <trkpt lat="45.73039" lon="4.62965">
        <ele>590</ele>
        <time>2011-10-01T09:14:02Z</time>
      </trkpt>
      <trkpt lat="45.73044" lon="4.62969">
        <ele>590</ele>
        <time>2011-10-01T09:14:05Z</time>
      </trkpt>
      <trkpt lat="45.73046" lon="4.62971">
        <ele>590</ele>
        <time>2011-10-01T09:14:06Z</time>
      </trkpt>
      <trkpt lat="45.73056" lon="4.62975">
        <ele>591</ele>
        <time>2011-10-01T09:14:13Z</time>
      </trkpt>
      <trkpt lat="45.73066" lon="4.62975">
        <ele>592</ele>
        <time>2011-10-01T09:14:19Z</time>
      </trkpt>
      <trkpt lat="45.73075" lon="4.62977">
        <ele>593</ele>
        <time>2011-10-01T09:14:25Z</time>
      </trkpt>
      <trkpt lat="45.73088" lon="4.62982">
        <ele>595</ele>
        <time>2011-10-01T09:14:34Z</time>
      </trkpt>
      <trkpt lat="45.73099" lon="4.62987">
        <ele>597</ele>
        <time>2011-10-01T09:14:42Z</time>
      </trkpt>
      <trkpt lat="45.731" lon="4.62988">
        <ele>597</ele>
        <time>2011-10-01T09:14:43Z</time>
      </trkpt>
      <trkpt lat="45.73101" lon="4.62989">
        <ele>597</ele>
        <time>2011-10-01T09:14:44Z</time>
      </trkpt>
      <trkpt lat="45.73103" lon="4.6299">
        <ele>597</ele>
        <time>2011-10-01T09:14:45Z</time>
      </trkpt>
      <trkpt lat="45.73104" lon="4.62991">
        <ele>598</ele>
        <time>2011-10-01T09:14:46Z</time>
      </trkpt>
      <trkpt lat="45.73105" lon="4.62992">
        <ele>598</ele>
        <time>2011-10-01T09:14:47Z</time>
      </trkpt>
      <trkpt lat="45.73106" lon="4.62992">
        <ele>598</ele>
        <time>2011-10-01T09:14:48Z</time>
      </trkpt>
      <trkpt lat="45.73108" lon="4.62993">
        <ele>598</ele>
        <time>2011-10-01T09:14:49Z</time>
      </trkpt>
      <trkpt lat="45.7311" lon="4.62993">
        <ele>598</ele>
        <time>2011-10-01T09:14:50Z</time>
      </trkpt>
      <trkpt lat="45.73111" lon="4.62993">
        <ele>599</ele>
        <time>2011-10-01T09:14:51Z</time>
      </trkpt>
      <trkpt lat="45.73112" lon="4.62993">
        <ele>598</ele>
        <time>2011-10-01T09:14:52Z</time>
      </trkpt>
      <trkpt lat="45.73124" lon="4.62986">
        <ele>600</ele>
        <time>2011-10-01T09:15:01Z</time>
      </trkpt>
      <trkpt lat="45.73134" lon="4.62972">
        <ele>601</ele>
        <time>2011-10-01T09:15:11Z</time>
      </trkpt>
      <trkpt lat="45.73142" lon="4.6296">
        <ele>603</ele>
        <time>2011-10-01T09:15:20Z</time>
      </trkpt>
      <trkpt lat="45.73147" lon="4.62949">
        <ele>605</ele>
        <time>2011-10-01T09:15:28Z</time>
      </trkpt>
      <trkpt lat="45.7315" lon="4.62945">
        <ele>605</ele>
        <time>2011-10-01T09:15:32Z</time>
      </trkpt>
      <trkpt lat="45.73152" lon="4.62938">
        <ele>607</ele>
        <time>2011-10-01T09:15:36Z</time>
      </trkpt>
      <trkpt lat="45.73153" lon="4.62937">
        <ele>607</ele>
        <time>2011-10-01T09:15:37Z</time>
      </trkpt>
      <trkpt lat="45.73155" lon="4.62937">
        <ele>607</ele>
        <time>2011-10-01T09:15:38Z</time>
      </trkpt>
      <trkpt lat="45.73156" lon="4.62937">
        <ele>607</ele>
        <time>2011-10-01T09:15:39Z</time>
      </trkpt>
      <trkpt lat="45.73156" lon="4.62938">
        <ele>607</ele>
        <time>2011-10-01T09:15:40Z</time>
      </trkpt>
      <trkpt lat="45.73157" lon="4.62939">
        <ele>607</ele>
        <time>2011-10-01T09:15:41Z</time>
      </trkpt>
      <trkpt lat="45.73157" lon="4.62942">
        <ele>606</ele>
        <time>2011-10-01T09:15:43Z</time>
      </trkpt>
      <trkpt lat="45.73155" lon="4.62944">
        <ele>607</ele>
        <time>2011-10-01T09:15:44Z</time>
      </trkpt>
      <trkpt lat="45.73154" lon="4.62948">
        <ele>607</ele>
        <time>2011-10-01T09:15:46Z</time>
      </trkpt>
      <trkpt lat="45.73154" lon="4.62954">
        <ele>607</ele>
        <time>2011-10-01T09:15:49Z</time>
      </trkpt>
      <trkpt lat="45.73154" lon="4.62958">
        <ele>607</ele>
        <time>2011-10-01T09:15:50Z</time>
      </trkpt>
      <trkpt lat="45.73154" lon="4.62961">
        <ele>607</ele>
        <time>2011-10-01T09:15:51Z</time>
      </trkpt>
      <trkpt lat="45.73154" lon="4.62964">
        <ele>606</ele>
        <time>2011-10-01T09:15:52Z</time>
      </trkpt>
      <trkpt lat="45.73153" lon="4.62967">
        <ele>606</ele>
        <time>2011-10-01T09:15:53Z</time>
      </trkpt>
      <trkpt lat="45.73153" lon="4.6297">
        <ele>607</ele>
        <time>2011-10-01T09:15:54Z</time>
      </trkpt>
      <trkpt lat="45.73153" lon="4.62974">
        <ele>606</ele>
        <time>2011-10-01T09:15:55Z</time>
      </trkpt>
      <trkpt lat="45.73153" lon="4.62977">
        <ele>606</ele>
        <time>2011-10-01T09:15:56Z</time>
      </trkpt>
      <trkpt lat="45.73153" lon="4.63004">
        <ele>605</ele>
        <time>2011-10-01T09:16:04Z</time>
      </trkpt>
      <trkpt lat="45.73153" lon="4.63036">
        <ele>605</ele>
        <time>2011-10-01T09:16:13Z</time>
      </trkpt>
      <trkpt lat="45.73153" lon="4.63072">
        <ele>604</ele>
        <time>2011-10-01T09:16:21Z</time>
      </trkpt>
      <trkpt lat="45.73155" lon="4.63103">
        <ele>603</ele>
        <time>2011-10-01T09:16:28Z</time>
      </trkpt>
      <trkpt lat="45.73156" lon="4.6314">
        <ele>602</ele>
        <time>2011-10-01T09:16:37Z</time>
      </trkpt>
      <trkpt lat="45.73156" lon="4.63167">
        <ele>602</ele>
        <time>2011-10-01T09:16:43Z</time>
      </trkpt>
      <trkpt lat="45.73151" lon="4.63194">
        <ele>601</ele>
        <time>2011-10-01T09:16:49Z</time>
      </trkpt>
      <trkpt lat="45.73144" lon="4.63219">
        <ele>602</ele>
        <time>2011-10-01T09:16:55Z</time>
      </trkpt>
      <trkpt lat="45.73137" lon="4.63248">
        <ele>601</ele>
        <time>2011-10-01T09:17:01Z</time>
      </trkpt>
      <trkpt lat="45.73138" lon="4.63281">
        <ele>601</ele>
        <time>2011-10-01T09:17:08Z</time>
      </trkpt>
      <trkpt lat="45.73136" lon="4.63306">
        <ele>601</ele>
        <time>2011-10-01T09:17:14Z</time>
      </trkpt>
      <trkpt lat="45.73136" lon="4.63329">
        <ele>602</ele>
        <time>2011-10-01T09:17:20Z</time>
      </trkpt>
      <trkpt lat="45.73136" lon="4.63332">
        <ele>598</ele>
        <time>2011-10-01T09:17:21Z</time>
      </trkpt>
      <trkpt lat="45.73135" lon="4.63336">
        <ele>602</ele>
        <time>2011-10-01T09:17:22Z</time>
      </trkpt>
      <trkpt lat="45.73133" lon="4.63376">
        <ele>601</ele>
        <time>2011-10-01T09:17:30Z</time>
      </trkpt>
      <trkpt lat="45.73129" lon="4.63413">
        <ele>602</ele>
        <time>2011-10-01T09:17:38Z</time>
      </trkpt>
      <trkpt lat="45.73121" lon="4.63442">
        <ele>602</ele>
        <time>2011-10-01T09:17:45Z</time>
      </trkpt>
      <trkpt lat="45.73114" lon="4.63468">
        <ele>601</ele>
        <time>2011-10-01T09:17:50Z</time>
      </trkpt>
      <trkpt lat="45.73115" lon="4.63475">
        <ele>600</ele>
        <time>2011-10-01T09:17:51Z</time>
      </trkpt>
      <trkpt lat="45.73121" lon="4.63496">
        <ele>599</ele>
        <time>2011-10-01T09:17:54Z</time>
      </trkpt>
      <trkpt lat="45.73123" lon="4.63502">
        <ele>600</ele>
        <time>2011-10-01T09:17:55Z</time>
      </trkpt>
      <trkpt lat="45.73123" lon="4.63507">
        <ele>600</ele>
        <time>2011-10-01T09:17:56Z</time>
      </trkpt>
      <trkpt lat="45.73119" lon="4.6351">
        <ele>600</ele>
        <time>2011-10-01T09:17:57Z</time>
      </trkpt>
      <trkpt lat="45.73111" lon="4.63511">
        <ele>598</ele>
        <time>2011-10-01T09:18:00Z</time>
      </trkpt>
      <trkpt lat="45.7311" lon="4.63517">
        <ele>597</ele>
        <time>2011-10-01T09:18:02Z</time>
      </trkpt>
      <trkpt lat="45.73107" lon="4.63531">
        <ele>596</ele>
        <time>2011-10-01T09:18:05Z</time>
      </trkpt>
      <trkpt lat="45.73104" lon="4.63547">
        <ele>595</ele>
        <time>2011-10-01T09:18:07Z</time>
      </trkpt>
      <trkpt lat="45.73102" lon="4.63557">
        <ele>594</ele>
        <time>2011-10-01T09:18:08Z</time>
      </trkpt>
      <trkpt lat="45.73091" lon="4.63625">
        <ele>591</ele>
        <time>2011-10-01T09:18:15Z</time>
      </trkpt>
      <trkpt lat="45.7309" lon="4.63634">
        <ele>591</ele>
        <time>2011-10-01T09:18:16Z</time>
      </trkpt>
      <trkpt lat="45.73088" lon="4.63652">
        <ele>590</ele>
        <time>2011-10-01T09:18:18Z</time>
      </trkpt>
      <trkpt lat="45.73088" lon="4.63662">
        <ele>590</ele>
        <time>2011-10-01T09:18:19Z</time>
      </trkpt>
      <trkpt lat="45.73089" lon="4.63671">
        <ele>590</ele>
        <time>2011-10-01T09:18:20Z</time>
      </trkpt>
      <trkpt lat="45.73095" lon="4.63735">
        <ele>588</ele>
        <time>2011-10-01T09:18:27Z</time>
      </trkpt>
      <trkpt lat="45.73099" lon="4.63774">
        <ele>586</ele>
        <time>2011-10-01T09:18:31Z</time>
      </trkpt>
      <trkpt lat="45.73101" lon="4.63829">
        <ele>583</ele>
        <time>2011-10-01T09:18:36Z</time>
      </trkpt>
      <trkpt lat="45.73101" lon="4.6384">
        <ele>582</ele>
        <time>2011-10-01T09:18:37Z</time>
      </trkpt>
      <trkpt lat="45.731" lon="4.63851">
        <ele>582</ele>
        <time>2011-10-01T09:18:38Z</time>
      </trkpt>
      <trkpt lat="45.73091" lon="4.63883">
        <ele>579</ele>
        <time>2011-10-01T09:18:41Z</time>
      </trkpt>
      <trkpt lat="45.73088" lon="4.63893">
        <ele>579</ele>
        <time>2011-10-01T09:18:42Z</time>
      </trkpt>
      <trkpt lat="45.73084" lon="4.63904">
        <ele>579</ele>
        <time>2011-10-01T09:18:43Z</time>
      </trkpt>
      <trkpt lat="45.73077" lon="4.63926">
        <ele>577</ele>
        <time>2011-10-01T09:18:45Z</time>
      </trkpt>
      <trkpt lat="45.73065" lon="4.63961">
        <ele>575</ele>
        <time>2011-10-01T09:18:48Z</time>
      </trkpt>
      <trkpt lat="45.73053" lon="4.64012">
        <ele>572</ele>
        <time>2011-10-01T09:18:52Z</time>
      </trkpt>
      <trkpt lat="45.73043" lon="4.64052">
        <ele>569</ele>
        <time>2011-10-01T09:18:55Z</time>
      </trkpt>
      <trkpt lat="45.73035" lon="4.64088">
        <ele>566</ele>
        <time>2011-10-01T09:18:58Z</time>
      </trkpt>
      <trkpt lat="45.73031" lon="4.64098">
        <ele>564</ele>
        <time>2011-10-01T09:18:59Z</time>
      </trkpt>
      <trkpt lat="45.73026" lon="4.64109">
        <ele>563</ele>
        <time>2011-10-01T09:19:00Z</time>
      </trkpt>
      <trkpt lat="45.73021" lon="4.64121">
        <ele>561</ele>
        <time>2011-10-01T09:19:01Z</time>
      </trkpt>
      <trkpt lat="45.73016" lon="4.64135">
        <ele>559</ele>
        <time>2011-10-01T09:19:02Z</time>
      </trkpt>
      <trkpt lat="45.73012" lon="4.64149">
        <ele>557</ele>
        <time>2011-10-01T09:19:03Z</time>
      </trkpt>
      <trkpt lat="45.73009" lon="4.64163">
        <ele>557</ele>
        <time>2011-10-01T09:19:04Z</time>
      </trkpt>
      <trkpt lat="45.73006" lon="4.64176">
        <ele>555</ele>
        <time>2011-10-01T09:19:05Z</time>
      </trkpt>
      <trkpt lat="45.73003" lon="4.64189">
        <ele>553</ele>
        <time>2011-10-01T09:19:06Z</time>
      </trkpt>
      <trkpt lat="45.73001" lon="4.64201">
        <ele>552</ele>
        <time>2011-10-01T09:19:07Z</time>
      </trkpt>
      <trkpt lat="45.72998" lon="4.64222">
        <ele>550</ele>
        <time>2011-10-01T09:19:09Z</time>
      </trkpt>
      <trkpt lat="45.72998" lon="4.64239">
        <ele>547</ele>
        <time>2011-10-01T09:19:11Z</time>
      </trkpt>
      <trkpt lat="45.72999" lon="4.64247">
        <ele>546</ele>
        <time>2011-10-01T09:19:12Z</time>
      </trkpt>
      <trkpt lat="45.73001" lon="4.64255">
        <ele>545</ele>
        <time>2011-10-01T09:19:13Z</time>
      </trkpt>
      <trkpt lat="45.73004" lon="4.64265">
        <ele>545</ele>
        <time>2011-10-01T09:19:14Z</time>
      </trkpt>
      <trkpt lat="45.73007" lon="4.64276">
        <ele>544</ele>
        <time>2011-10-01T09:19:15Z</time>
      </trkpt>
      <trkpt lat="45.7301" lon="4.64288">
        <ele>542</ele>
        <time>2011-10-01T09:19:16Z</time>
      </trkpt>
      <trkpt lat="45.73014" lon="4.64299">
        <ele>540</ele>
        <time>2011-10-01T09:19:17Z</time>
      </trkpt>
      <trkpt lat="45.73019" lon="4.64309">
        <ele>540</ele>
        <time>2011-10-01T09:19:18Z</time>
      </trkpt>
      <trkpt lat="45.73024" lon="4.64317">
        <ele>539</ele>
        <time>2011-10-01T09:19:19Z</time>
      </trkpt>
      <trkpt lat="45.73027" lon="4.64325">
        <ele>538</ele>
        <time>2011-10-01T09:19:20Z</time>
      </trkpt>
      <trkpt lat="45.73031" lon="4.64335">
        <ele>538</ele>
        <time>2011-10-01T09:19:21Z</time>
      </trkpt>
      <trkpt lat="45.73034" lon="4.64346">
        <ele>536</ele>
        <time>2011-10-01T09:19:22Z</time>
      </trkpt>
      <trkpt lat="45.73052" lon="4.64395">
        <ele>530</ele>
        <time>2011-10-01T09:19:27Z</time>
      </trkpt>
      <trkpt lat="45.73055" lon="4.64405">
        <ele>529</ele>
        <time>2011-10-01T09:19:28Z</time>
      </trkpt>
      <trkpt lat="45.7306" lon="4.64425">
        <ele>527</ele>
        <time>2011-10-01T09:19:30Z</time>
      </trkpt>
      <trkpt lat="45.73063" lon="4.64432">
        <ele>526</ele>
        <time>2011-10-01T09:19:31Z</time>
      </trkpt>
      <trkpt lat="45.73066" lon="4.64439">
        <ele>525</ele>
        <time>2011-10-01T09:19:32Z</time>
      </trkpt>
      <trkpt lat="45.73067" lon="4.64447">
        <ele>524</ele>
        <time>2011-10-01T09:19:33Z</time>
      </trkpt>
      <trkpt lat="45.73067" lon="4.64456">
        <ele>523</ele>
        <time>2011-10-01T09:19:34Z</time>
      </trkpt>
      <trkpt lat="45.73066" lon="4.64466">
        <ele>521</ele>
        <time>2011-10-01T09:19:35Z</time>
      </trkpt>
      <trkpt lat="45.73066" lon="4.64475">
        <ele>520</ele>
        <time>2011-10-01T09:19:36Z</time>
      </trkpt>
      <trkpt lat="45.73065" lon="4.64484">
        <ele>519</ele>
        <time>2011-10-01T09:19:37Z</time>
      </trkpt>
      <trkpt lat="45.73065" lon="4.645">
        <ele>516</ele>
        <time>2011-10-01T09:19:39Z</time>
      </trkpt>
      <trkpt lat="45.73066" lon="4.64507">
        <ele>515</ele>
        <time>2011-10-01T09:19:40Z</time>
      </trkpt>
      <trkpt lat="45.73068" lon="4.64514">
        <ele>514</ele>
        <time>2011-10-01T09:19:41Z</time>
      </trkpt>
      <trkpt lat="45.73068" lon="4.64522">
        <ele>513</ele>
        <time>2011-10-01T09:19:42Z</time>
      </trkpt>
      <trkpt lat="45.73068" lon="4.64529">
        <ele>512</ele>
        <time>2011-10-01T09:19:43Z</time>
      </trkpt>
      <trkpt lat="45.73068" lon="4.64536">
        <ele>511</ele>
        <time>2011-10-01T09:19:44Z</time>
      </trkpt>
      <trkpt lat="45.73071" lon="4.64549">
        <ele>508</ele>
        <time>2011-10-01T09:19:46Z</time>
      </trkpt>
      <trkpt lat="45.73074" lon="4.64553">
        <ele>507</ele>
        <time>2011-10-01T09:19:47Z</time>
      </trkpt>
      <trkpt lat="45.73084" lon="4.64562">
        <ele>504</ele>
        <time>2011-10-01T09:19:50Z</time>
      </trkpt>
      <trkpt lat="45.73087" lon="4.64566">
        <ele>502</ele>
        <time>2011-10-01T09:19:52Z</time>
      </trkpt>
      <trkpt lat="45.73088" lon="4.64567">
        <ele>502</ele>
        <time>2011-10-01T09:19:53Z</time>
      </trkpt>
      <trkpt lat="45.73088" lon="4.6457">
        <ele>501</ele>
        <time>2011-10-01T09:19:55Z</time>
      </trkpt>
      <trkpt lat="45.73087" lon="4.64571">
        <ele>501</ele>
        <time>2011-10-01T09:19:56Z</time>
      </trkpt>
      <trkpt lat="45.73087" lon="4.64572">
        <ele>500</ele>
        <time>2011-10-01T09:19:57Z</time>
      </trkpt>
      <trkpt lat="45.73086" lon="4.64573">
        <ele>500</ele>
        <time>2011-10-01T09:19:58Z</time>
      </trkpt>
      <trkpt lat="45.73086" lon="4.64574">
        <ele>500</ele>
        <time>2011-10-01T09:19:59Z</time>
      </trkpt>
      <trkpt lat="45.73085" lon="4.64575">
        <ele>499</ele>
        <time>2011-10-01T09:20:00Z</time>
      </trkpt>
      <trkpt lat="45.73075" lon="4.64587">
        <ele>496</ele>
        <time>2011-10-01T09:20:05Z</time>
      </trkpt>
      <trkpt lat="45.73075" lon="4.64593">
        <ele>496</ele>
        <time>2011-10-01T09:20:06Z</time>
      </trkpt>
      <trkpt lat="45.73077" lon="4.64599">
        <ele>495</ele>
        <time>2011-10-01T09:20:07Z</time>
      </trkpt>
      <trkpt lat="45.73079" lon="4.64605">
        <ele>494</ele>
        <time>2011-10-01T09:20:08Z</time>
      </trkpt>
      <trkpt lat="45.73082" lon="4.64611">
        <ele>492</ele>
        <time>2011-10-01T09:20:09Z</time>
      </trkpt>
      <trkpt lat="45.73086" lon="4.64617">
        <ele>491</ele>
        <time>2011-10-01T09:20:10Z</time>
      </trkpt>
      <trkpt lat="45.73089" lon="4.64623">
        <ele>489</ele>
        <time>2011-10-01T09:20:11Z</time>
      </trkpt>
      <trkpt lat="45.73091" lon="4.64629">
        <ele>488</ele>
        <time>2011-10-01T09:20:12Z</time>
      </trkpt>
      <trkpt lat="45.73091" lon="4.64635">
        <ele>488</ele>
        <time>2011-10-01T09:20:13Z</time>
      </trkpt>
      <trkpt lat="45.73089" lon="4.64639">
        <ele>487</ele>
        <time>2011-10-01T09:20:14Z</time>
      </trkpt>
      <trkpt lat="45.73086" lon="4.64643">
        <ele>487</ele>
        <time>2011-10-01T09:20:15Z</time>
      </trkpt>
      <trkpt lat="45.73082" lon="4.64647">
        <ele>486</ele>
        <time>2011-10-01T09:20:16Z</time>
      </trkpt>
      <trkpt lat="45.73076" lon="4.6465">
        <ele>486</ele>
        <time>2011-10-01T09:20:17Z</time>
      </trkpt>
      <trkpt lat="45.73069" lon="4.64652">
        <ele>485</ele>
        <time>2011-10-01T09:20:18Z</time>
      </trkpt>
      <trkpt lat="45.73063" lon="4.64655">
        <ele>484</ele>
        <time>2011-10-01T09:20:19Z</time>
      </trkpt>
      <trkpt lat="45.73057" lon="4.64658">
        <ele>483</ele>
        <time>2011-10-01T09:20:20Z</time>
      </trkpt>
      <trkpt lat="45.7304" lon="4.64666">
        <ele>482</ele>
        <time>2011-10-01T09:20:23Z</time>
      </trkpt>
      <trkpt lat="45.73029" lon="4.64673">
        <ele>480</ele>
        <time>2011-10-01T09:20:25Z</time>
      </trkpt>
      <trkpt lat="45.73024" lon="4.64677">
        <ele>480</ele>
        <time>2011-10-01T09:20:26Z</time>
      </trkpt>
      <trkpt lat="45.73006" lon="4.64696">
        <ele>477</ele>
        <time>2011-10-01T09:20:29Z</time>
      </trkpt>
      <trkpt lat="45.72991" lon="4.64711">
        <ele>474</ele>
        <time>2011-10-01T09:20:32Z</time>
      </trkpt>
      <trkpt lat="45.72983" lon="4.64715">
        <ele>472</ele>
        <time>2011-10-01T09:20:34Z</time>
      </trkpt>
      <trkpt lat="45.72982" lon="4.64719">
        <ele>472</ele>
        <time>2011-10-01T09:20:35Z</time>
      </trkpt>
      <trkpt lat="45.72982" lon="4.64724">
        <ele>471</ele>
        <time>2011-10-01T09:20:36Z</time>
      </trkpt>
      <trkpt lat="45.72982" lon="4.64731">
        <ele>471</ele>
        <time>2011-10-01T09:20:37Z</time>
      </trkpt>
      <trkpt lat="45.72983" lon="4.64739">
        <ele>470</ele>
        <time>2011-10-01T09:20:38Z</time>
      </trkpt>
      <trkpt lat="45.72983" lon="4.64748">
        <ele>469</ele>
        <time>2011-10-01T09:20:39Z</time>
      </trkpt>
      <trkpt lat="45.72984" lon="4.64756">
        <ele>467</ele>
        <time>2011-10-01T09:20:40Z</time>
      </trkpt>
      <trkpt lat="45.72983" lon="4.64764">
        <ele>466</ele>
        <time>2011-10-01T09:20:41Z</time>
      </trkpt>
      <trkpt lat="45.72979" lon="4.64769">
        <ele>465</ele>
        <time>2011-10-01T09:20:42Z</time>
      </trkpt>
      <trkpt lat="45.72972" lon="4.64773">
        <ele>464</ele>
        <time>2011-10-01T09:20:43Z</time>
      </trkpt>
      <trkpt lat="45.72965" lon="4.64777">
        <ele>462</ele>
        <time>2011-10-01T09:20:44Z</time>
      </trkpt>
      <trkpt lat="45.72958" lon="4.6478">
        <ele>461</ele>
        <time>2011-10-01T09:20:45Z</time>
      </trkpt>
      <trkpt lat="45.72929" lon="4.64796">
        <ele>458</ele>
        <time>2011-10-01T09:20:49Z</time>
      </trkpt>
      <trkpt lat="45.72918" lon="4.64801">
        <ele>456</ele>
        <time>2011-10-01T09:20:51Z</time>
      </trkpt>
      <trkpt lat="45.72915" lon="4.64805">
        <ele>456</ele>
        <time>2011-10-01T09:20:52Z</time>
      </trkpt>
      <trkpt lat="45.72914" lon="4.64811">
        <ele>456</ele>
        <time>2011-10-01T09:20:53Z</time>
      </trkpt>
      <trkpt lat="45.72915" lon="4.64818">
        <ele>454</ele>
        <time>2011-10-01T09:20:54Z</time>
      </trkpt>
      <trkpt lat="45.72915" lon="4.64825">
        <ele>455</ele>
        <time>2011-10-01T09:20:55Z</time>
      </trkpt>
      <trkpt lat="45.72915" lon="4.64831">
        <ele>454</ele>
        <time>2011-10-01T09:20:56Z</time>
      </trkpt>
      <trkpt lat="45.72916" lon="4.64836">
        <ele>454</ele>
        <time>2011-10-01T09:20:57Z</time>
      </trkpt>
      <trkpt lat="45.72916" lon="4.64842">
        <ele>453</ele>
        <time>2011-10-01T09:20:58Z</time>
      </trkpt>
      <trkpt lat="45.72918" lon="4.64848">
        <ele>453</ele>
        <time>2011-10-01T09:20:59Z</time>
      </trkpt>
      <trkpt lat="45.72921" lon="4.64855">
        <ele>452</ele>
        <time>2011-10-01T09:21:00Z</time>
      </trkpt>
      <trkpt lat="45.72927" lon="4.64867">
        <ele>451</ele>
        <time>2011-10-01T09:21:02Z</time>
      </trkpt>
      <trkpt lat="45.72931" lon="4.64872">
        <ele>451</ele>
        <time>2011-10-01T09:21:03Z</time>
      </trkpt>
      <trkpt lat="45.72936" lon="4.64876">
        <ele>450</ele>
        <time>2011-10-01T09:21:04Z</time>
      </trkpt>
      <trkpt lat="45.72943" lon="4.64879">
        <ele>450</ele>
        <time>2011-10-01T09:21:05Z</time>
      </trkpt>
      <trkpt lat="45.7295" lon="4.64881">
        <ele>450</ele>
        <time>2011-10-01T09:21:06Z</time>
      </trkpt>
      <trkpt lat="45.72957" lon="4.64883">
        <ele>448</ele>
        <time>2011-10-01T09:21:07Z</time>
      </trkpt>
      <trkpt lat="45.72965" lon="4.64885">
        <ele>446</ele>
        <time>2011-10-01T09:21:08Z</time>
      </trkpt>
      <trkpt lat="45.72994" lon="4.64894">
        <ele>443</ele>
        <time>2011-10-01T09:21:11Z</time>
      </trkpt>
      <trkpt lat="45.73013" lon="4.64903">
        <ele>442</ele>
        <time>2011-10-01T09:21:13Z</time>
      </trkpt>
      <trkpt lat="45.73023" lon="4.64906">
        <ele>441</ele>
        <time>2011-10-01T09:21:14Z</time>
      </trkpt>
      <trkpt lat="45.73033" lon="4.64907">
        <ele>441</ele>
        <time>2011-10-01T09:21:15Z</time>
      </trkpt>
      <trkpt lat="45.73053" lon="4.64906">
        <ele>439</ele>
        <time>2011-10-01T09:21:17Z</time>
      </trkpt>
      <trkpt lat="45.73064" lon="4.6491">
        <ele>438</ele>
        <time>2011-10-01T09:21:18Z</time>
      </trkpt>
      <trkpt lat="45.73073" lon="4.64916">
        <ele>438</ele>
        <time>2011-10-01T09:21:19Z</time>
      </trkpt>
      <trkpt lat="45.73081" lon="4.64925">
        <ele>436</ele>
        <time>2011-10-01T09:21:20Z</time>
      </trkpt>
      <trkpt lat="45.73088" lon="4.64934">
        <ele>435</ele>
        <time>2011-10-01T09:21:21Z</time>
      </trkpt>
      <trkpt lat="45.73101" lon="4.6495">
        <ele>434</ele>
        <time>2011-10-01T09:21:23Z</time>
      </trkpt>
      <trkpt lat="45.73132" lon="4.64982">
        <ele>431</ele>
        <time>2011-10-01T09:21:27Z</time>
      </trkpt>
      <trkpt lat="45.73142" lon="4.6499">
        <ele>429</ele>
        <time>2011-10-01T09:21:28Z</time>
      </trkpt>
      <trkpt lat="45.73172" lon="4.65011">
        <ele>426</ele>
        <time>2011-10-01T09:21:31Z</time>
      </trkpt>
      <trkpt lat="45.73218" lon="4.65039">
        <ele>421</ele>
        <time>2011-10-01T09:21:35Z</time>
      </trkpt>
      <trkpt lat="45.7325" lon="4.6506">
        <ele>418</ele>
        <time>2011-10-01T09:21:38Z</time>
      </trkpt>
      <trkpt lat="45.73268" lon="4.65071">
        <ele>414</ele>
        <time>2011-10-01T09:21:40Z</time>
      </trkpt>
      <trkpt lat="45.73284" lon="4.65082">
        <ele>412</ele>
        <time>2011-10-01T09:21:43Z</time>
      </trkpt>
      <trkpt lat="45.7329" lon="4.65087">
        <ele>410</ele>
        <time>2011-10-01T09:21:45Z</time>
      </trkpt>
      <trkpt lat="45.73296" lon="4.65093">
        <ele>410</ele>
        <time>2011-10-01T09:21:47Z</time>
      </trkpt>
      <trkpt lat="45.73299" lon="4.65098">
        <ele>410</ele>
        <time>2011-10-01T09:21:48Z</time>
      </trkpt>
      <trkpt lat="45.73303" lon="4.65103">
        <ele>409</ele>
        <time>2011-10-01T09:21:49Z</time>
      </trkpt>
      <trkpt lat="45.73317" lon="4.65124">
        <ele>406</ele>
        <time>2011-10-01T09:21:52Z</time>
      </trkpt>
      <trkpt lat="45.73333" lon="4.65151">
        <ele>403</ele>
        <time>2011-10-01T09:21:55Z</time>
      </trkpt>
      <trkpt lat="45.7335" lon="4.65181">
        <ele>401</ele>
        <time>2011-10-01T09:21:58Z</time>
      </trkpt>
      <trkpt lat="45.73378" lon="4.65227">
        <ele>397</ele>
        <time>2011-10-01T09:22:03Z</time>
      </trkpt>
      <trkpt lat="45.73411" lon="4.65272">
        <ele>394</ele>
        <time>2011-10-01T09:22:09Z</time>
      </trkpt>
      <trkpt lat="45.73423" lon="4.65287">
        <ele>392</ele>
        <time>2011-10-01T09:22:11Z</time>
      </trkpt>
      <trkpt lat="45.73443" lon="4.65318">
        <ele>389</ele>
        <time>2011-10-01T09:22:15Z</time>
      </trkpt>
      <trkpt lat="45.73453" lon="4.65333">
        <ele>388</ele>
        <time>2011-10-01T09:22:17Z</time>
      </trkpt>
      <trkpt lat="45.73457" lon="4.65341">
        <ele>387</ele>
        <time>2011-10-01T09:22:18Z</time>
      </trkpt>
      <trkpt lat="45.7347" lon="4.65366">
        <ele>383</ele>
        <time>2011-10-01T09:22:21Z</time>
      </trkpt>
      <trkpt lat="45.73476" lon="4.65372">
        <ele>382</ele>
        <time>2011-10-01T09:22:22Z</time>
      </trkpt>
      <trkpt lat="45.73483" lon="4.65374">
        <ele>381</ele>
        <time>2011-10-01T09:22:23Z</time>
      </trkpt>
      <trkpt lat="45.73489" lon="4.65374">
        <ele>381</ele>
        <time>2011-10-01T09:22:24Z</time>
      </trkpt>
      <trkpt lat="45.73495" lon="4.65373">
        <ele>381</ele>
        <time>2011-10-01T09:22:25Z</time>
      </trkpt>
      <trkpt lat="45.73502" lon="4.6537">
        <ele>380</ele>
        <time>2011-10-01T09:22:26Z</time>
      </trkpt>
      <trkpt lat="45.73508" lon="4.65366">
        <ele>379</ele>
        <time>2011-10-01T09:22:27Z</time>
      </trkpt>
      <trkpt lat="45.73515" lon="4.65364">
        <ele>379</ele>
        <time>2011-10-01T09:22:28Z</time>
      </trkpt>
      <trkpt lat="45.73522" lon="4.65362">
        <ele>379</ele>
        <time>2011-10-01T09:22:29Z</time>
      </trkpt>
      <trkpt lat="45.73528" lon="4.65361">
        <ele>379</ele>
        <time>2011-10-01T09:22:30Z</time>
      </trkpt>
      <trkpt lat="45.7355" lon="4.65362">
        <ele>377</ele>
        <time>2011-10-01T09:22:34Z</time>
      </trkpt>
      <trkpt lat="45.73554" lon="4.65364">
        <ele>378</ele>
        <time>2011-10-01T09:22:35Z</time>
      </trkpt>
      <trkpt lat="45.73557" lon="4.65366">
        <ele>378</ele>
        <time>2011-10-01T09:22:36Z</time>
      </trkpt>
      <trkpt lat="45.73563" lon="4.65372">
        <ele>379</ele>
        <time>2011-10-01T09:22:40Z</time>
      </trkpt>
      <trkpt lat="45.73563" lon="4.65373">
        <ele>379</ele>
        <time>2011-10-01T09:22:41Z</time>
      </trkpt>
      <trkpt lat="45.73565" lon="4.65377">
        <ele>379</ele>
        <time>2011-10-01T09:22:44Z</time>
      </trkpt>
      <trkpt lat="45.73566" lon="4.65379">
        <ele>379</ele>
        <time>2011-10-01T09:22:45Z</time>
      </trkpt>
      <trkpt lat="45.7357" lon="4.65391">
        <ele>380</ele>
        <time>2011-10-01T09:22:53Z</time>
      </trkpt>
      <trkpt lat="45.73578" lon="4.65407">
        <ele>382</ele>
        <time>2011-10-01T09:23:03Z</time>
      </trkpt>
      <trkpt lat="45.73581" lon="4.65415">
        <ele>382</ele>
        <time>2011-10-01T09:23:08Z</time>
      </trkpt>
      <trkpt lat="45.73582" lon="4.65417">
        <ele>382</ele>
        <time>2011-10-01T09:23:09Z</time>
      </trkpt>
      <trkpt lat="45.73583" lon="4.65419">
        <ele>383</ele>
        <time>2011-10-01T09:23:10Z</time>
      </trkpt>
      <trkpt lat="45.73588" lon="4.6543">
        <ele>383</ele>
        <time>2011-10-01T09:23:17Z</time>
      </trkpt>
      <trkpt lat="45.73589" lon="4.65432">
        <ele>384</ele>
        <time>2011-10-01T09:23:18Z</time>
      </trkpt>
      <trkpt lat="45.7359" lon="4.65433">
        <ele>384</ele>
        <time>2011-10-01T09:23:19Z</time>
      </trkpt>
      <trkpt lat="45.73591" lon="4.65435">
        <ele>384</ele>
        <time>2011-10-01T09:23:20Z</time>
      </trkpt>
      <trkpt lat="45.73591" lon="4.65436">
        <ele>384</ele>
        <time>2011-10-01T09:23:21Z</time>
      </trkpt>
      <trkpt lat="45.73592" lon="4.65438">
        <ele>385</ele>
        <time>2011-10-01T09:23:22Z</time>
      </trkpt>
      <trkpt lat="45.73593" lon="4.65439">
        <ele>385</ele>
        <time>2011-10-01T09:23:23Z</time>
      </trkpt>
      <trkpt lat="45.73593" lon="4.6544">
        <ele>385</ele>
        <time>2011-10-01T09:23:24Z</time>
      </trkpt>
      <trkpt lat="45.73599" lon="4.6545">
        <ele>386</ele>
        <time>2011-10-01T09:23:32Z</time>
      </trkpt>
      <trkpt lat="45.73604" lon="4.6546">
        <ele>388</ele>
        <time>2011-10-01T09:23:39Z</time>
      </trkpt>
      <trkpt lat="45.73609" lon="4.65468">
        <ele>388</ele>
        <time>2011-10-01T09:23:44Z</time>
      </trkpt>
      <trkpt lat="45.73609" lon="4.65469">
        <ele>388</ele>
        <time>2011-10-01T09:23:45Z</time>
      </trkpt>
      <trkpt lat="45.7361" lon="4.65471">
        <ele>389</ele>
        <time>2011-10-01T09:23:46Z</time>
      </trkpt>
      <trkpt lat="45.7361" lon="4.65472">
        <ele>389</ele>
        <time>2011-10-01T09:23:47Z</time>
      </trkpt>
      <trkpt lat="45.73611" lon="4.65474">
        <ele>389</ele>
        <time>2011-10-01T09:23:48Z</time>
      </trkpt>
      <trkpt lat="45.73618" lon="4.65486">
        <ele>391</ele>
        <time>2011-10-01T09:23:57Z</time>
      </trkpt>
      <trkpt lat="45.7362" lon="4.65487">
        <ele>392</ele>
        <time>2011-10-01T09:23:59Z</time>
      </trkpt>
      <trkpt lat="45.73621" lon="4.65489">
        <ele>392</ele>
        <time>2011-10-01T09:24:00Z</time>
      </trkpt>
      <trkpt lat="45.73622" lon="4.6549">
        <ele>391</ele>
        <time>2011-10-01T09:24:01Z</time>
      </trkpt>
      <trkpt lat="45.73623" lon="4.65492">
        <ele>392</ele>
        <time>2011-10-01T09:24:02Z</time>
      </trkpt>
      <trkpt lat="45.73624" lon="4.65493">
        <ele>392</ele>
        <time>2011-10-01T09:24:03Z</time>
      </trkpt>
      <trkpt lat="45.73625" lon="4.65495">
        <ele>393</ele>
        <time>2011-10-01T09:24:04Z</time>
      </trkpt>
      <trkpt lat="45.73627" lon="4.65496">
        <ele>393</ele>
        <time>2011-10-01T09:24:05Z</time>
      </trkpt>
      <trkpt lat="45.73628" lon="4.65497">
        <ele>393</ele>
        <time>2011-10-01T09:24:06Z</time>
      </trkpt>
      <trkpt lat="45.73633" lon="4.65506">
        <ele>396</ele>
        <time>2011-10-01T09:24:14Z</time>
      </trkpt>
      <trkpt lat="45.73637" lon="4.6551">
        <ele>397</ele>
        <time>2011-10-01T09:24:18Z</time>
      </trkpt>
      <trkpt lat="45.73638" lon="4.65511">
        <ele>397</ele>
        <time>2011-10-01T09:24:19Z</time>
      </trkpt>
      <trkpt lat="45.73639" lon="4.65512">
        <ele>397</ele>
        <time>2011-10-01T09:24:20Z</time>
      </trkpt>
      <trkpt lat="45.7364" lon="4.65514">
        <ele>398</ele>
        <time>2011-10-01T09:24:22Z</time>
      </trkpt>
      <trkpt lat="45.73647" lon="4.65526">
        <ele>399</ele>
        <time>2011-10-01T09:24:31Z</time>
      </trkpt>
      <trkpt lat="45.73647" lon="4.65527">
        <ele>399</ele>
        <time>2011-10-01T09:24:32Z</time>
      </trkpt>
      <trkpt lat="45.73648" lon="4.65528">
        <ele>399</ele>
        <time>2011-10-01T09:24:33Z</time>
      </trkpt>
      <trkpt lat="45.73652" lon="4.65538">
        <ele>400</ele>
        <time>2011-10-01T09:24:39Z</time>
      </trkpt>
      <trkpt lat="45.73653" lon="4.65539">
        <ele>401</ele>
        <time>2011-10-01T09:24:40Z</time>
      </trkpt>
      <trkpt lat="45.73654" lon="4.6554">
        <ele>401</ele>
        <time>2011-10-01T09:24:41Z</time>
      </trkpt>
      <trkpt lat="45.73655" lon="4.65541">
        <ele>401</ele>
        <time>2011-10-01T09:24:42Z</time>
      </trkpt>
      <trkpt lat="45.73655" lon="4.65542">
        <ele>401</ele>
        <time>2011-10-01T09:24:43Z</time>
      </trkpt>
      <trkpt lat="45.73655" lon="4.65544">
        <ele>401</ele>
        <time>2011-10-01T09:24:44Z</time>
      </trkpt>
      <trkpt lat="45.73656" lon="4.65545">
        <ele>401</ele>
        <time>2011-10-01T09:24:45Z</time>
      </trkpt>
      <trkpt lat="45.73657" lon="4.65546">
        <ele>401</ele>
        <time>2011-10-01T09:24:46Z</time>
      </trkpt>
      <trkpt lat="45.73658" lon="4.65547">
        <ele>402</ele>
        <time>2011-10-01T09:24:47Z</time>
      </trkpt>
      <trkpt lat="45.73665" lon="4.65555">
        <ele>402</ele>
        <time>2011-10-01T09:24:54Z</time>
      </trkpt>
      <trkpt lat="45.73667" lon="4.6556">
        <ele>403</ele>
        <time>2011-10-01T09:24:57Z</time>
      </trkpt>
      <trkpt lat="45.73676" lon="4.6557">
        <ele>404</ele>
        <time>2011-10-01T09:25:05Z</time>
      </trkpt>
      <trkpt lat="45.73681" lon="4.65576">
        <ele>405</ele>
        <time>2011-10-01T09:25:11Z</time>
      </trkpt>
      <trkpt lat="45.73682" lon="4.65578">
        <ele>405</ele>
        <time>2011-10-01T09:25:12Z</time>
      </trkpt>
      <trkpt lat="45.73683" lon="4.65579">
        <ele>406</ele>
        <time>2011-10-01T09:25:13Z</time>
      </trkpt>
      <trkpt lat="45.73689" lon="4.65586">
        <ele>407</ele>
        <time>2011-10-01T09:25:19Z</time>
      </trkpt>
      <trkpt lat="45.7369" lon="4.65588">
        <ele>406</ele>
        <time>2011-10-01T09:25:20Z</time>
      </trkpt>
      <trkpt lat="45.7369" lon="4.6559">
        <ele>407</ele>
        <time>2011-10-01T09:25:21Z</time>
      </trkpt>
      <trkpt lat="45.73691" lon="4.65592">
        <ele>407</ele>
        <time>2011-10-01T09:25:22Z</time>
      </trkpt>
      <trkpt lat="45.73691" lon="4.65594">
        <ele>407</ele>
        <time>2011-10-01T09:25:23Z</time>
      </trkpt>
      <trkpt lat="45.73693" lon="4.65599">
        <ele>408</ele>
        <time>2011-10-01T09:25:27Z</time>
      </trkpt>
      <trkpt lat="45.73694" lon="4.656">
        <ele>408</ele>
        <time>2011-10-01T09:25:28Z</time>
      </trkpt>
      <trkpt lat="45.73695" lon="4.65602">
        <ele>409</ele>
        <time>2011-10-01T09:25:29Z</time>
      </trkpt>
      <trkpt lat="45.73696" lon="4.65603">
        <ele>409</ele>
        <time>2011-10-01T09:25:30Z</time>
      </trkpt>
      <trkpt lat="45.73697" lon="4.65605">
        <ele>409</ele>
        <time>2011-10-01T09:25:31Z</time>
      </trkpt>
      <trkpt lat="45.73698" lon="4.65606">
        <ele>409</ele>
        <time>2011-10-01T09:25:32Z</time>
      </trkpt>
      <trkpt lat="45.73699" lon="4.65608">
        <ele>409</ele>
        <time>2011-10-01T09:25:33Z</time>
      </trkpt>
      <trkpt lat="45.737" lon="4.65609">
        <ele>409</ele>
        <time>2011-10-01T09:25:34Z</time>
      </trkpt>
      <trkpt lat="45.73701" lon="4.65611">
        <ele>409</ele>
        <time>2011-10-01T09:25:35Z</time>
      </trkpt>
      <trkpt lat="45.73701" lon="4.65612">
        <ele>410</ele>
        <time>2011-10-01T09:25:36Z</time>
      </trkpt>
      <trkpt lat="45.73707" lon="4.65622">
        <ele>411</ele>
        <time>2011-10-01T09:25:44Z</time>
      </trkpt>
      <trkpt lat="45.73712" lon="4.65629">
        <ele>412</ele>
        <time>2011-10-01T09:25:48Z</time>
      </trkpt>
      <trkpt lat="45.73713" lon="4.6563">
        <ele>412</ele>
        <time>2011-10-01T09:25:49Z</time>
      </trkpt>
      <trkpt lat="45.73714" lon="4.65631">
        <ele>412</ele>
        <time>2011-10-01T09:25:50Z</time>
      </trkpt>
      <trkpt lat="45.73715" lon="4.65631">
        <ele>413</ele>
        <time>2011-10-01T09:25:51Z</time>
      </trkpt>
      <trkpt lat="45.73716" lon="4.65632">
        <ele>413</ele>
        <time>2011-10-01T09:25:52Z</time>
      </trkpt>
      <trkpt lat="45.73717" lon="4.65633">
        <ele>413</ele>
        <time>2011-10-01T09:25:53Z</time>
      </trkpt>
      <trkpt lat="45.73718" lon="4.65634">
        <ele>413</ele>
        <time>2011-10-01T09:25:54Z</time>
      </trkpt>
      <trkpt lat="45.73719" lon="4.65635">
        <ele>413</ele>
        <time>2011-10-01T09:25:55Z</time>
      </trkpt>
      <trkpt lat="45.7372" lon="4.65637">
        <ele>413</ele>
        <time>2011-10-01T09:25:56Z</time>
      </trkpt>
      <trkpt lat="45.73721" lon="4.65639">
        <ele>414</ele>
        <time>2011-10-01T09:25:57Z</time>
      </trkpt>
      <trkpt lat="45.73724" lon="4.65646">
        <ele>414</ele>
        <time>2011-10-01T09:26:02Z</time>
      </trkpt>
      <trkpt lat="45.73725" lon="4.65646">
        <ele>414</ele>
        <time>2011-10-01T09:26:03Z</time>
      </trkpt>
      <trkpt lat="45.73726" lon="4.65647">
        <ele>414</ele>
        <time>2011-10-01T09:26:04Z</time>
      </trkpt>
      <trkpt lat="45.73732" lon="4.65646">
        <ele>415</ele>
        <time>2011-10-01T09:26:08Z</time>
      </trkpt>
      <trkpt lat="45.73733" lon="4.65647">
        <ele>415</ele>
        <time>2011-10-01T09:26:09Z</time>
      </trkpt>
      <trkpt lat="45.73734" lon="4.65647">
        <ele>415</ele>
        <time>2011-10-01T09:26:10Z</time>
      </trkpt>
      <trkpt lat="45.73735" lon="4.65648">
        <ele>415</ele>
        <time>2011-10-01T09:26:11Z</time>
      </trkpt>
      <trkpt lat="45.73737" lon="4.65648">
        <ele>416</ele>
        <time>2011-10-01T09:26:12Z</time>
      </trkpt>
      <trkpt lat="45.73738" lon="4.65649">
        <ele>416</ele>
        <time>2011-10-01T09:26:13Z</time>
      </trkpt>
      <trkpt lat="45.73739" lon="4.6565">
        <ele>416</ele>
        <time>2011-10-01T09:26:14Z</time>
      </trkpt>
      <trkpt lat="45.7374" lon="4.65651">
        <ele>416</ele>
        <time>2011-10-01T09:26:15Z</time>
      </trkpt>
      <trkpt lat="45.73742" lon="4.65651">
        <ele>416</ele>
        <time>2011-10-01T09:26:16Z</time>
      </trkpt>
      <trkpt lat="45.73743" lon="4.65651">
        <ele>417</ele>
        <time>2011-10-01T09:26:17Z</time>
      </trkpt>
      <trkpt lat="45.73744" lon="4.65652">
        <ele>417</ele>
        <time>2011-10-01T09:26:18Z</time>
      </trkpt>
      <trkpt lat="45.73746" lon="4.65653">
        <ele>417</ele>
        <time>2011-10-01T09:26:19Z</time>
      </trkpt>
      <trkpt lat="45.73755" lon="4.65656">
        <ele>418</ele>
        <time>2011-10-01T09:26:26Z</time>
      </trkpt>
      <trkpt lat="45.73766" lon="4.65659">
        <ele>419</ele>
        <time>2011-10-01T09:26:34Z</time>
      </trkpt>
      <trkpt lat="45.73779" lon="4.65663">
        <ele>421</ele>
        <time>2011-10-01T09:26:43Z</time>
      </trkpt>
      <trkpt lat="45.73782" lon="4.65664">
        <ele>421</ele>
        <time>2011-10-01T09:26:45Z</time>
      </trkpt>
      <trkpt lat="45.73797" lon="4.65666">
        <ele>423</ele>
        <time>2011-10-01T09:26:55Z</time>
      </trkpt>
      <trkpt lat="45.73798" lon="4.65668">
        <ele>423</ele>
        <time>2011-10-01T09:26:56Z</time>
      </trkpt>
      <trkpt lat="45.73799" lon="4.65668">
        <ele>423</ele>
        <time>2011-10-01T09:26:57Z</time>
      </trkpt>
      <trkpt lat="45.73801" lon="4.65668">
        <ele>423</ele>
        <time>2011-10-01T09:26:58Z</time>
      </trkpt>
      <trkpt lat="45.73802" lon="4.65668">
        <ele>423</ele>
        <time>2011-10-01T09:26:59Z</time>
      </trkpt>
      <trkpt lat="45.73803" lon="4.65668">
        <ele>423</ele>
        <time>2011-10-01T09:27:00Z</time>
      </trkpt>
      <trkpt lat="45.73814" lon="4.65672">
        <ele>425</ele>
        <time>2011-10-01T09:27:07Z</time>
      </trkpt>
      <trkpt lat="45.73826" lon="4.65679">
        <ele>426</ele>
        <time>2011-10-01T09:27:16Z</time>
      </trkpt>
      <trkpt lat="45.73832" lon="4.65692">
        <ele>427</ele>
        <time>2011-10-01T09:27:21Z</time>
      </trkpt>
      <trkpt lat="45.73833" lon="4.65693">
        <ele>426</ele>
        <time>2011-10-01T09:27:22Z</time>
      </trkpt>
      <trkpt lat="45.73834" lon="4.65694">
        <ele>427</ele>
        <time>2011-10-01T09:27:23Z</time>
      </trkpt>
      <trkpt lat="45.73835" lon="4.65695">
        <ele>427</ele>
        <time>2011-10-01T09:27:24Z</time>
      </trkpt>
      <trkpt lat="45.73836" lon="4.65696">
        <ele>427</ele>
        <time>2011-10-01T09:27:25Z</time>
      </trkpt>
      <trkpt lat="45.73837" lon="4.65697">
        <ele>427</ele>
        <time>2011-10-01T09:27:26Z</time>
      </trkpt>
      <trkpt lat="45.7384" lon="4.65701">
        <ele>428</ele>
        <time>2011-10-01T09:27:30Z</time>
      </trkpt>
      <trkpt lat="45.7384" lon="4.6571">
        <ele>428</ele>
        <time>2011-10-01T09:27:37Z</time>
      </trkpt>
      <trkpt lat="45.7384" lon="4.6571">
        <ele>428</ele>
        <time>2011-10-01T09:27:45Z</time>
      </trkpt>
      <trkpt lat="45.7384" lon="4.6571">
        <ele>425</ele>
        <time>2011-10-01T09:27:56Z</time>
      </trkpt>
      <trkpt lat="45.7384" lon="4.6571">
        <ele>425</ele>
        <time>2011-10-01T09:27:57Z</time>
      </trkpt>
      <trkpt lat="45.7384" lon="4.6571">
        <ele>428</ele>
        <time>2011-10-01T09:27:58Z</time>
      </trkpt>
    </trkseg>
  </trk>
</gpx>